[[{"header":{"parameterUnit":"m.s-1","parameterCategory":1,"la1":31.0,"la2":29.5877,"lo1":-88.7671,"lo2":-86.6584,"dy":0.0162,"dx":0.0185,"nx":115,"ny":88,"refTime":"2023-07-05T00:00:00:Z","depth":0,"parameterNumber":2,"parameterNumberName":"U-component_of_WINDS"},"data":[0.0,0.0,0.0,0.0,0.0,0.0,0.0,0.0,0.0,0.0,0.0,0.0,0.0,0.0,0.0,0.0,0.0,0.0,0.0,0.0,0.0,0.0,0.0,0.0,0.0,0.0,0.0,0.0,0.0,0.0,0.0,0.0,0.0,0.0,0.0,0.0,0.0,0.0,0.0,0.0,0.0,0.0,0.0,0.0,0.0,0.0,0.0,0.0,0.0,0.0,0.0,0.0,0.0,0.0,0.0,0.0,0.0,0.0,0.0,0.0,0.0,0.0,0.0,0.0,0.0,0.0,0.0,0.0,0.0,0.0,0.0,0.0,0.0,0.0,0.0,0.0,0.0,0.0,0.0,0.0,0.0,0.0,0.0,0.0,0.0,0.0,0.0,0.0,0.0,0.0,0.0,0.0,0.0,0.0,0.0,0.0,0.0,0.0,0.0,0.0,0.0,0.0,0.0,0.0,0.0,0.0,0.0,0.0,0.0,0.0,0.0,0.0,0.0,0.0,0.0,0.0,0.0,0.0,0.0,0.0,0.0,0.0,0.0,0.0,0.0,0.0,0.0,0.0,0.0,0.0,0.0,0.0,0.0,0.0,0.0,0.0,0.0,0.0,0.0,0.0,0.0,0.0,0.0,0.0,0.0,0.0,0.0,0.0,0.0,0.0,0.0,0.0,0.0,0.0,0.0,0.0,0.0,0.0,0.0,0.0,0.0,0.0,0.0,0.0,0.0,0.0,0.0,0.0,0.0,0.0,0.0,0.0,0.0,0.0,0.0,0.0,0.0,0.0,0.0,0.0,0.0,0.0,0.0,0.0,0.0,0.0,0.0,0.0,0.0,0.0,0.0,0.0,0.0,0.0,0.0,0.0,0.0,0.0,0.0,0.0,0.0,0.0,0.0,0.0,0.0,0.0,0.0,0.0,0.0,0.0,0.0,0.0,0.0,0.0,0.0,0.0,0.0,0.0,0.0,0.0,0.0,0.0,0.0,0.0,0.0,0.0,0.0,0.0,0.0,0.0,0.0,0.0,0.0,0.0,0.0,0.0,0.0,0.0,0.0,0.0,0.0,0.0,0.0,0.0,0.0,0.0,0.0,0.0,0.0,0.0,0.0,0.0,0.0,0.0,0.0,0.0,0.0,0.0,0.0,0.0,0.0,0.0,0.0,0.0,0.0,0.0,0.0,0.0,0.0,0.0,0.0,0.0,0.0,0.0,0.0,0.0,0.0,0.0,0.0,0.0,0.0,0.0,0.0,0.0,0.0,0.0,0.0,0.0,0.0,0.0,0.0,0.0,0.0,0.0,0.0,0.0,0.0,0.0,0.0,0.0,0.0,0.0,0.0,0.0,0.0,0.0,0.0,0.0,0.0,0.0,0.0,0.0,0.0,0.0,0.0,0.0,0.0,0.0,0.0,0.0,0.0,0.0,0.0,0.0,0.0,0.0,0.0,0.0,0.0,0.0,0.0,0.0,0.0,0.0,0.0,0.0,0.0,0.0,0.0,0.0,0.0,0.0,0.0,0.0,0.0,0.0,0.0,0.0,0.0,0.0,0.0,0.0,0.0,0.0,0.0,0.0,0.0,0.0,0.0,0.0,0.0,0.0,0.0,0.0,0.0,0.0,0.0,0.0,0.0,0.0,0.0,0.0,0.0,0.0,0.0,0.0,0.0,0.0,0.0,0.0,0.0,0.0,0.0,0.0,0.0,0.0,0.0,0.0,0.0,0.0,0.0,0.0,0.0,0.0,0.0,0.0,0.0,0.0,0.0,0.0,0.0,0.0,0.0,0.0,0.0,0.0,0.0,0.0,0.0,0.0,0.0,0.0,0.0,0.0,0.0,0.0,0.0,0.0,0.0,0.0,0.0,0.0,0.0,0.0,0.0,0.0,0.0,0.0,0.0,0.0,0.0,0.0,0.0,0.0,0.0,0.0,0.0,0.0,0.0,0.0,0.0,0.0,0.0,0.0,0.0,0.0,0.0,0.0,0.0,0.0,0.0,0.0,0.0,0.0,0.0,0.0,0.0,0.0,0.0,0.0,0.0,0.0,0.0,0.0,0.0,0.0,0.0,0.0,0.0,0.0,0.0,0.0,0.0,0.0,0.0,0.0,0.0,0.0,0.0,0.0,0.0,0.0,0.0,0.0,0.0,0.0,0.0,0.0,0.0,0.0,0.0,0.0,0.0,0.0,0.0,0.0,0.0,0.0,0.0,0.0,0.0,0.0,0.0,0.0,0.0,0.0,0.0,0.0,0.0,0.0,0.0,0.0,0.0,0.0,0.0,0.0,0.0,0.0,0.0,0.0,0.0,0.0,0.0,0.0,0.0,0.0,0.0,0.0,0.0,0.0,0.0,0.0,0.0,0.0,0.0,0.0,0.0,0.0,0.0,0.0,0.0,0.0,0.0,0.0,0.0,0.0,0.0,0.0,0.0,0.0,0.0,0.0,0.0,0.0,0.0,0.0,0.0,0.0,0.0,0.0,0.0,0.0,0.0,0.0,0.0,0.0,0.0,0.0,0.0,0.0,0.0,0.0,0.0,0.0,0.0,0.0,0.0,0.0,0.0,0.0,0.0,0.0,0.0,0.0,0.0,0.0,0.0,0.0,0.0,0.0,0.0,0.0,0.0,0.0,0.0,0.0,0.0,0.0,0.0,0.0,0.0,0.0,0.0,0.0,0.0,0.0,0.0,0.0,0.0,0.0,0.0,0.0,0.0,0.0,0.0,0.0,0.0,0.0,0.0,0.0,0.0,0.0,0.0,0.0,0.0,0.0,0.0,0.0,0.0,0.0,0.0,0.0,0.0,0.0,0.0,0.0,0.0,0.0,0.0,0.0,0.0,0.0,0.0,0.0,0.0,0.0,0.0,0.0,0.0,0.0,0.0,0.0,0.0,0.0,0.0,0.0,0.0,0.0,0.0,0.0,0.0,0.0,0.0,0.0,0.0,0.0,0.0,0.0,0.0,0.0,0.0,0.0,0.0,0.0,0.0,0.0,0.0,0.0,0.0,0.0,0.0,0.0,0.0,0.0,0.0,0.0,0.0,0.0,0.0,0.0,0.0,0.0,0.0,0.0,0.0,0.0,0.0,0.0,0.0,0.0,0.0,0.0,0.0,0.0,0.0,0.0,0.0,0.0,0.0,0.0,0.0,0.0,0.0,0.0,0.0,0.0,0.0,0.0,0.0,0.0,0.0,0.0,0.0,0.0,0.0,0.0,0.0,0.0,0.0,0.0,0.0,0.0,0.0,0.0,0.0,0.0,0.0,0.0,0.0,0.0,0.0,0.0,0.0,0.0,0.0,0.0,0.0,0.0,0.0,0.0,0.0,0.0,0.0,0.0,0.0,0.0,0.0,0.0,0.0,0.0,0.0,0.0,0.0,0.0,0.0,0.0,0.0,0.0,0.0,0.0,0.0,0.0,0.0,0.0,0.0,0.0,0.0,0.0,0.0,0.0,0.0,0.0,0.0,0.0,0.0,0.0,0.0,0.0,0.0,0.0,0.0,0.0,0.0,0.0,0.0,0.0,0.0,0.0,0.0,0.0,0.0,0.0,0.0,0.0,0.0,0.0,0.0,0.0,0.0,0.0,0.0,0.0,0.0,0.0,0.0,0.0,0.0,0.0,0.0,0.0,0.0,0.0,0.0,0.0,0.0,0.0,0.0,0.0,0.0,0.0,0.0,0.0,0.0,0.0,0.0,0.0,0.0,0.0,0.0,0.0,0.0,0.0,0.0,0.0,0.0,0.0,0.0,0.0,0.0,0.0,0.0,0.0,0.0,0.0,0.0,0.0,0.0,0.0,0.0,0.0,0.0,0.0,0.0,0.0,0.0,0.0,0.0,0.0,0.0,0.0,0.0,0.0,0.0,0.0,0.0,0.0,0.0,0.0,0.0,0.0,0.0,0.0,0.0,0.0,0.0,0.0,0.0,0.0,0.0,0.0,0.0,0.0,0.0,0.0,0.0,0.0,0.0,0.0,0.0,0.0,0.0,0.0,0.0,0.0,0.0,0.0,0.0,0.0,0.0,0.0,0.0,0.0,0.0,0.0,0.0,0.0,0.0,0.0,0.0,0.0,0.0,0.0,0.0,0.0,0.0,0.0,0.0,0.0,0.0,0.0,0.0,0.0,0.0,0.0,0.0,0.0,0.0,0.0,0.0,0.0,0.0,0.0,0.0,0.0,0.0,0.0,0.0,0.0,0.0,0.0,0.0,0.0,0.0,0.0,0.0,0.0,0.0,0.0,0.0,0.0,0.0,0.0,0.0,0.0,0.0,0.0,-0.2808,0.0,0.0,0.0,0.0,0.0,0.0,0.0,0.0,0.0,0.0,0.0,0.0,0.0,0.0,0.0,0.0,0.0,0.0,0.0,0.0,0.0,0.0,0.0,0.0,0.0,0.0,0.0,0.0,0.0,0.0,0.0,0.0,0.0,0.0,0.0,0.0,0.0,0.0,0.0,0.0,0.0,0.0,0.0,0.0,0.0,0.0,0.0,0.0,0.0,0.0,0.0,0.0,0.0,0.0,0.0,0.0,0.0,0.0,0.0,0.0,0.0,0.0,0.0,0.0,0.0,0.0,0.0,0.0,0.0,0.0,0.0,0.0,0.0,0.0,0.0,0.0,0.0,0.0,0.0,0.0,0.0,0.0,0.0,0.0,0.0,0.0,0.0,0.0,0.0,0.0,0.0,0.0,0.0,0.0,0.0,0.0,0.0,0.0,0.0,0.0,0.0,0.0,0.0,0.0,0.0,0.0,0.0,0.0,0.0,0.0,-0.1259,-0.1501,-0.1457,-0.1783,-0.2613,0.0,0.0,0.0,0.0,0.0,0.0,0.0,0.0,0.0,0.0,0.0,0.0,0.0,0.0,0.0,0.0,0.0,0.0,0.0,0.0,0.0,0.0,0.0,0.0,0.0,0.0,0.0,0.0,0.0,0.0,0.0,0.0,0.0,0.0,0.0,0.0,0.0,0.0,0.0,0.0,0.0,0.0,0.0,0.0,0.0,0.0,0.0,0.0,0.0,0.0,0.0,0.0,0.0,0.0,0.0,0.0,0.0,0.0,0.0,0.0,0.0,0.0,0.0,0.0,0.0,0.0,0.0,0.0,0.0,0.0,0.0,0.0,0.0,0.0,0.0,0.0,0.0,0.0,0.0,0.0,0.0,0.0,0.0,0.0,0.0,0.0,0.0,0.0,0.0,0.0,0.0,0.0,0.0,0.0,0.0,0.0,0.0,0.0,0.0,0.0,0.0,0.0,0.0,0.0,0.0,0.0,0.0,0.0,0.0,0.0,0.0,0.0,-0.0813,-0.1373,-0.2351,0.0,0.0,0.0,0.0,0.0,0.0,0.0,0.0,0.0,0.0,0.0,0.0,0.0,0.0,0.0,0.0,0.0,0.0,0.0,0.0,0.0,0.0,0.0,0.0,0.0,0.0,0.0,0.0,0.0,0.0,0.0,0.0,0.0,0.0,0.0,0.0,0.0,0.0,0.0,0.0,0.0,0.0,0.0,0.0,0.0,0.0,0.0,0.0,0.0,0.0,0.0,0.0,0.0,0.0,0.0,0.0,0.0,0.0,0.0,0.0,0.0,0.0,0.0,0.0,0.0,0.0,0.0,0.0,0.0,0.0,0.0,0.0,0.0,0.0,0.0,0.0,0.0,0.0,0.0,0.0,0.0,0.0,0.0,0.0,0.0,0.0,0.0,0.0,0.0,0.0,0.0,0.0,0.0,0.0,0.0,0.0,0.0,0.0,0.0,0.0,0.0,0.0,0.0,0.0,0.0,0.0,0.0,0.0,0.0,0.0,0.0293,0.1207,-0.0138,0.0,-0.1706,0.0,0.0,0.0,0.0,0.0,0.0,0.0,0.0,0.0,0.0,0.0,0.0,0.0,0.0,0.0,0.0,0.0,0.0,0.0,0.0,0.0,0.0,0.0,0.0,0.0,0.0,0.0,0.0,0.0,0.0,0.0,0.0,0.0,0.0,0.0,0.0,0.0,0.0,0.0,0.0,0.0,0.0,0.0,0.0,0.0,0.0,0.0,0.0,0.0,0.0,0.0,0.0,0.0,0.0,0.0,0.0,0.0,0.0,0.0,0.0,0.0,0.0,0.0,0.0,0.0,0.0,0.0,0.0,0.0,0.0,0.0,0.0,0.0,0.0,0.0,0.0,0.0,0.0,0.0,0.0,0.0,0.0,0.0,0.0,0.0,0.0,0.0,0.0,0.0,0.0,0.0,0.0,0.0,0.0,0.0,0.0,0.0,0.0,0.0,0.0,0.0,0.0,0.0,0.0,0.0,0.0,0.0,0.0,0.0,0.0,0.1071,0.1829,0.0863,0.0138,0.0,0.0,0.0,0.0,0.0,0.0,0.0,0.0,0.0,0.0,0.0,0.0,0.0,0.0,0.0,0.0,0.0,0.0,0.0,0.0,0.0,0.0,0.0,0.0,0.0,0.0,0.0,0.0,0.0,0.0,0.0,0.0,0.0,0.0,0.0,0.0,0.0,0.0,0.0,0.0,0.0,0.0,0.0,0.0,0.0,0.0,0.0,0.0,0.0,0.0,0.0,0.0,0.0,0.0,0.0,0.0,0.0,0.0,0.0,0.0,0.0,0.0,0.0,0.0,0.0,0.0,0.0,0.0,0.0,0.0,0.0,0.0,0.0,0.0,0.0,0.0,0.0,0.0,0.0,0.0,0.0,0.0,0.0,0.0,0.0,0.0,0.0,0.0,0.0,0.0,0.0,0.0,0.0,0.0,0.0,0.0,0.0,0.0,0.0,0.0,0.0,0.0,0.0,0.0,0.0,0.0,0.0,0.0,0.0,0.0,0.1855,0.1772,0.21,0.1763,0.1401,0.1112,0.0,0.0,0.0,0.0,0.0,0.0,0.0,0.0,0.0,0.0,0.0,0.0,0.0,0.0,0.0,0.0,0.0,0.0,0.0,0.0,0.0,0.0,0.0,0.0,0.0,0.0,0.0,0.0,0.0,0.0,0.0,0.0,0.0,0.0,0.0,0.0,0.0,0.0,0.0,0.0,0.0,0.0,0.0,0.0,0.0,0.0,0.0,0.0,0.0,0.0,0.0,0.0,0.0,0.0,0.0,0.0,0.0,0.0,0.0,0.0,0.0,0.0,0.0,0.0,0.0,0.0,0.0,0.0,0.0,0.0,0.0,0.0,0.0,0.0,0.0,0.0,0.0,0.0,0.0,0.0,0.0,0.0,0.0,0.0,0.0,0.0,0.0,0.0,0.0,0.0,0.0,0.0,0.0,0.0,0.0,0.0,0.0,0.0,0.0,0.0,0.0,0.0,0.0,0.0,0.0,0.0,0.0,0.0,0.3898,0.3045,0.2465,0.2337,0.2328,0.2345,0.0,0.0,0.0,0.0,0.0,0.0,0.0,0.0,0.0,0.0,0.0,0.0,0.0,0.0,0.0,0.0,0.0,0.0,0.0,0.0,0.0,0.0,0.0,0.0,0.0,0.0,0.0,0.0,0.0,0.0,0.0,0.0,0.0,0.0,0.0,0.0,0.0,0.0,0.0,0.0,0.0,0.0,0.0,0.0,0.0,0.0,0.0,0.0,0.0,0.0,0.0,0.0,0.0,0.0,0.0,0.0,0.0,0.0,0.0,0.0,0.0,0.0,0.0,0.0,0.0,0.0,0.0,0.0,0.0,0.0,0.0,0.0,0.0,0.0,0.0,0.0,0.0,0.0,0.0,0.0,0.0,0.0,0.0,0.0,0.0,0.0,0.0,0.0,0.0,0.0,0.0,0.0,0.0,0.0,0.0,0.0,0.0,0.0,0.0,0.0,0.0,0.0,0.0,0.0,0.0,0.0,0.0,0.0,0.0,0.3765,0.3847,0.3735,0.3481,0.3541,0.3433,0.0,0.0,0.0,0.0,0.0,0.0,0.0,0.0,0.0,0.0,0.0,0.0,0.0,0.0,0.0,0.0,0.0,0.0,0.0,0.0,0.0,0.0,0.0,0.0,0.0,0.0,0.0,0.0,0.0,0.0,0.0,0.0,0.0,0.0,0.0,0.0,0.0,0.0,0.0,0.0,0.0,0.0,0.0,0.0,0.0,0.0,0.0,0.0,0.0,0.0,0.0,0.0,0.0,0.0,0.0,0.0,0.0,0.0,0.0,0.0,0.0,0.0,0.0,0.0,0.0,0.0,0.0,0.0,0.0,0.0,0.0,0.0,0.0,0.0,0.0,0.0,0.0,0.0,0.0,0.0,0.0,0.0,0.0,0.0,0.0,0.0,0.0,0.0,0.0,0.0,0.0,0.0,0.0,0.0,0.0,0.0,0.0,0.0,0.0,0.0,0.0,0.0,0.0,0.0,0.0,0.0,0.0,0.0,0.0,0.3655,0.0,0.4568,0.4337,0.4317,0.4157,0.0,0.0,0.0,0.0,0.0,0.0,0.0,0.0,0.0,0.0,0.0,0.0,0.0,0.0,0.0,0.0,0.0,0.0,0.0,0.0,0.0,0.0,0.0,0.0,0.0,0.0,0.0,0.0,0.0,0.0,0.0,0.0,0.0,0.0,0.0,0.0,0.0,0.0,0.0,0.0,0.0,0.0,0.0,0.0,0.0,0.0,0.0,0.0,0.0,0.0,0.0,0.0,0.0,0.0,0.0,0.0,0.0,0.0,0.0,0.0,0.0,0.0,0.0,0.0,0.0,0.0,0.0,0.0,0.0,0.0,0.0,0.0,0.0,0.0,0.0,0.0,0.0,0.0,0.0,0.0,0.0,0.0,0.0,0.0,0.0,0.0,0.0,0.0,0.0,0.0,0.0,0.0,0.0,0.0,0.0,0.0,0.0,0.0,0.0,0.0,0.0,0.0,0.0,0.0,0.0,0.0,0.0,0.0,0.3707,0.3761,0.4422,0.4808,0.483,0.4652,0.449,0.0,0.0,0.0,0.0,0.0,0.0,0.0,0.0,0.0,0.0,0.0,0.0,0.0,0.0,0.0,0.0,0.0,0.0,0.0,0.0,0.0,0.0,0.0,0.0,0.0,0.0,0.0,0.0,0.0,0.0,0.0,0.0,0.0,0.0,0.0,0.0,0.0,0.0,0.0,0.0,0.0,0.0,0.0,0.0,0.0,0.0,0.0,0.0,0.0,0.0,0.0,0.0,0.0,0.0,0.0,0.0,0.0,0.0,0.0,0.0,0.0,0.0,0.0,0.0,0.0,0.0,0.0,0.0,0.0,0.0,0.0,0.0,0.0,0.0,0.0,0.0,0.0,0.0,0.0,0.0,0.0,0.0,0.0,0.0,0.0,0.0,0.0,0.0,0.0,0.0,0.0,0.0,0.0,0.0,0.0,0.0,0.0,0.0,0.0,0.0,0.0,0.0,0.0,0.0,0.0,0.0,0.0,0.0,0.0,0.501,0.4875,0.5312,0.6309,0.548,0.5291,0.0,0.0,0.0,0.0,0.0,0.0,0.0,0.0,0.0,0.0,0.0,0.0,0.0,0.0,0.0,0.0,0.0,0.0,0.0,0.0,0.0,0.0,0.0,0.0,0.0,0.0,0.0,0.0,0.0,0.0,0.0,0.0,0.0,0.0,0.0,0.0,0.0,0.0,0.0,0.0,0.0,0.0,0.0,0.0,0.0,0.0,0.0,0.0,0.0,0.0,0.0,0.0,0.0,0.0,0.0,0.0,0.0,0.0,0.0,0.0,0.0,0.0,0.0,0.0,0.0,0.0,0.0,0.0,0.0,0.0,0.0,0.0,0.0,0.0,0.0,0.0,0.0,0.0,0.0,0.0,0.0,0.0,0.0,0.0,0.0,0.0,0.0,0.0,0.0,0.0,0.0,0.0,0.0,0.0,0.0,0.0,0.0,0.0,0.0,0.0,0.0,0.0,0.0,0.0,0.0,0.0,0.0,0.0,0.0,0.6112,0.5719,0.5925,0.693,0.6379,0.6131,0.6258,0.0,0.0,0.0,0.0,0.0,0.0,0.0,0.0,0.0,0.0,0.0,0.0,0.0,0.0,0.0,0.0,0.0,0.0,0.0,0.0,0.0,0.0,0.0,0.0,0.0,0.0,0.0,0.0,0.0,0.0,0.0,0.0,0.0,0.0,0.0,0.0,0.0,0.0,0.0,0.0,0.0,0.0,0.0,0.0,0.0,0.0,0.0,0.0,0.0,0.0,0.0,0.0,0.0,0.0,0.0,0.0,0.0,0.0,0.0,0.0,0.0,0.0,0.0,0.0,0.0,0.0,0.0,0.0,0.0,0.0,0.0,0.0,0.0,0.0,0.0,0.0,0.0,0.0,0.0,0.0,0.0,0.0,0.0,0.0,0.0,0.0,0.0,0.0,0.0,0.0,0.0,0.0,0.0,0.0,0.0,0.0,0.0,0.0,0.0,0.0,0.0,0.0,0.0,0.0,0.0,0.0,0.0,0.0,0.7148,0.6871,0.6781,0.6921,0.7306,0.7007,0.0,0.0,0.0,0.0,0.0,0.0,0.0,0.0,0.0,0.0,0.0,0.0,0.0,0.0,0.0,0.0,0.0,0.0,0.0,0.0,0.0,0.0,0.0,0.0,0.0,0.0,0.0,0.0,0.0,0.0,0.0,0.0,0.0,0.0,0.0,0.0,0.0,0.0,0.0,0.0,0.0,0.0,0.0,0.0,0.0,0.0,0.0,0.0,0.0,0.0,0.0,0.0,0.0,0.0,0.0,0.0,0.0,0.0,0.0,0.0,0.0,0.0,0.0,0.0,0.0,0.0,0.0,0.0,0.0,0.0,0.0,0.0,0.0,0.0,0.0,0.0,0.0,0.0,0.0,0.0,0.0,0.0,0.0,0.0,0.0,0.0,0.0,0.0,0.0,0.0,0.0,0.0,0.0,0.0,0.0,0.0,0.0,0.0,0.0,0.0,0.0,0.0,0.0,0.0,0.0,0.0,0.0,0.0,0.0,0.7906,0.8282,0.8596,0.8906,0.8256,0.8193,0.0,0.0,0.0,0.0,0.0,0.0,0.0,0.0,0.0,0.0,0.0,0.0,0.0,0.0,0.0,0.0,0.0,0.0,0.0,0.0,0.0,0.0,0.0,0.0,0.0,0.0,0.0,0.0,0.0,0.0,0.0,0.0,0.0,0.0,0.0,0.0,0.0,0.0,0.0,0.0,0.0,0.0,0.0,0.0,0.0,0.0,0.0,0.0,0.0,0.0,0.0,0.0,0.0,0.0,0.0,0.0,0.0,0.0,0.0,0.0,0.0,0.0,0.0,0.0,0.0,0.0,0.0,0.0,0.0,0.0,0.0,0.0,0.0,0.0,0.0,0.0,0.0,0.0,0.0,0.0,0.0,0.0,0.0,0.0,0.0,0.0,0.0,0.0,0.0,0.0,0.0,0.0,0.0,0.0,0.0,0.0,0.0,0.0,0.0,0.0,0.0,0.0,0.0,0.0,0.0,0.0,0.0,0.0,0.575,0.808,0.9393,1.014,1.0383,0.9631,0.9301,0.0,0.0,0.0,0.0,0.0,0.0,0.0,0.0,0.0,0.0,0.0,0.0,0.0,0.0,0.0,0.0,0.0,0.0,0.0,0.0,0.0,0.0,0.0,0.0,0.0,0.0,0.0,0.0,0.0,0.0,0.0,0.0,0.0,0.0,0.0,0.0,0.0,0.0,0.0,0.0,0.0,0.0,0.0,0.0,0.0,0.0,0.0,0.0,0.0,0.0,0.0,0.0,0.0,0.0,0.0,0.0,0.0,0.0,0.0,0.0,0.0,0.0,0.0,0.0,0.0,0.0,0.0,0.0,0.0,0.0,0.0,0.0,0.0,0.0,0.0,0.0,0.0,0.0,0.0,0.0,0.0,0.0,0.0,0.0,0.0,0.0,0.0,0.0,0.0,0.0,0.0,0.0,0.0,0.0,0.0,0.0,0.0,0.0,0.0,0.0,0.0,0.0,0.0,0.0,0.0,0.0,0.0,0.0,0.5695,0.8044,1.0172,1.1267,1.1259,1.0971,1.0178,0.0,0.0,0.0,0.0,0.0,0.0,0.0,0.0,0.0,0.0,0.0,0.0,0.0,0.0,0.0,0.0,0.0,0.0,0.0,0.0,0.0,0.0,0.0,0.0,0.0,0.0,0.0,0.0,0.0,0.0,0.0,0.0,0.0,0.0,0.0,0.0,0.0,0.0,0.0,0.0,0.0,0.0,0.0,0.0,0.0,0.0,0.0,0.0,0.0,0.0,0.0,0.0,0.0,0.0,0.0,0.0,0.0,0.0,0.0,0.0,0.0,0.0,0.0,0.0,0.0,0.0,0.0,0.0,0.0,0.0,0.0,0.0,0.0,0.0,0.0,0.0,0.0,0.0,0.0,0.0,0.0,0.0,0.0,0.0,0.0,0.0,0.0,0.0,0.0,0.0,0.0,0.0,0.0,0.0,0.0,0.0,0.0,0.0,0.0,0.0,0.0,0.0,0.0,0.0,0.0,0.0,0.0,0.0,0.6006,0.9156,1.0574,1.1276,1.1276,1.0617,1.0257,0.0,0.0,0.0,0.0,0.0,0.0,0.0,0.0,0.0,0.0,0.0,0.0,0.0,0.0,0.0,0.0,0.0,0.0,0.0,0.0,0.0,0.0,0.0,0.0,0.0,0.0,0.0,0.0,0.0,0.0,0.0,0.0,0.0,0.0,0.0,0.0,0.0,0.0,0.0,0.0,0.0,0.0,0.0,0.0,0.0,0.0,0.0,0.0,0.7457,0.0,0.0,0.0,0.0,0.0,0.0,0.0,0.0,0.0,0.0,0.0,0.0,0.0,0.0,0.0,0.0,0.0,0.0,0.0,0.0,0.0,0.0,0.0,0.0,0.0,0.0,0.0,0.0,0.0,0.0,0.0,0.0,0.0,0.0,0.0,0.0,0.0,0.0,0.0,0.0,0.0,0.0,0.0,0.0,0.0,0.0,0.0,0.0,0.0,0.0,0.0,0.0,0.0,0.0,0.0,0.0,0.0,0.0,0.0,0.781,0.9555,1.0694,1.1276,1.1259,1.072,1.0458,0.0,0.0,0.0,0.0,0.0,0.0,0.0,0.0,0.0,0.0,0.0,0.0,0.0,0.0,0.0,0.0,0.0,0.0,0.0,0.0,0.0,0.0,0.0,0.0,0.0,0.0,0.0,0.0,0.0,0.0,0.0,0.0,0.0,0.0,0.0,0.0,0.0,0.0,0.0,0.0,0.0,0.0,0.0,0.0,0.0,0.0,0.0,0.0,0.0,0.0,0.0,0.0,0.0,0.0,0.0,0.0,0.0,0.0,0.0,0.0,0.0,0.0,0.0,0.0,0.0,0.0,0.0,0.0,0.0,0.0,0.0,0.0,0.0,0.0,0.0,0.0,0.0,0.0,0.0,0.0,0.0,0.0,0.0,0.0,0.0,0.0,0.0,0.0,0.0,0.0,0.0,0.0,0.0,0.0,0.0,0.0,0.0,0.0,0.0,0.0,0.0,0.0,0.0,0.0,0.0,0.0,0.0,0.9133,0.9765,0.9907,1.0788,1.1276,1.1267,1.0916,1.0697,1.0797,0.0,0.0,0.0,0.0,0.0,0.0,0.0,0.0,0.0,0.0,0.0,0.0,0.0,0.0,0.0,0.0,0.0,0.0,0.0,0.0,0.0,0.0,0.0,0.0,0.0,0.0,0.0,0.0,0.0,0.0,0.0,0.0,0.0,0.0,0.0,0.0,0.0,0.0,0.7935,0.9461,0.0,0.0,0.0,0.0,0.0,0.0,0.0,0.0,0.9929,0.0,0.0,0.0,0.0,0.0,0.0,0.0,0.0,0.0,0.0,0.0,0.0,0.0,0.0,0.0,0.0,0.0,0.0,0.0,0.0,0.0,0.0,0.0,0.0,0.0,0.0,0.0,0.0,0.0,0.0,0.0,0.0,0.0,0.0,0.0,0.0,0.0,0.0,0.0,0.0,0.0,0.0,0.0,0.0,0.0,0.0,0.0,0.0,0.0,0.0,0.0,0.0,0.0,0.0,0.0,0.0,0.9047,0.911,0.9753,1.1008,1.1223,1.1276,1.1318,1.0916,1.0865,1.113,0.0,0.0,0.0,0.0,0.0,0.0,0.0,0.0,0.0,0.0,0.0,0.0,0.0,0.0,0.0,0.0,0.0,0.0,0.0,0.0,0.0,0.0,0.0,0.0,0.0,0.0,0.0,0.0,0.0,0.0,0.0,0.0,0.0,0.0,0.0,0.0,0.0,0.0,0.0,0.8965,0.9713,0.0,0.0,0.0,0.0,0.0,0.0,0.0,0.0,1.0592,0.0,0.0,0.0,0.0,0.0,0.0,0.0,0.0,0.0,0.0,0.0,0.0,0.0,0.0,0.0,0.0,0.0,0.0,0.0,0.0,0.0,0.0,0.0,0.0,0.0,0.0,0.0,0.0,0.0,0.0,0.0,0.0,0.0,0.0,0.0,0.0,0.0,0.0,0.0,0.0,0.0,0.0,0.0,0.0,0.0,0.0,0.0,0.0,0.0,0.0,0.0,0.0,0.0,0.0,0.0,0.9495,0.9384,0.9958,1.1216,1.1276,1.1276,1.1267,1.0916,1.0899,0.0,0.0,0.0,0.0,0.0,0.0,0.0,0.0,0.0,0.0,0.0,0.0,0.0,0.0,0.0,0.0,0.0,0.0,0.0,0.0,0.0,0.0,0.0,0.0,0.0,0.0,0.0,0.0,0.0,0.0,0.0,0.0,0.0,0.0,0.0,0.0,0.0,0.0,0.0,0.0,0.9369,1.1181,1.1167,0.0,0.0,0.0,0.0,0.0,0.0,1.2197,1.1746,0.0,0.0,0.0,0.0,0.0,0.0,0.0,0.0,0.0,0.0,0.0,0.0,0.0,0.0,0.0,0.0,0.0,0.0,0.0,0.0,0.0,0.0,0.0,0.0,0.0,0.0,0.0,0.0,0.0,0.0,0.0,0.0,0.0,0.0,0.0,0.0,0.0,0.0,0.0,0.0,0.0,0.0,0.0,0.0,0.0,0.0,0.0,0.0,0.0,0.0,0.0,0.0,0.0,0.0,0.0,0.9839,0.9851,1.03,1.1225,1.1276,1.1276,1.1267,1.0848,1.0814,0.0,0.0,0.0,0.0,0.0,0.0,0.0,0.0,0.0,0.0,0.0,0.0,0.0,0.0,0.0,0.0,0.0,0.0,0.0,0.0,0.0,0.0,0.0,0.0,0.0,0.0,0.0,0.0,0.0,0.0,0.0,0.0,0.0,0.0,0.0,0.0,0.0,0.0,0.0,0.0,0.0,1.2238,1.2497,1.1169,0.0,0.0,0.0,0.0,1.3205,1.3154,0.0,0.0,0.0,0.0,0.0,0.0,0.0,0.0,0.0,0.0,0.0,0.0,0.0,0.0,0.0,0.0,0.0,0.0,0.0,0.0,0.0,0.0,0.0,0.0,0.0,0.0,0.0,0.0,0.0,0.0,0.0,0.0,0.0,0.0,0.0,0.0,0.0,0.0,0.0,0.0,0.0,0.0,0.0,0.0,0.0,0.0,0.0,0.0,0.0,0.0,0.0,0.0,0.0,0.0,0.0,0.0,1.0055,1.0399,1.0814,1.125,1.1276,1.1276,1.1267,1.0583,1.054,0.0,0.0,0.0,0.0,0.0,0.0,0.0,0.0,0.0,0.0,0.0,0.0,0.0,0.0,0.0,0.0,0.0,0.0,0.0,0.0,0.0,0.0,0.0,0.0,0.0,0.0,0.0,0.0,0.0,0.0,0.0,0.0,0.0,0.0,0.0,0.0,0.0,0.0,0.0,0.0,0.0,1.0586,1.1804,1.2189,1.2155,0.0,0.0,0.0,1.3667,1.4284,0.0,0.0,0.0,0.0,0.0,0.0,0.0,0.0,0.0,0.0,0.0,0.0,0.0,0.0,0.0,0.0,0.0,0.0,0.0,0.0,0.0,0.0,0.0,0.0,0.0,0.0,0.0,0.0,0.0,0.0,0.0,0.0,0.0,0.0,0.0,0.0,0.0,0.0,0.0,0.0,0.0,0.0,0.0,0.0,0.0,0.0,0.0,0.0,0.0,0.0,0.0,0.0,0.0,0.0,0.0,1.0471,1.0441,1.0839,1.1105,1.1267,1.1276,1.1276,1.1267,1.054,1.0497,0.0,0.0,0.0,0.0,0.0,0.0,0.0,0.0,0.0,0.0,0.0,0.0,0.0,0.0,0.0,0.0,0.0,0.0,0.0,0.0,0.0,0.0,0.0,0.0,0.0,0.0,0.0,0.0,0.0,0.0,0.0,0.0,0.0,0.0,0.0,0.0,0.0,0.0,0.0,0.0,0.0,0.0,1.2849,1.2878,0.0,0.0,0.0,1.3875,1.3874,0.0,0.0,0.0,0.0,0.0,0.0,0.0,0.0,0.0,0.0,0.0,0.0,0.0,0.0,0.0,0.0,0.0,0.0,0.0,0.0,0.0,0.0,0.0,0.0,0.0,0.0,0.0,0.0,0.0,0.0,0.0,0.0,0.0,0.0,0.0,0.0,0.0,0.0,0.0,0.0,0.0,0.0,0.0,0.0,0.0,0.0,0.0,0.0,0.0,0.0,0.0,0.0,0.0,0.0,0.0,0.0,0.0,1.0833,1.1178,1.1377,1.1368,1.1368,1.1377,1.1309,1.0673,0.0,0.0,0.0,0.0,0.0,0.0,0.0,0.0,0.0,0.0,0.0,0.0,0.0,0.0,0.0,0.0,0.0,0.0,0.0,0.0,0.0,0.0,0.0,0.0,0.0,0.0,0.0,0.9429,0.0,0.0,0.0,0.0,0.0,0.0,0.0,0.0,0.0,0.0,0.0,0.0,0.0,0.0,1.2223,1.3729,1.3329,1.3306,0.0,0.0,1.3788,1.3876,1.4728,1.5028,0.0,0.0,0.0,0.0,0.0,0.0,0.0,0.0,0.0,0.0,0.0,0.0,0.0,0.0,0.0,0.0,0.0,0.0,0.0,0.0,0.0,0.0,0.0,0.0,0.0,0.0,0.0,0.0,0.0,0.0,0.0,0.0,0.0,0.0,0.0,0.0,0.0,0.0,0.0,0.0,0.0,0.0,0.0,0.0,0.0,0.0,0.0,0.0,0.0,0.0,0.0,0.0,0.0,0.0,0.0,1.1137,1.1335,1.1477,1.1477,1.1477,1.1477,1.1469,1.1182,1.1204,0.0,0.0,0.0,0.0,0.0,0.0,0.0,0.0,0.0,0.0,0.0,0.0,0.0,0.0,0.0,0.0,0.0,0.0,0.0,0.0,0.0,0.0,0.0,0.0,0.0,0.0,0.0,0.0,0.0,0.0,0.0,0.0,0.0,0.0,0.0,0.0,0.0,0.0,0.0,0.0,0.0,1.3338,1.3674,1.3553,1.3674,0.0,0.0,1.411,1.3634,1.4801,1.5274,1.3755,0.0,0.0,0.0,0.0,0.0,0.0,0.0,0.0,0.0,0.0,0.0,0.0,0.0,0.0,0.0,0.0,0.0,0.0,0.0,0.0,0.0,0.0,0.0,0.0,0.0,0.0,0.0,0.0,0.0,0.0,0.0,0.0,0.0,0.0,0.0,0.0,0.0,0.0,0.0,0.0,0.0,0.0,0.0,0.0,0.0,0.0,0.0,0.0,0.0,0.0,0.0,0.0,0.0,1.2297,1.1916,1.1738,1.1628,1.1628,1.1619,1.1628,1.1619,1.1305,1.1279,0.0,0.0,0.0,0.0,0.0,0.0,0.0,0.0,0.0,0.0,0.0,0.0,0.0,0.0,0.0,0.0,0.0,0.0,0.0,0.0,0.0,0.0,0.0,0.0,0.0,0.0,0.0,0.0,1.1602,1.2469,1.262,0.0,0.0,0.0,0.0,0.0,0.0,0.0,0.0,0.0,0.0,1.311,1.3622,1.3786,0.0,0.0,1.4535,1.4499,1.4033,1.4738,1.5006,1.4144,1.4435,0.0,0.0,0.0,0.0,0.0,0.0,0.0,0.0,0.0,0.0,0.0,0.0,0.0,0.0,0.0,0.0,0.0,0.0,0.0,0.0,0.0,0.0,0.0,0.0,0.0,0.0,0.0,0.0,0.0,0.0,0.0,0.0,0.0,0.0,0.0,0.0,0.0,0.0,0.0,0.0,0.0,0.0,0.0,0.0,0.0,0.0,0.0,0.0,0.0,0.0,0.0,0.0,1.2745,1.2511,1.2008,1.1778,1.1769,1.1769,1.1769,1.176,1.1518,1.1549,0.0,0.0,0.0,0.0,0.0,0.0,0.0,0.0,0.0,0.0,0.0,0.0,0.0,0.0,0.0,0.0,0.0,0.0,0.0,0.0,0.0,0.0,0.0,0.0,0.0,0.0,0.0,0.0,1.2571,1.3039,1.3258,0.0,0.0,0.0,0.0,0.0,0.0,0.0,0.0,0.0,0.0,1.3234,1.3701,1.3816,1.4003,1.4405,1.4576,1.4622,1.4547,1.4959,1.5018,1.441,0.0,0.0,0.0,0.0,0.0,0.0,0.0,0.0,0.0,0.0,0.0,0.0,0.0,0.0,0.0,0.0,0.0,0.0,0.0,0.0,0.0,0.0,0.0,0.0,0.0,0.0,0.0,0.0,0.0,0.0,1.4322,0.0,0.0,0.0,0.0,0.0,0.0,0.0,0.0,0.0,0.0,0.0,0.0,0.0,0.0,0.0,0.0,0.0,0.0,0.0,0.0,0.0,0.0,0.0,1.2812,1.2206,1.1868,1.1868,1.1877,1.1877,1.1877,1.2017,1.2067,1.2126,0.0,0.0,0.0,0.0,0.0,0.0,0.0,0.0,0.0,0.0,0.0,0.0,0.0,0.0,0.0,0.0,0.0,0.0,0.0,0.0,0.0,0.0,0.0,0.0,0.0,0.0,1.2303,1.2626,1.301,0.0,0.0,0.0,0.0,0.0,0.0,0.0,0.0,0.0,0.0,1.3374,1.3993,1.3901,1.3507,1.3619,1.4704,1.4425,1.4313,1.4936,1.5454,1.5457,0.0,0.0,0.0,0.0,0.0,0.0,0.0,0.0,0.0,0.0,0.0,0.0,0.0,0.0,0.0,0.0,0.0,0.0,0.0,0.0,0.0,0.0,0.0,0.0,0.0,0.0,0.0,1.5291,1.4371,0.0,0.0,0.0,0.0,0.0,0.0,0.0,0.0,0.0,0.0,0.0,1.537,1.5404,0.0,0.0,0.0,0.0,0.0,0.0,0.0,0.0,0.0,0.0,0.0,0.0,1.3362,1.3437,1.255,1.2026,1.2026,1.2026,1.2026,1.2026,1.2076,1.2264,1.2589,0.0,0.0,0.0,0.0,0.0,0.0,0.0,0.0,0.0,0.0,0.0,0.0,0.0,0.0,0.0,0.0,0.0,0.0,0.0,0.0,0.0,0.0,0.0,0.0,0.0,1.2743,0.0,0.0,0.0,0.0,0.0,0.0,0.0,0.0,0.0,0.0,0.0,1.3162,1.3364,1.3134,1.3103,1.3406,1.302,1.2925,0.0,0.0,0.0,0.0,0.0,0.0,0.0,0.0,0.0,0.0,0.0,0.0,0.0,0.0,1.5141,1.5487,1.5848,1.6207,1.6374,0.0,0.0,0.0,0.0,0.0,0.0,0.0,0.0,0.0,0.0,0.0,0.0,0.0,0.0,0.0,0.0,1.4213,0.0,0.0,0.0,0.0,0.0,0.0,0.0,0.0,1.5056,1.4812,1.4767,1.4607,1.4516,0.0,1.4516,1.471,0.0,0.0,0.0,0.0,0.0,0.0,0.0,0.0,1.3517,1.3279,1.258,1.2126,1.2076,1.2076,1.2076,1.2076,1.1927,1.2058,1.254,1.2521,1.3006,0.0,0.0,0.0,0.0,0.0,0.0,0.0,0.0,0.0,0.0,0.0,0.0,0.0,0.0,0.0,0.0,0.0,0.0,0.0,0.0,0.0,0.0,0.0,1.3362,0.0,0.0,0.0,0.0,0.0,0.0,0.0,0.0,0.0,1.3338,1.3433,1.3619,1.3841,1.3432,1.3195,1.3324,0.0,0.0,0.0,0.0,0.0,0.0,0.0,1.4636,1.4708,1.5037,1.5575,1.6336,1.6391,1.6218,1.589,0.0,0.0,1.5855,1.6165,1.6514,1.6792,1.6756,1.6642,1.6642,1.6359,1.5892,0.0,0.0,0.0,0.0,0.0,0.0,0.0,0.0,1.2234,1.2953,0.0,1.446,0.0,0.0,0.0,0.0,0.0,0.0,0.0,0.0,1.4212,1.3888,1.361,1.3563,1.3515,1.3515,1.3515,1.3525,1.3563,1.4193,0.0,0.0,0.0,0.0,0.0,0.0,1.3465,1.2487,1.2359,1.2234,1.2076,1.2076,1.2076,1.2026,1.1578,1.1519,1.2026,1.199,1.2404,1.3321,1.4075,0.0,0.0,0.0,0.0,0.0,0.0,0.0,0.0,0.0,0.0,0.0,0.0,0.0,0.0,0.0,0.0,0.0,0.0,0.0,0.0,1.3717,0.0,0.0,0.0,0.0,0.0,0.0,0.0,0.0,0.0,0.0,1.3465,1.3698,1.3912,1.3802,0.0,0.0,0.0,0.0,1.4372,1.4439,1.4462,1.4664,1.5264,1.5421,1.541,1.5421,0.0,0.0,1.5983,1.5599,1.5393,1.579,1.5936,1.6009,1.5968,1.6395,1.6783,1.6871,1.6637,1.6441,1.6415,1.6009,1.5376,0.8925,0.0,0.0,0.0,0.0,1.1105,1.1012,1.0673,1.0098,1.0721,1.2211,1.3104,0.0,0.0,0.0,0.0,0.0,0.0,1.3868,1.2846,1.3067,1.3044,1.2861,1.255,1.2206,1.1859,1.2206,1.2264,1.2008,1.253,1.3236,1.4097,0.0,0.0,0.0,0.0,1.3137,1.2847,1.2395,1.2126,1.2076,1.2076,1.1918,1.1528,1.1377,1.1377,1.1528,1.1418,1.1832,1.2803,1.3226,0.0,0.0,0.0,0.0,0.0,0.0,0.0,0.0,0.0,0.0,0.0,0.0,0.0,0.0,0.0,0.0,0.0,0.0,0.0,1.3682,1.3705,1.3845,0.0,0.0,0.0,0.0,0.0,0.0,0.0,0.0,0.0,1.4192,1.425,1.4163,0.0,0.0,1.3659,1.3098,1.3246,1.3488,1.3806,0.0,0.0,0.0,1.4326,1.4676,1.4403,1.4989,1.5457,1.5412,1.5348,1.5421,1.5624,1.5915,1.6016,1.5624,1.5978,1.644,1.6736,1.6762,1.6679,1.6667,1.629,1.5844,0.7496,0.8519,0.9401,0.9499,0.9072,0.9235,0.9242,0.9172,0.8482,0.8888,1.0262,1.1268,1.2104,1.2754,1.2657,0.0,0.0,0.0,1.2291,1.1257,1.1567,1.1616,1.1566,1.1292,1.0998,1.0702,1.0998,1.0998,1.0795,1.1099,1.1742,1.2609,0.0,0.0,1.3388,1.3175,1.2878,1.2455,1.2033,1.1828,1.1769,1.1551,1.125,1.0947,1.0753,1.0694,1.0947,1.06,1.0897,1.199,1.2199,1.2735,0.0,0.0,0.0,0.0,0.0,0.0,0.0,0.0,0.0,0.0,0.0,1.5107,0.0,0.0,0.0,0.0,1.4574,1.4157,1.4251,1.395,0.0,0.0,0.0,0.0,0.0,0.0,0.0,1.4309,1.4378,1.4395,1.425,1.4228,1.4149,1.3938,1.3831,1.367,1.3471,0.0,1.3454,1.3792,1.3397,1.3133,1.3317,1.3813,1.4183,1.4094,1.4609,1.5006,1.4869,1.4915,1.5028,1.5143,1.5314,1.5393,1.4994,1.5091,1.5417,1.6108,1.6102,1.6058,1.6058,1.5808,1.5599,0.6395,0.675,0.8033,0.8288,0.787,0.8402,0.8253,0.7688,0.7281,0.7527,0.8367,0.9192,0.9932,1.0551,1.0226,0.0,1.3299,1.1615,1.0533,0.9918,1.0007,1.0007,0.9999,0.9976,0.9969,0.9917,0.9969,0.9961,0.9969,1.002,1.0277,1.0753,1.208,1.2617,1.2388,1.2827,1.2589,1.163,1.155,1.1477,1.1326,1.0736,1.0423,1.0356,0.9858,0.9814,1.0261,0.9718,0.988,1.0913,1.1032,1.1566,1.2473,0.0,0.0,0.0,0.0,0.0,0.0,0.0,0.0,0.0,0.0,0.0,0.0,0.0,0.0,0.0,1.4132,0.0,1.5084,1.4212,0.0,0.0,0.0,1.4291,1.5085,1.4674,1.4512,1.4812,0.0,0.0,1.3873,0.0,1.3957,1.4325,1.4114,1.4015,1.4268,1.3965,1.392,1.4133,1.3732,1.3389,1.3585,1.3679,1.3878,1.4272,1.443,1.4419,1.4373,1.4373,1.4384,1.4337,1.4337,1.4326,1.4326,1.4021,1.3957,1.5039,1.5073,1.4903,1.4892,1.4903,1.4812,0.64,0.614,0.6454,0.7116,0.7919,0.7224,0.7106,0.7274,0.6768,0.7051,0.7805,0.7654,0.7903,0.8408,0.7805,0.8837,1.1108,1.0272,0.954,0.9108,0.9894,1.0234,1.0119,0.9933,0.9666,0.9263,0.9666,0.9718,0.9413,0.9814,1.0072,1.0218,1.0517,1.1082,1.1822,1.2021,1.1922,1.1693,1.1674,1.1628,1.1578,1.1006,1.049,1.0115,0.9562,0.9361,0.9465,0.9263,0.9413,1.0079,1.002,1.021,1.0762,1.0962,0.0,0.0,0.0,0.0,0.0,0.0,0.0,0.0,0.0,1.6545,1.6625,0.0,1.5917,0.0,1.4654,1.4057,1.4014,1.3763,0.0,0.0,1.3716,1.3858,1.428,1.4197,1.4197,1.4523,1.4176,1.4025,1.4233,1.3967,1.3935,1.4312,1.3818,1.3387,1.334,1.3648,1.392,1.4222,1.4186,1.3884,1.3304,1.3198,1.3494,1.428,1.4384,1.4337,1.415,1.4104,1.401,1.3858,1.381,1.381,1.381,1.3684,1.3711,1.3967,1.4269,1.4512,1.4512,1.4512,1.4512,0.6168,0.553,0.5444,0.5922,0.666,0.648,0.6595,0.6839,0.6494,0.6585,0.696,0.6607,0.6841,0.7417,0.6201,0.6793,0.8657,0.8783,0.8534,0.8132,0.8561,0.8695,0.8638,0.8781,0.8724,0.846,0.9007,0.9172,0.8909,0.9165,0.9432,0.9589,0.9456,0.9864,1.0705,1.109,1.1497,1.1935,1.1565,1.1108,1.06,1.0233,0.9821,0.9295,0.8995,0.8837,0.8844,0.8745,0.8903,0.9413,0.9302,0.9451,0.9902,0.997,1.0208,0.0,0.0,0.0,0.0,0.0,0.0,0.0,0.0,0.0,0.0,0.0,1.5478,0.0,1.4247,1.3552,1.3457,1.3238,1.2997,1.2716,1.291,1.3017,1.2967,1.2909,1.3054,1.3283,1.314,1.3092,1.3266,1.3074,1.2977,1.3016,1.2638,1.2677,1.3399,1.3589,1.3542,1.3884,1.3705,1.343,1.2842,1.288,1.316,1.3647,1.3789,1.3789,1.381,1.3821,1.3773,1.361,1.361,1.361,1.361,1.361,1.361,1.3668,1.381,1.3999,1.4046,1.4046,1.4035,0.5754,0.5058,0.4986,0.489,0.4919,0.5754,0.61,0.6238,0.633,0.6316,0.6232,0.6039,0.6371,0.6966,0.5385,0.5273,0.6431,0.7205,0.7471,0.73,0.6949,0.6745,0.6745,0.7265,0.7628,0.7773,0.8215,0.8522,0.8498,0.8469,0.8622,0.8943,0.8776,0.8957,0.9535,1.0204,1.0998,1.1799,1.1069,1.026,0.9267,0.9169,0.8897,0.8472,0.8334,0.8268,0.8262,0.8162,0.8328,0.8738,0.8679,0.883,0.9287,0.8944,0.9526,0.0,1.1193,0.0,0.0,0.0,0.0,0.0,0.0,0.0,0.0,1.4687,1.4617,1.451,1.3344,1.2735,1.2986,1.2608,1.2184,1.1742,1.1995,1.2054,1.1557,1.1557,1.1715,1.1904,1.1913,1.1882,1.1959,1.1868,1.1728,1.1669,1.1669,1.2255,1.3658,1.3372,1.2977,1.3218,1.2803,1.252,1.2618,1.2745,1.288,1.2919,1.2977,1.3074,1.3382,1.342,1.343,1.343,1.3498,1.3556,1.3525,1.3525,1.3583,1.3563,1.361,1.361,1.3658,1.3658,1.361,0.5422,0.5024,0.534,0.4678,0.3627,0.4108,0.4605,0.5176,0.6055,0.6375,0.6355,0.6316,0.6166,0.595,0.5441,0.5261,0.5369,0.556,0.6077,0.6925,0.697,0.703,0.7016,0.6792,0.7043,0.7752,0.7576,0.7887,0.8571,0.8371,0.8274,0.8392,0.8346,0.8705,0.9543,0.0,0.0,0.0,0.9785,0.967,0.9459,0.9022,0.8747,0.8637,0.7997,0.0,0.7676,0.7628,0.7681,0.7788,0.7783,0.0,0.0,0.0,0.0,0.0,0.0,0.0,0.0,0.0,0.0,0.0,1.3295,1.3657,1.4593,1.3878,1.3377,1.3351,1.2373,1.1715,1.1904,1.1814,1.1859,1.2122,1.1877,1.1557,1.118,1.1373,1.1616,1.1657,1.1384,1.1392,1.185,1.1751,1.1778,1.2094,1.2274,1.248,1.3008,1.2646,1.2391,1.2569,1.2372,1.2264,1.2842,1.2452,1.2314,1.2461,1.2569,1.2618,1.2706,1.2764,1.2715,1.2764,1.3174,1.3458,1.3152,1.3375,1.3549,1.344,1.342,1.3467,1.3563,1.3621,1.3573,0.4377,0.0,0.4499,0.4255,0.0,0.3699,0.3719,0.3693,0.4577,0.5149,0.5493,0.6128,0.5951,0.5251,0.5379,0.5382,0.5376,0.5443,0.5823,0.6378,0.6439,0.6404,0.6336,0.6374,0.6898,0.7664,0.7746,0.8218,0.9002,0.8885,0.8768,0.8518,0.8518,0.864,0.8874,0.8622,0.8813,0.9522,0.9383,0.9275,0.9088,0.8751,0.8415,0.813,0.0,0.0,0.0,0.0,0.0,0.0,0.0,0.0,0.0,0.0,0.0,0.8991,1.005,1.0809,1.113,1.1713,1.191,1.1743,1.1905,1.2333,1.3125,1.2836,1.2638,1.2636,1.1835,1.1301,1.1232,1.1047,1.0905,1.0972,1.0744,1.0551,1.0375,1.0493,1.0669,1.0787,1.0643,1.0759,1.1396,1.1311,1.1412,1.1806,1.1894,1.1927,1.2054,1.2203,1.2342,1.248,1.2461,1.2344,1.2403,1.2264,1.2026,1.2175,1.2175,1.2274,1.2471,1.2529,1.2529,1.2529,1.2802,1.291,1.2657,1.2988,1.3319,1.3035,1.3112,1.3314,1.3362,1.3409,1.3362,0.3192,0.3038,0.3438,0.3638,0.3789,0.3846,0.3204,0.2368,0.0,0.0,0.0,0.5453,0.5525,0.4856,0.5294,0.5584,0.5728,0.5875,0.5875,0.595,0.5803,0.5663,0.5522,0.6011,0.6595,0.7267,0.7792,0.8367,0.9064,0.9103,0.8917,0.8596,0.869,0.8585,0.8163,0.7791,0.8164,0.9231,0.8974,0.8612,0.8336,0.814,0.7819,0.7445,0.74,0.7472,0.7716,0.7784,0.7779,0.779,0.7985,0.806,0.7926,0.8619,0.8948,0.8908,0.9373,0.9674,0.9829,0.9928,1.005,1.0173,1.0797,1.1341,1.1797,1.1977,1.2103,1.217,1.1529,1.1016,1.0778,1.0347,0.9955,0.9621,0.9614,0.9614,0.9614,0.9614,0.9718,0.9888,0.9947,1.0098,1.0653,1.0725,1.0867,1.114,1.1234,1.1217,1.1368,1.1828,1.2234,1.2382,1.2363,1.2335,1.2116,1.1927,1.1977,1.1927,1.1868,1.1927,1.2184,1.2283,1.2274,1.2224,1.2283,1.2175,1.2039,1.2363,1.2744,1.2423,1.2822,1.318,1.3122,1.3132,1.318,0.2793,0.2834,0.2719,0.3076,0.3802,0.3791,0.2923,0.1599,0.2619,0.3411,0.3916,0.4063,0.4424,0.4856,0.5755,0.6046,0.5803,0.6097,0.6097,0.0,0.5663,0.5522,0.5519,0.5231,0.5577,0.6415,0.6219,0.6584,0.7354,0.761,0.7442,0.7249,0.8093,0.8353,0.8011,0.7327,0.6993,0.7159,0.7125,0.7078,0.6869,0.6709,0.6762,0.7135,0.6962,0.6889,0.6983,0.721,0.7387,0.7387,0.772,0.7844,0.7811,0.7962,0.799,0.8028,0.8612,0.9016,0.9077,0.9643,0.991,0.9732,0.9995,1.0849,1.237,1.1946,1.1655,1.1927,1.0977,1.026,1.0191,0.9925,0.9688,0.9621,0.9614,0.9614,0.9621,0.9636,0.9629,0.9673,0.9666,0.9807,1.0128,1.0171,1.0415,1.0808,1.0945,1.0964,1.1277,1.1377,1.1687,1.2004,1.1787,1.1828,1.2076,1.1819,1.1628,1.1868,1.1619,1.1477,1.1519,1.1578,1.1569,1.1469,1.1554,1.1512,1.1519,1.1507,1.1697,1.2021,1.2608,1.3017,1.2958,1.2968,1.2968,0.1981,0.1991,0.193,0.207,0.2482,0.2455,0.2049,0.1403,0.1841,0.2366,0.283,0.3029,0.3341,0.3767,0.5451,0.596,0.5396,0.6013,0.6204,0.6051,0.5826,0.5673,0.5526,0.5225,0.5478,0.6211,0.6074,0.6446,0.7254,0.7654,0.7565,0.7001,0.7237,0.7175,0.7007,0.6563,0.612,0.5668,0.5872,0.5968,0.5998,0.61,0.624,0.6489,0.6652,0.6848,0.6951,0.713,0.7191,0.7191,0.7489,0.7623,0.7695,0.769,0.7865,0.8167,0.8282,0.8381,0.8511,0.8861,0.9011,0.9046,0.9394,0.9952,1.0752,1.069,1.0721,1.0847,1.0237,0.9748,0.9642,0.9522,0.9507,0.9575,0.9636,0.9614,0.9636,0.9782,0.9804,0.968,0.9936,1.0195,1.0312,1.0271,1.0409,1.084,1.0846,1.1054,1.1562,1.1464,1.1377,1.1586,1.1427,1.1477,1.1778,1.1569,1.1418,1.1578,1.1427,1.1326,1.1276,1.1276,1.1326,1.1276,1.1319,1.1175,1.1082,1.0612,1.0797,1.1475,1.2166,1.2529,1.2783,1.2891,1.2939,0.1406,0.1398,0.1367,0.1351,0.1346,0.1352,0.1354,0.144,0.1363,0.1537,0.187,0.2154,0.2559,0.3088,0.4525,0.5203,0.5408,0.6076,0.6342,0.6234,0.6025,0.5801,0.5644,0.5381,0.5514,0.5895,0.5951,0.624,0.693,0.733,0.7159,0.6515,0.6168,0.6011,0.604,0.5747,0.5276,0.4674,0.4607,0.4797,0.5088,0.5175,0.5366,0.5743,0.6182,0.6502,0.6705,0.6836,0.6904,0.6908,0.7177,0.739,0.756,0.7671,0.7874,0.8259,0.8105,0.8038,0.8272,0.8294,0.8312,0.8495,0.8894,0.9151,0.9145,0.9454,0.9773,0.9926,0.9767,0.9525,0.9434,0.9335,0.9363,0.9451,0.9496,0.9442,0.9489,0.9672,0.9797,0.962,1.0057,1.0401,1.0429,1.0494,1.0501,1.0579,1.0784,1.1162,1.1655,1.1425,1.1175,1.126,1.1277,1.1377,1.1377,1.1377,1.1377,1.1377,1.1377,1.1377,1.1427,1.1477,1.1528,1.1578,1.1504,1.1251,1.0769,1.0442,1.0468,1.104,1.151,1.2076,1.2578,1.2832,1.2891,0.1455,0.1428,0.1398,0.1371,0.1353,0.1375,0.1386,0.1389,0.1415,0.1427,0.1507,0.1454,0.235,0.3519,0.2497,0.3535,0.6173,0.6603,0.6502,0.616,0.6021,0.5915,0.5647,0.5384,0.5248,0.5317,0.5227,0.5257,0.5413,0.5404,0.5095,0.4729,0.505,0.5277,0.5431,0.4947,0.4483,0.4092,0.3338,0.3266,0.387,0.3191,0.3515,0.4841,0.5107,0.5387,0.5595,0.599,0.6183,0.6252,0.6527,0.699,0.7428,0.7757,0.7967,0.8052,0.8264,0.8463,0.8474,0.8484,0.842,0.8511,0.8457,0.8517,0.8511,0.8582,0.9017,0.9603,0.9656,0.9591,0.979,0.9407,0.9092,0.9023,0.9138,0.9067,0.9029,0.9086,0.9157,0.9144,0.9646,0.9904,0.999,1.0236,1.0328,1.005,1.0453,1.0879,1.113,1.091,1.0769,1.114,1.1249,1.1394,1.1619,1.1528,1.1427,1.1669,1.1519,1.1427,1.1586,1.1778,1.1927,1.1972,1.1936,1.1477,1.1175,1.1184,1.115,1.0702,1.1006,1.146,1.2026,1.2529,1.2783,0.1446,0.1435,0.1422,0.141,0.1402,0.1412,0.1417,0.1418,0.143,0.1436,0.1433,0.141,0.1747,0.244,0.1695,0.2763,0.5055,0.621,0.6506,0.6207,0.6093,0.5871,0.5702,0.5408,0.5292,0.5281,0.5173,0.5118,0.5105,0.4969,0.4563,0.4077,0.4328,0.4372,0.4276,0.4008,0.3617,0.3226,0.282,0.2551,0.2551,0.2681,0.3011,0.368,0.4284,0.4622,0.4758,0.5147,0.5345,0.5348,0.5477,0.5943,0.6601,0.6535,0.6666,0.7129,0.7129,0.7125,0.7256,0.7256,0.7256,0.726,0.7304,0.7327,0.7279,0.73,0.7517,0.7837,0.8526,0.8948,0.8865,0.8914,0.8729,0.8351,0.8675,0.8915,0.8422,0.8997,0.9351,0.9206,0.9614,0.979,0.9734,0.9874,1.0071,1.0082,1.0321,1.0261,1.0103,1.0137,1.0295,1.0451,1.031,1.0522,1.1209,1.1418,1.1368,1.1418,1.1267,1.1226,1.1453,1.1637,1.1805,1.2186,1.1941,1.1444,1.0777,1.0514,1.0411,1.0293,1.0804,1.1309,1.1501,1.2017,1.2323,0.1442,0.1436,0.1436,0.1436,0.1436,0.1436,0.1436,0.1436,0.1436,0.1436,0.1436,0.1436,0.1436,0.1428,0.1384,0.2317,0.4151,0.6005,0.647,0.5936,0.6048,0.599,0.5729,0.5521,0.5507,0.5401,0.5295,0.5238,0.5143,0.48,0.4389,0.3859,0.3806,0.3713,0.3446,0.3395,0.3203,0.2818,0.2507,0.2158,0.1764,0.2155,0.2479,0.2748,0.3377,0.3864,0.4064,0.4333,0.4535,0.4605,0.4573,0.4948,0.5679,0.5474,0.5672,0.6342,0.6272,0.6141,0.6334,0.633,0.6396,0.6408,0.6526,0.6542,0.6386,0.6392,0.64,0.6556,0.7256,0.7708,0.7975,0.8049,0.7768,0.7125,0.7846,0.8089,0.768,0.832,0.8545,0.8465,0.8697,0.9313,0.9413,0.9482,0.9661,1.0181,0.9989,0.9446,0.898,0.9233,0.967,0.9924,0.9459,0.9584,1.049,1.0643,1.0744,1.0905,1.0753,1.0769,1.1167,1.1444,1.1619,1.2022,1.179,1.1479,1.0981,1.0395,0.9821,1.0138,1.0549,1.0897,1.0998,1.146,1.1769,0.1461,0.1437,0.1436,0.1436,0.1436,0.1436,0.1436,0.1436,0.1436,0.1436,0.1436,0.1436,0.1436,0.1435,0.1425,0.2382,0.4183,0.5928,0.5999,0.4868,0.5753,0.6088,0.5722,0.5703,0.564,0.5534,0.5423,0.528,0.502,0.4755,0.4295,0.3794,0.3722,0.3626,0.3583,0.345,0.3193,0.2872,0.2489,0.2046,0.1737,0.1431,0.1612,0.2159,0.2478,0.2926,0.3344,0.3487,0.3767,0.4191,0.4097,0.4303,0.4821,0.508,0.5474,0.5807,0.5939,0.6079,0.6075,0.6137,0.6264,0.6334,0.6234,0.635,0.621,0.5914,0.5852,0.6334,0.6013,0.6203,0.685,0.6885,0.6546,0.5994,0.6274,0.6603,0.6485,0.6724,0.6576,0.6737,0.721,0.7872,0.8832,0.9035,0.9253,0.9699,0.9755,0.9095,0.8199,0.834,0.8739,0.913,0.9013,0.8928,0.9235,0.9644,0.9806,1.0012,1.0174,1.0182,1.0956,1.1528,1.166,1.1801,1.171,1.1469,1.1108,1.0643,1.0131,1.0035,0.9984,1.0182,1.0131,1.0804,1.1158,0.1446,0.1436,0.1436,0.1436,0.1436,0.1436,0.1436,0.1436,0.1436,0.1436,0.1436,0.1436,0.1436,0.1436,0.1434,0.214,0.3279,0.3472,0.3826,0.4522,0.4643,0.4393,0.403,0.5078,0.5689,0.5667,0.5651,0.5376,0.505,0.4748,0.4362,0.3899,0.3838,0.3748,0.3636,0.3565,0.3377,0.2976,0.267,0.2448,0.214,0.1927,0.1981,0.2256,0.232,0.2452,0.2662,0.3203,0.3591,0.3737,0.3701,0.3932,0.4343,0.4465,0.442,0.4356,0.4425,0.4558,0.4755,0.4821,0.4888,0.503,0.5174,0.5174,0.5059,0.4965,0.4987,0.4979,0.4957,0.503,0.5359,0.5943,0.6199,0.587,0.6067,0.6133,0.5935,0.6067,0.6396,0.6461,0.6597,0.692,0.7242,0.7367,0.7817,0.8703,0.8428,0.7729,0.7066,0.6667,0.6817,0.7444,0.7437,0.7331,0.7824,0.8758,0.928,0.9392,0.9503,0.9524,0.9999,1.0379,1.0517,1.0364,1.061,1.072,1.0115,0.971,0.9354,0.9249,0.9256,0.9361,0.9099,0.9925,1.0376,0.145,0.1359,0.1359,0.1359,0.1448,0.1439,0.1436,0.1436,0.1436,0.144,0.1448,0.145,0.145,0.1452,0.1368,0.1731,0.2352,0.1704,0.2234,0.3497,0.2794,0.2259,0.2354,0.3924,0.4749,0.4797,0.4972,0.5058,0.5165,0.4944,0.4464,0.3991,0.3934,0.3842,0.3724,0.3658,0.3379,0.3119,0.2889,0.2728,0.2482,0.2332,0.2317,0.2386,0.2527,0.2518,0.259,0.3072,0.3379,0.3503,0.3473,0.3557,0.3809,0.3835,0.3729,0.3504,0.3596,0.3729,0.3966,0.4097,0.4164,0.4303,0.4363,0.4379,0.4314,0.4371,0.4368,0.4319,0.4303,0.4303,0.45,0.5156,0.555,0.5355,0.555,0.5547,0.5084,0.5415,0.5613,0.5679,0.5679,0.5811,0.6005,0.6071,0.6539,0.7503,0.7108,0.6694,0.6173,0.5755,0.5501,0.6259,0.6303,0.6374,0.6784,0.7566,0.8523,0.8758,0.8811,0.8824,0.9088,0.9361,0.9384,0.9124,0.9131,0.9235,0.9079,0.8672,0.8468,0.8368,0.858,0.8784,0.8838,0.9078,0.951,0.1481,0.1388,0.1389,0.1388,0.1385,0.1361,0.1438,0.144,0.1436,0.1451,0.1472,0.1476,0.1472,0.1483,0.1405,0.1504,0.1568,0.1454,0.1444,0.1627,0.0734,-0.0,-0.0,0.206,0.2893,0.2935,0.3427,0.4385,0.5536,0.5085,0.4683,0.4304,0.3995,0.392,0.3893,0.374,0.3455,0.324,0.3064,0.2878,0.2555,0.2498,0.2542,0.2564,0.2906,0.3086,0.3095,0.3097,0.3213,0.3437,0.3432,0.3332,0.3366,0.3464,0.3464,0.3605,0.3724,0.3927,0.3986,0.418,0.4255,0.4344,0.4325,0.4355,0.4357,0.4338,0.433,0.4325,0.4308,0.4303,0.4303,0.4434,0.45,0.4364,0.4567,0.45,0.4434,0.4367,0.4367,0.4434,0.4564,0.4628,0.5084,0.5276,0.5543,0.58,0.6052,0.6044,0.5643,0.5545,0.5813,0.59,0.5791,0.5705,0.6052,0.6464,0.7386,0.8075,0.8111,0.8129,0.8558,0.8851,0.8784,0.856,0.8567,0.8672,0.8679,0.8321,0.8203,0.8103,0.8209,0.824,0.834,0.8536,0.8715,0.1511,0.1512,0.1512,0.1417,0.1414,0.1387,0.1375,0.1373,0.1445,0.1453,0.1473,0.1459,0.1461,0.1479,0.1491,0.1491,0.1574,0.1491,0.131,0.0844,0.0283,-0.0,-0.0,-0.0,0.0924,0.0908,0.1079,0.2778,0.5027,0.508,0.4678,0.4344,0.4201,0.4053,0.3989,0.3879,0.3754,0.3673,0.3524,0.3404,0.339,0.3202,0.3185,0.3356,0.3575,0.3656,0.3795,0.3587,0.3465,0.3585,0.356,0.3603,0.3649,0.3687,0.3695,0.3749,0.3827,0.3978,0.4155,0.4219,0.4319,0.4518,0.4539,0.4542,0.4458,0.4461,0.4417,0.4335,0.4282,0.4303,0.4303,0.4303,0.4306,0.4303,0.4303,0.4303,0.4303,0.4303,0.4303,0.4303,0.4303,0.4431,0.4561,0.4628,0.4691,0.4755,0.4957,0.4954,0.48,0.4841,0.4877,0.5178,0.5112,0.5343,0.5735,0.628,0.7111,0.7823,0.7931,0.7891,0.8245,0.8352,0.8224,0.8115,0.8115,0.8121,0.8074,0.7955,0.7842,0.7676,0.7563,0.7601,0.7732,0.7894,0.8128,0.1543,0.1543,0.1543,0.1543,0.1442,0.15,0.1487,0.1399,0.1466,0.1476,0.1504,0.1495,0.1489,0.1502,0.1521,0.1517,0.1598,0.154,0.1365,0.0778,0.0193,-0.0,-0.0,-0.0,-0.0,-0.0,-0.0,-0.0,0.354,0.4441,0.4578,0.4324,0.4278,0.4144,0.4077,0.3965,0.3901,0.3957,0.3834,0.3859,0.396,0.3882,0.3875,0.3969,0.409,0.4171,0.4144,0.3982,0.3854,0.3839,0.3791,0.3836,0.3939,0.3958,0.3956,0.4029,0.4126,0.4148,0.4289,0.4375,0.4427,0.464,0.4726,0.4651,0.4565,0.4496,0.4529,0.4322,0.434,0.4346,0.4314,0.4346,0.436,0.4365,0.4325,0.4306,0.4303,0.4303,0.4303,0.4303,0.4303,0.4303,0.4303,0.4303,0.4303,0.4303,0.4303,0.4303,0.4289,0.4306,0.446,0.4625,0.4656,0.5028,0.5562,0.6182,0.6894,0.75,0.7885,0.7937,0.8149,0.7999,0.7868,0.7781,0.7751,0.7811,0.7763,0.7543,0.7413,0.7192,0.7117,0.7307,0.7511,0.7527,0.7677,0.1574,0.1574,0.1574,0.1574,0.1567,0.1609,0.1506,0.1521,0.1496,0.1514,0.1558,0.1554,0.1547,0.1544,0.1575,0.1568,0.1543,0.1583,0.1403,0.0998,0.0495,-0.0,-0.0,-0.0,-0.0,-0.0,-0.0,-0.0,-0.0,0.3227,0.458,0.4405,0.4322,0.427,0.4237,0.4087,0.41,0.4256,0.4148,0.4245,0.4401,0.4377,0.4373,0.4384,0.4455,0.4453,0.4445,0.4382,0.4324,0.429,0.4003,0.397,0.4087,0.4096,0.4215,0.4265,0.4421,0.4465,0.4504,0.461,0.4678,0.4708,0.4713,0.4673,0.4627,0.4611,0.4629,0.4469,0.4499,0.4442,0.4384,0.4423,0.4546,0.4466,0.4393,0.4333,0.4303,0.4308,0.4322,0.4311,0.4303,0.4308,0.4308,0.4303,0.4303,0.4303,0.4303,0.4303,0.43,0.4284,0.4295,0.4339,0.4432,0.4593,0.5085,0.6172,0.6836,0.7091,0.7639,0.7974,0.7993,0.7818,0.7739,0.7644,0.7527,0.7566,0.7561,0.7456,0.7335,0.7253,0.723,0.7257,0.7295,0.7433,0.747,0.1605,0.1605,0.1605,0.1605,0.16,0.1563,0.1551,0.1555,0.1527,0.1536,0.1562,0.1547,0.1549,0.156,0.1575,0.1562,0.155,0.1589,0.1603,0.149,0.13,0.0696,-0.0,-0.0,-0.0,-0.0,-0.0,-0.0,-0.0,0.2423,0.3965,0.4769,0.475,0.4791,0.477,0.466,0.4614,0.4667,0.451,0.4499,0.4566,0.4656,0.4623,0.4621,0.4774,0.4849,0.4849,0.4828,0.4617,0.4317,0.4266,0.4273,0.4429,0.4515,0.4535,0.4686,0.471,0.4739,0.4686,0.4765,0.4822,0.4912,0.4898,0.4923,0.4841,0.4836,0.4779,0.4795,0.4737,0.4662,0.4637,0.4654,0.4676,0.4591,0.4507,0.4404,0.4338,0.4374,0.4395,0.4325,0.4374,0.4374,0.4322,0.4311,0.4308,0.4306,0.4303,0.4303,0.4303,0.4303,0.4303,0.4303,0.4348,0.4406,0.4854,0.5971,0.6624,0.6729,0.7295,0.797,0.7939,0.7752,0.78,0.7783,0.7766,0.7744,0.7813,0.7766,0.7589,0.7365,0.7325,0.7378,0.7526,0.758,0.7496,0.1617,0.1617,0.1617,0.1617,0.1613,0.1584,0.1579,0.1583,0.156,0.1554,0.1567,0.1568,0.156,0.1555,0.1578,0.1574,0.1555,0.1595,0.1606,0.1597,0.1609,0.1003,-0.0,-0.0,-0.0,-0.0,-0.0,-0.0,0.2191,0.2824,0.3716,0.4838,0.5046,0.501,0.4996,0.4913,0.5036,0.5077,0.4986,0.4947,0.5098,0.5072,0.5101,0.509,0.5165,0.5243,0.5162,0.5087,0.4881,0.4561,0.4463,0.4586,0.4758,0.4727,0.4828,0.4914,0.4879,0.4896,0.4855,0.4879,0.4942,0.4999,0.5018,0.5018,0.5002,0.4944,0.4904,0.4977,0.4839,0.4784,0.4745,0.4767,0.4798,0.4722,0.4664,0.455,0.4393,0.4428,0.4447,0.4425,0.4431,0.4428,0.4322,0.4344,0.4341,0.4317,0.4303,0.4303,0.4303,0.4303,0.4303,0.4303,0.4367,0.4422,0.4677,0.5602,0.626,0.6449,0.6633,0.7431,0.7361,0.723,0.7203,0.7275,0.7628,0.783,0.7667,0.767,0.7784,0.7676,0.7607,0.7539,0.765,0.7763,0.7631,0.1617,0.1617,0.1617,0.1617,0.1613,0.1589,0.1592,0.1607,0.1588,0.1577,0.1581,0.1601,0.1577,0.1535,0.1582,0.1592,0.1566,0.1599,0.1613,0.1611,0.1511,0.1105,-0.0,-0.0,-0.0,-0.0,-0.0,0.2249,0.4066,0.384,0.4038,0.5062,0.526,0.5121,0.5203,0.5114,0.5231,0.5459,0.5466,0.5502,0.5702,0.5674,0.5596,0.5556,0.5556,0.5479,0.5401,0.5318,0.5118,0.4707,0.4777,0.4841,0.4919,0.4906,0.4868,0.4879,0.4944,0.4958,0.4893,0.4955,0.5007,0.5018,0.5021,0.5021,0.5018,0.5002,0.4963,0.5039,0.493,0.4886,0.4833,0.4949,0.4919,0.4852,0.4844,0.4738,0.4575,0.4507,0.452,0.4548,0.452,0.4461,0.4404,0.4406,0.4455,0.4444,0.4412,0.4398,0.4382,0.4363,0.4336,0.4303,0.4434,0.4561,0.4818,0.5279,0.5738,0.5997,0.6059,0.642,0.6222,0.6164,0.615,0.6373,0.6957,0.7125,0.6979,0.7157,0.7536,0.755,0.7235,0.7456,0.7798,0.788,0.7846,0.1617,0.1617,0.1617,0.1617,0.1615,0.1609,0.161,0.1615,0.161,0.1603,0.1603,0.159,0.1574,0.156,0.1573,0.1564,0.1551,0.1591,0.1616,0.1614,0.159,0.1498,0.1107,0.0803,0.0503,0.0403,0.0503,0.2702,0.5077,0.5189,0.4854,0.5847,0.5844,0.5678,0.5657,0.5746,0.5866,0.6016,0.5966,0.5996,0.6046,0.6089,0.5969,0.5802,0.5786,0.5712,0.5559,0.5559,0.5467,0.5369,0.5052,0.4825,0.5002,0.4988,0.4966,0.4969,0.4988,0.5004,0.4988,0.4996,0.5018,0.5023,0.4865,0.5023,0.5037,0.4945,0.4932,0.4985,0.4982,0.4794,0.4923,0.4953,0.4966,0.4961,0.4961,0.4912,0.4792,0.4599,0.4556,0.4656,0.4689,0.4708,0.4591,0.458,0.4591,0.4646,0.4621,0.4523,0.4485,0.4439,0.4412,0.4382,0.4441,0.4521,0.471,0.4965,0.5269,0.5512,0.5561,0.554,0.5353,0.5394,0.5524,0.5932,0.6456,0.6463,0.6232,0.6531,0.684,0.6836,0.6892,0.7005,0.7221,0.7588,0.7716,0.101,0.0909,0.1414,0.1212,0.0707,0.1313,0.1617,0.1617,0.1617,0.1609,0.1595,0.1577,0.1564,0.1552,0.1564,0.1562,0.1561,0.1593,0.1608,0.1599,0.1591,0.1603,0.1612,0.1515,0.1414,0.2018,0.2219,0.4123,0.5879,0.6222,0.6042,0.648,0.6426,0.6325,0.6276,0.6382,0.6406,0.6416,0.6393,0.6427,0.637,0.6309,0.6004,0.5578,0.5473,0.524,0.4621,0.454,0.4462,0.4384,0.4307,0.4465,0.5012,0.5015,0.5018,0.5018,0.5018,0.5018,0.5018,0.5018,0.5018,0.4865,0.4309,0.4472,0.4477,0.4392,0.4309,0.4553,0.4389,0.407,0.4859,0.5015,0.5018,0.5018,0.5018,0.4985,0.4928,0.4795,0.4712,0.4711,0.4746,0.4735,0.4708,0.4719,0.4689,0.4654,0.4701,0.4676,0.4665,0.4556,0.4613,0.4588,0.4568,0.4555,0.461,0.472,0.4807,0.4907,0.487,0.4846,0.4674,0.4803,0.5067,0.5408,0.5665,0.5727,0.5603,0.592,0.6187,0.644,0.6574,0.645,0.6574,0.688,0.6898,-0.0101,-0.0404,0.0706,0.0404,-0.0404,0.0909,0.1617,0.1617,0.1617,0.1605,0.1579,0.1572,0.1551,0.1543,0.1553,0.1564,0.1575,0.1582,0.1583,0.1579,0.1593,0.1605,0.1614,0.1717,0.2523,0.4539,0.3831,0.5001,0.6645,0.7186,0.6677,0.6936,0.6884,0.6807,0.6703,0.6728,0.6744,0.6707,0.6689,0.6734,0.6686,0.6545,0.6093,0.5308,0.4813,0.4479,0.3843,0.3679,0.3522,0.321,0.321,0.3912,0.4696,0.4935,0.4704,0.4623,0.4704,0.5021,0.5023,0.4943,0.4862,0.4467,0.3047,0.3287,0.4081,0.3841,0.3759,0.3921,0.3921,0.3365,0.4704,0.5018,0.5018,0.5018,0.5018,0.5018,0.5002,0.5002,0.4911,0.4776,0.4828,0.4844,0.4822,0.4817,0.4773,0.4738,0.4716,0.4767,0.4759,0.4673,0.4656,0.4684,0.4651,0.4637,0.4626,0.4615,0.4708,0.4645,0.4532,0.4425,0.4325,0.4498,0.4691,0.4492,0.4686,0.4815,0.4942,0.5008,0.5404,0.5935,0.6121,0.5948,0.6029,0.626,0.6137,-0.1412,-0.2522,-0.1008,-0.0605,-0.0505,0.0909,0.1617,0.1617,0.1617,0.1614,0.1601,0.1557,0.1547,0.1551,0.1538,0.1548,0.1561,0.1563,0.1559,0.1567,0.1583,0.1596,0.1614,0.1617,0.2825,0.4028,0.4026,0.492,0.6714,0.6711,0.6866,0.7039,0.7152,0.7031,0.6892,0.6885,0.6859,0.6903,0.6923,0.701,0.6885,0.6716,0.6093,0.5095,0.435,0.3832,0.3694,0.368,0.3677,0.3677,0.3917,0.4075,0.4077,0.3997,0.3602,0.3444,0.3995,0.4392,0.4953,0.4953,0.353,0.1646,0.1096,0.2273,0.3773,0.3606,0.3368,0.3932,0.3692,0.3292,0.4781,0.5029,0.5021,0.5021,0.5018,0.5018,0.5012,0.4988,0.4961,0.4915,0.495,0.4966,0.4931,0.4912,0.4896,0.4879,0.4874,0.4838,0.4809,0.479,0.4765,0.4708,0.4715,0.4712,0.4706,0.4701,0.4673,0.4602,0.4546,0.4494,0.4384,0.4322,0.4303,0.436,0.4336,0.4495,0.4492,0.4353,0.4556,0.509,0.5219,0.5345,0.5415,0.5484,0.5697,-0.121,-0.1917,-0.2017,-0.1514,-0.0606,0.0909,0.1617,0.1617,0.1616,0.1607,0.1584,0.1547,0.1524,0.1526,0.153,0.1536,0.1542,0.1553,0.1549,0.1555,0.1579,0.16,0.1616,0.1617,0.2923,0.4124,0.4227,0.5131,0.7444,0.7335,0.7135,0.7322,0.7365,0.724,0.7064,0.7057,0.7083,0.7032,0.7143,0.725,0.7018,0.6783,0.5791,0.4488,0.379,0.3263,0.2567,0.2474,0.2458,0.2515,0.2588,0.2588,0.2511,0.2512,0.251,0.2507,0.2582,0.3368,0.4562,0.4956,0.4247,0.3064,0.2508,0.3217,0.4088,0.3686,0.313,0.3459,0.4461,0.4205,0.4951,0.5069,0.5072,0.5029,0.5023,0.5029,0.5023,0.5023,0.5029,0.5034,0.5012,0.5004,0.5004,0.4996,0.501,0.5018,0.5018,0.4977,0.4923,0.4898,0.4868,0.4849,0.4795,0.4792,0.4779,0.4751,0.4716,0.464,0.458,0.4526,0.4493,0.4452,0.4469,0.4515,0.4452,0.4355,0.4303,0.4364,0.43,0.4303,0.4564,0.4758,0.4694,0.47,0.5046,-0.0706,-0.0504,-0.2018,-0.2019,-0.0707,0.0909,0.1617,0.1617,0.1617,0.16,0.157,0.154,0.1513,0.15,0.1507,0.1614,0.1527,0.1551,0.1549,0.1555,0.159,0.1616,0.1919,0.2121,0.3025,0.4728,0.473,0.5734,0.7437,0.7637,0.764,0.7537,0.754,0.7429,0.7216,0.7127,0.7148,0.7215,0.7333,0.7428,0.7052,0.6427,0.5331,0.3635,0.3214,0.2511,0.1806,0.1544,0.1538,0.1519,0.1426,0.126,0.0948,0.1108,0.1501,0.1656,0.0707,0.1724,0.3061,0.4959,0.4883,0.4408,0.48,0.4959,0.4719,0.4003,0.3214,0.3315,0.4157,0.5076,0.5097,0.5156,0.5154,0.5099,0.5004,0.5015,0.5116,0.5118,0.5108,0.5094,0.5059,0.5034,0.5026,0.5018,0.5018,0.5018,0.5018,0.5018,0.4974,0.4982,0.4969,0.4982,0.4972,0.4972,0.4944,0.489,0.4838,0.4762,0.4708,0.4656,0.4637,0.4687,0.4704,0.4618,0.4539,0.4444,0.4376,0.4314,0.4303,0.4303,0.4303,0.4367,0.4434,0.4448,0.4599,-0.0605,0.1109,-0.0404,-0.0909,-0.0505,0.0909,0.1617,0.1617,0.1615,0.16,0.1566,0.154,0.1521,0.1418,0.1493,0.1504,0.1522,0.144,0.1356,0.1368,0.1598,0.2121,0.2827,0.3029,0.383,0.5131,0.5238,0.6142,0.7244,0.7441,0.7338,0.7238,0.7232,0.7159,0.7003,0.7102,0.7201,0.721,0.7372,0.7231,0.6669,0.5838,0.4993,0.3994,0.3023,0.2228,0.1846,0.1491,0.1315,0.1326,0.1284,0.1275,0.121,0.1217,0.0891,0.0483,0.0159,0.0235,0.1338,0.3461,0.5042,0.5042,0.504,0.504,0.4894,0.4818,0.4518,0.4919,0.5205,0.5208,0.5203,0.5281,0.5347,0.5246,0.5146,0.5191,0.5295,0.5259,0.517,0.5137,0.5099,0.5059,0.5031,0.5023,0.5018,0.5018,0.5018,0.5018,0.5018,0.5018,0.5018,0.5018,0.5018,0.5018,0.5015,0.4974,0.4939,0.479,0.4833,0.4787,0.477,0.4749,0.4773,0.4673,0.4607,0.4564,0.4512,0.4442,0.4349,0.433,0.4365,0.4341,0.4303,0.4327,0.4387,-0.0706,0.0202,0.0404,0.0606,0.0606,0.1313,0.1617,0.1613,0.1598,0.1575,0.1544,0.1514,0.1313,0.1122,0.0835,0.103,0.1429,0.1156,0.0876,0.1179,0.1698,0.2522,0.2927,0.343,0.4433,0.5236,0.5338,0.5639,0.6542,0.715,0.7153,0.7051,0.7045,0.6982,0.6778,0.6789,0.6908,0.6895,0.6648,0.6059,0.529,0.4736,0.4098,0.3184,0.2477,0.2096,0.1718,0.1534,0.1348,0.135,0.1316,0.1314,0.1159,0.083,0.0332,0.0332,0.2221,0.2196,0.0964,0.3333,0.4508,0.5045,0.505,0.5056,0.5097,0.5124,0.5167,0.5279,0.536,0.536,0.5325,0.5404,0.5377,0.536,0.5277,0.529,0.5377,0.5363,0.5289,0.5175,0.5137,0.5091,0.5048,0.5026,0.5018,0.5018,0.5018,0.5018,0.5018,0.5018,0.5018,0.5018,0.5018,0.5018,0.5018,0.5002,0.4996,0.495,0.4953,0.4915,0.4901,0.4871,0.4825,0.4878,0.4856,0.4803,0.4664,0.455,0.4439,0.4433,0.4444,0.4433,0.4431,0.4499,0.4569,-0.0907,-0.0605,0.0908,0.1617,0.1617,0.1617,0.1415,0.121,0.1296,0.1367,0.1428,0.1396,0.1285,0.0828,0.0369,0.0466,0.1137,0.0776,0.0392,0.079,0.2187,0.3513,0.4012,0.4514,0.4984,0.5732,0.5598,0.5715,0.6044,0.6356,0.6458,0.6659,0.605,0.631,0.6533,0.6557,0.6672,0.678,0.5781,0.4854,0.4137,0.4026,0.3401,0.2686,0.2239,0.2048,0.1669,0.1478,0.1377,0.1378,0.1351,0.1176,0.0848,0.0425,-0.0,-0.0,0.3049,0.4221,0.2902,0.3511,0.4579,0.4965,0.5121,0.517,0.5216,0.5235,0.5281,0.5407,0.5472,0.5474,0.5466,0.5523,0.5513,0.548,0.5373,0.5455,0.5447,0.5404,0.5416,0.535,0.5214,0.5116,0.5072,0.5037,0.5021,0.5018,0.5018,0.5018,0.5018,0.5018,0.5018,0.5018,0.4937,0.494,0.5018,0.5018,0.5018,0.4859,0.4859,0.4929,0.4894,0.4894,0.4955,0.5021,0.4999,0.4971,0.483,0.4675,0.4464,0.4539,0.455,0.4643,0.4668,0.4734,0.4711,-0.121,-0.0605,0.0908,0.1515,0.1516,0.1617,0.101,0.0303,0.0704,0.0885,0.0948,0.1194,0.1263,0.1087,-0.0,-0.0,-0.0,-0.0,-0.0,-0.0,0.3446,0.4963,0.5353,0.5596,0.5853,0.6182,0.5965,0.578,0.5536,0.5148,0.5452,0.5754,0.4941,0.5347,0.5712,0.5841,0.6005,0.5876,0.4793,0.3983,0.3624,0.3585,0.3314,0.2777,0.2422,0.2241,0.2237,0.1675,0.1404,0.1415,0.121,0.0856,0.0347,-0.0,-0.0,-0.0,-0.0,0.4253,0.4473,0.396,0.4012,0.4929,0.5416,0.5311,0.5352,0.5358,0.542,0.5518,0.5486,0.5567,0.5578,0.5621,0.5621,0.56,0.5578,0.5608,0.5608,0.5605,0.5523,0.5404,0.5301,0.5049,0.4513,0.4252,0.481,0.4878,0.5018,0.5018,0.5018,0.5018,0.5018,0.494,0.4781,0.4859,0.5018,0.494,0.4784,0.4467,0.4231,0.4545,0.4768,0.4859,0.5018,0.5007,0.4974,0.4988,0.4977,0.4825,0.4705,0.4731,0.4726,0.4686,0.4727,0.4781,0.4809,-0.1667,-0.0694,0.0595,0.0899,0.0606,0.0606,0.0404,0.0101,0.0197,0.0288,-0.0,-0.0,-0.0,-0.0,-0.0,-0.0,-0.0,-0.0,-0.0,-0.0,0.2627,0.456,0.5415,0.6107,0.6083,0.6304,0.6105,0.5945,0.5744,0.4545,0.4446,0.4444,0.3835,0.3934,0.432,0.4399,0.451,0.4428,0.3803,0.3089,0.2387,0.2342,0.224,0.1972,0.1883,0.1705,0.1702,0.1514,0.1428,0.1248,0.0882,0.0706,0.0442,-0.0,-0.0,-0.0,-0.0,0.3546,0.5478,0.5001,0.4969,0.5037,0.5371,0.5404,0.5472,0.548,0.5545,0.5616,0.5566,0.5646,0.5673,0.57,0.5706,0.5689,0.5695,0.5725,0.5725,0.57,0.5638,0.5483,0.5149,0.4743,0.4047,0.3366,0.4101,0.4737,0.4875,0.494,0.4781,0.4784,0.4784,0.4562,0.4328,0.4097,0.418,0.4406,0.4557,0.4249,0.3857,0.3934,0.4335,0.4859,0.5018,0.5018,0.5018,0.501,0.4985,0.501,0.4955,0.483,0.4806,0.4806,0.4852,0.4896,0.4906,-0.2638,-0.168,0.0099,0.0496,-0.0,-0.0,-0.0,-0.0,-0.0,-0.0,-0.0,-0.0,-0.0,-0.0,-0.0,-0.0,-0.0,-0.0,-0.0,0.1946,0.3102,0.4244,0.5302,0.5973,0.6181,0.6182,0.61,0.5948,0.5962,0.4342,0.4347,0.4147,0.2828,0.2017,0.2219,0.2215,0.2291,0.224,0.2208,0.1971,0.101,0.1357,0.1524,0.1435,0.1346,0.1346,0.1436,0.1432,0.1164,0.1346,0.1522,0.1795,0.1616,-0.0,0.0898,0.0897,0.1256,0.2512,0.4723,0.572,0.5667,0.5513,0.5502,0.5542,0.5578,0.5602,0.5651,0.57,0.5727,0.5733,0.5733,0.5733,0.5733,0.5711,0.5716,0.5738,0.5727,0.5708,0.5643,0.5553,0.5235,0.493,0.411,0.3413,0.3609,0.443,0.4883,0.4599,0.3756,0.3917,0.4316,0.4019,0.372,0.3489,0.3257,0.3857,0.4465,0.4622,0.4203,0.3508,0.3734,0.4423,0.4945,0.5018,0.5018,0.5018,0.5002,0.4972,0.4982,0.4999,0.4958,0.4904,0.4928,0.4963,0.498,-0.421,-0.4024,-0.0802,0.0298,-0.0,-0.0,-0.0,-0.0,-0.0,-0.0,-0.0,-0.0,-0.0,-0.0,-0.0,-0.0,-0.0,-0.0,0.1465,0.3619,0.3895,0.4732,0.5601,0.6139,0.5904,0.6171,0.6067,0.6062,0.6284,0.4857,0.476,0.354,0.1212,-0.0202,0.0101,0.0202,0.0198,-0.0,-0.0,-0.0,0.0366,0.0903,0.1166,0.1346,0.1166,0.1166,0.1077,0.1077,0.1077,0.1707,0.3599,0.4412,0.4591,0.3413,0.2869,0.2868,0.2868,0.3855,0.5468,0.5641,0.57,0.5673,0.564,0.5673,0.5708,0.5719,0.5708,0.5733,0.5733,0.5733,0.5733,0.5735,0.5735,0.5738,0.5744,0.5018,0.4919,0.5008,0.4868,0.5465,0.5605,0.5378,0.4437,0.3707,0.3503,0.3955,0.4737,0.4433,0.3572,0.3555,0.4209,0.2884,0.2419,0.217,0.2105,0.3562,0.4353,0.4596,0.4632,0.4065,0.3846,0.4446,0.4818,0.4956,0.4623,0.4304,0.4623,0.5018,0.5037,0.5048,0.5023,0.4993,0.5015,0.5018,0.5018,-0.4836,-0.4947,-0.4118,-0.2293,-0.0,-0.0,-0.0,-0.0,-0.0,-0.0,-0.0,-0.0,-0.0,-0.0,-0.0,-0.0,-0.0,-0.0,0.1615,0.2153,0.3789,0.5519,0.6203,0.6013,0.5425,0.4714,0.5023,0.5773,0.639,0.4147,0.2324,0.0909,-0.0,-0.0202,0.0202,0.0505,0.09,-0.0,-0.0,-0.0,-0.0,-0.0,0.0808,0.1348,0.1168,0.0899,-0.0,-0.0,0.1347,0.2967,0.5412,0.5589,0.5679,0.4672,0.4672,0.467,0.4759,0.4938,0.5568,0.5741,0.5741,0.5738,0.5733,0.5733,0.5733,0.5733,0.5733,0.5733,0.5733,0.5733,0.5733,0.5741,0.5744,0.5746,0.5295,0.3673,0.3132,0.3582,0.3837,0.5097,0.5706,0.4078,0.298,0.2773,0.2743,0.2953,0.359,0.4816,0.4512,0.4387,0.4549,0.2054,0.0827,0.0575,-0.0,-0.0,-0.0,0.3275,0.4163,0.4854,0.4789,0.4753,0.4885,0.5127,0.427,0.3597,0.4384,0.5029,0.5072,0.5083,0.5067,0.5059,0.5069,0.505,0.5018,-0.5203,-0.5608,-0.6024,-0.3762,-0.0,-0.0,-0.0,-0.0,-0.0,-0.0,-0.0,-0.0,-0.0,-0.0,-0.0,-0.0,-0.0,-0.0,-0.0,-0.0,0.2614,0.4064,0.4932,0.5797,0.5681,0.4339,0.3472,0.3804,0.3739,0.1313,-0.0,-0.0,-0.0,-0.0,-0.0,0.0505,-0.0,-0.0,-0.0,-0.0,-0.0,-0.0,-0.0,0.0726,0.0725,0.0634,-0.0,-0.0,0.1708,0.4414,0.5681,0.5676,0.567,0.5665,0.5662,0.5752,0.566,0.5657,0.5654,0.5744,0.5738,0.5735,0.5733,0.5733,0.5733,0.5733,0.5733,0.5733,0.5735,0.5741,0.5744,0.5662,0.567,0.5673,0.4949,0.3325,-0.0,-0.0,0.3232,0.4499,0.5407,0.3593,0.2332,0.1697,0.1679,0.1997,0.2476,0.3906,0.5323,0.5186,0.4986,0.3022,0.0763,0.0338,-0.0,-0.0,-0.0,-0.0,0.3276,0.4768,0.5261,0.5152,0.5186,0.5214,0.4671,0.4379,0.4719,0.5037,0.5094,0.5124,0.5121,0.5121,0.5127,0.5113,0.5086,-0.5315,-0.5986,-0.6286,-0.4078,-0.0,-0.0,-0.0,-0.0,-0.0,-0.0,-0.0,-0.0,-0.0,-0.0,-0.0,-0.0,-0.0,-0.0,-0.0,-0.0,-0.0,-0.0,0.3223,0.4606,0.4451,0.4007,-0.0,-0.0,-0.0,-0.0,-0.0,-0.0,-0.0,-0.0,-0.0,-0.0,-0.0,0.0594,-0.0,-0.0,-0.0,-0.0,-0.0,-0.0,-0.0,-0.0,-0.0,-0.0,-0.0,0.3868,0.5494,0.5578,0.5749,0.5738,0.5735,0.5735,0.5735,0.5735,0.5738,0.5738,0.5735,0.5733,0.5733,0.5733,0.5733,0.5733,0.5733,0.5735,0.5738,0.5752,0.5673,0.5684,0.5692,0.5425,0.4975,-0.0,-0.0,-0.0,-0.0,0.3782,0.5138,0.477,0.4493,0.3765,0.2416,0.2486,0.3146,0.3819,0.5087,0.5628,0.5357,0.5057,0.276,0.0694,-0.0,-0.0,-0.0,-0.0,0.3356,0.446,0.4969,0.5455,0.5379,0.5309,0.5091,0.5041,0.5162,0.5135,0.5129,0.5159,0.5227,0.5222,0.5241,0.5235,0.5216,-0.5702,-0.5958,-0.589,-0.5351,-0.4189,-0.1287,-0.0,-0.0,-0.0,-0.0,-0.0,-0.0,-0.0,-0.0,-0.0,-0.0,-0.0,-0.0,-0.0,-0.0,-0.0,-0.0,-0.0,-0.0,-0.0,-0.0,-0.0,-0.0,-0.0,-0.0,-0.0,-0.0,-0.0,-0.0,-0.0,-0.0,-0.0,0.0499,0.0687,0.0487,-0.0,-0.0,-0.0,-0.0,-0.0,-0.0,-0.0,-0.0,-0.0,-0.0,-0.0,0.5586,0.5668,0.5665,0.5662,0.5744,0.5738,0.5735,0.5733,0.5733,0.5735,0.5735,0.5733,0.5733,0.5733,0.5733,0.5733,0.5735,0.5657,0.567,0.552,0.5448,0.5101,0.4565,-0.0,-0.0,-0.0,-0.0,-0.0,0.2804,0.425,0.5599,0.5499,0.5305,0.4127,0.3857,0.3842,0.4343,0.4485,0.487,0.5556,0.5336,0.4563,0.2466,-0.0,-0.0,-0.0,0.4312,0.4387,0.4555,0.5167,0.5561,0.5477,0.5412,0.5285,0.5339,0.5394,0.5361,0.5235,0.533,0.5398,0.5371,0.5349,0.5347,0.5341,-0.5779,-0.5745,-0.4876,-0.4344,-0.3466,-0.0,-0.0,-0.0,-0.0,-0.0,-0.0,-0.0,-0.0,-0.0,-0.0,-0.0,-0.0,-0.0,-0.0,-0.0,-0.0,-0.0,-0.0,-0.0,-0.0,-0.0,-0.0,-0.0,-0.0,-0.0,-0.0,-0.0,-0.0,-0.0,-0.0,-0.0,-0.0,-0.0,0.0398,-0.0,-0.0,-0.0,-0.0,-0.0,-0.0,-0.0,-0.0,-0.0,-0.0,-0.0,-0.0,0.4497,0.458,0.4578,0.5216,0.53,0.5749,0.5746,0.5746,0.5741,0.5741,0.5738,0.5735,0.5733,0.5733,0.5733,0.5733,0.5735,0.5576,0.5507,0.5275,0.5034,0.4231,0.3511,-0.0,-0.0,-0.0,-0.0,-0.0,-0.0,0.3359,0.5075,0.5695,0.5681,0.5489,0.4855,0.4314,0.4123,0.3744,0.3277,0.4515,0.5255,0.5001,-0.0,-0.0,-0.0,-0.0,0.3643,0.4889,0.5154,0.5614,0.567,0.5586,0.5532,0.5485,0.545,0.549,0.5463,0.5363,0.5458,0.5521,0.5504,0.5477,0.5464,0.5455,-0.5741,-0.5481,-0.3496,-0.1795,-0.0,-0.0,-0.0,-0.0,-0.0,-0.0,-0.0,-0.0,-0.0,-0.0,-0.0,-0.0,-0.0,-0.0,-0.0,-0.0,-0.0,-0.0,-0.0,-0.0,-0.0,-0.0,-0.0,-0.0,-0.0,-0.0,-0.0,-0.0,-0.0,-0.0,-0.0,-0.0,-0.0,-0.0,-0.0,-0.0,-0.0,-0.0,-0.0,-0.0,-0.0,-0.0,-0.0,-0.0,-0.0,-0.0,0.1346,0.2602,0.269,0.2688,0.3678,0.4399,0.4759,0.5029,0.5027,0.5025,0.5387,0.5565,0.5741,0.5738,0.5738,0.5735,0.5733,0.5741,0.5668,0.5345,0.511,0.3873,0.2787,-0.0,-0.0,-0.0,-0.0,-0.0,-0.0,-0.0,0.2112,0.3751,0.4906,0.4894,0.5676,0.5315,0.398,0.3437,0.3426,0.2426,0.3063,-0.0,-0.0,-0.0,-0.0,-0.0,-0.0,0.2417,0.4297,0.5466,0.5641,0.5714,0.5606,0.5646,0.5597,0.5534,0.5488,0.5488,0.5504,0.554,0.5594,0.5616,0.5515,0.548,0.5567,-0.5738,-0.5384,-0.206,-0.0359,-0.0,-0.0,-0.0,-0.0,-0.0,-0.0,-0.0,-0.0,-0.0,-0.0,-0.0,-0.0,-0.0,-0.0,-0.0,-0.0,-0.0,-0.0,-0.0,-0.0,-0.0,-0.0,-0.0,-0.0,-0.0,-0.0,-0.0,-0.0,-0.0,-0.0,-0.0,-0.0,-0.0,-0.0,-0.0,-0.0,-0.0,-0.0,-0.0,-0.0,-0.0,-0.0,-0.0,-0.0,-0.0,-0.0,-0.0,0.0629,0.0719,-0.0,-0.0,0.1524,0.2869,0.3408,0.3587,0.3676,0.4039,0.5126,0.5486,0.566,0.5744,0.5738,0.5741,0.5749,0.5325,0.5003,0.4591,0.288,-0.0,-0.0,-0.0,-0.0,-0.0,-0.0,-0.0,-0.0,-0.0,0.2123,0.3481,0.4451,0.5422,0.4349,0.2012,0.1192,0.228,0.2091,0.1731,-0.0,-0.0,-0.0,-0.0,-0.0,-0.0,-0.0,0.3409,0.458,0.5484,0.5287,0.5003,0.5463,0.5614,0.5282,0.5262,0.5662,0.559,0.5659,0.5638,0.5558,0.5561,0.5537,0.5646,-0.5578,-0.515,-0.0,-0.0,-0.0,-0.0,-0.0,-0.0,-0.0,-0.027,-0.0629,-0.0628,-0.0626,-0.0535,-0.0447,-0.0362,-0.0362,-0.0,-0.0,-0.0,-0.0,-0.0,-0.0,-0.0,-0.0,-0.0,-0.0,-0.0,-0.0,-0.0,-0.0,-0.0,-0.0,-0.0,-0.0,-0.0,-0.0,-0.0,-0.0,-0.0,-0.0,-0.0,-0.0,-0.0,-0.0,-0.0,-0.0,-0.0,-0.0,-0.0,-0.0,-0.0,-0.0,-0.0,-0.0,-0.0,0.1076,-0.0,-0.0,-0.0,-0.0,-0.0,0.4322,0.4135,0.4538,0.4626,0.5613,0.5443,0.3016,0.2305,0.3736,0.293,-0.0,-0.0,-0.0,-0.0,-0.0,-0.0,-0.0,-0.0,-0.0,0.0747,0.1662,0.1812,-0.0,-0.0,-0.0,-0.0,-0.0,-0.0,-0.0,-0.0,-0.0,-0.0,-0.0,-0.0,-0.0,-0.0,-0.0,0.3321,0.4039,0.4218,0.4397,0.4395,0.4395,0.4474,0.4563,0.5206,0.5652,0.5706,0.5681,0.5577,0.5582,0.5588,0.5689,-0.5468,-0.4977,-0.2151,-0.0,-0.0,-0.0,-0.0,-0.0,-0.0179,-0.0627,-0.1161,-0.1254,-0.1419,-0.1238,-0.1067,-0.0907,-0.0824,-0.0819,-0.0556,-0.0282,-0.0,-0.0,-0.0,-0.0,-0.0,-0.0,-0.0,-0.0,-0.0,-0.0,-0.0,-0.0,-0.0,-0.0,-0.0,-0.0,-0.0,-0.0,-0.0,-0.0,-0.0,-0.0,-0.0,-0.0,-0.0,-0.0,-0.0,-0.0,-0.0,-0.0,-0.0,-0.0,-0.0,-0.0,-0.0,-0.0,-0.0,-0.0,-0.0,-0.0,-0.0,-0.0,-0.0,0.2723,0.3212,0.4139,0.523,0.4516,0.2045,0.1124,0.2558,-0.0,-0.0,-0.0,-0.0,-0.0,-0.0,-0.0,-0.0,-0.0,-0.0,-0.0,-0.0,-0.0,-0.0,-0.0,-0.0,-0.0,-0.0,-0.0,-0.0,-0.0,-0.0,-0.0,-0.0,-0.0,-0.0,-0.0,0.1437,0.2063,0.2511,0.2511,0.2512,0.2511,0.2599,0.2957,0.4036,0.4846,0.5201,0.5735,0.5719,0.5695,0.5703,0.5711,0.5719,-0.5379,-0.532,-0.4746,-0.2848,-0.0,-0.0,-0.0445,-0.1056,-0.107,-0.1068,-0.0972,-0.1249,-0.1431,-0.1427,-0.1342,-0.127,-0.1199,-0.1285,-0.1304,-0.1138,-0.038,-0.0,-0.0,-0.0,-0.0,-0.0,-0.0,-0.0,-0.0,-0.0,-0.0,-0.0,-0.0,-0.0,-0.0,-0.0,-0.0,-0.0,-0.0,-0.0,-0.0,-0.0,-0.0,-0.0,-0.0,-0.0,-0.0,-0.0,-0.0,-0.0,-0.0,-0.0,-0.0,-0.0,-0.0,-0.0,-0.0,-0.0,-0.0,-0.0,-0.0,-0.0,0.131,0.2047,0.2812,0.3944,0.4699,0.5099,0.3035,0.1327,0.1819,0.1555,-0.0,-0.0,-0.0,-0.0,-0.0,-0.0,-0.0,-0.0,-0.0,-0.0,-0.0,-0.0,-0.0,-0.0,-0.0,-0.0,-0.0,-0.0,-0.0,-0.0,-0.0,-0.0,-0.0,-0.0,-0.0,-0.0,-0.0,-0.0,-0.0,-0.0,-0.0,-0.0,-0.0,0.1345,0.2601,0.4216,0.5295,0.5741,0.5735,0.5727,0.5733,0.5733,0.5733]},{"header":{"parameterUnit":"m.s-1","parameterCategory":1,"la1":31.0,"la2":29.5877,"lo1":-88.7671,"lo2":-86.6584,"dy":0.0162,"dx":0.0185,"nx":115,"ny":88,"refTime":"2023-07-05T00:00:00:Z","depth":0,"parameterNumber":3,"parameterNumberName":"V-component_of_WINDS"},"data":[0.0,0.0,0.0,0.0,0.0,0.0,0.0,0.0,0.0,0.0,0.0,0.0,0.0,0.0,0.0,0.0,0.0,0.0,0.0,0.0,0.0,0.0,0.0,0.0,0.0,0.0,0.0,0.0,0.0,0.0,0.0,0.0,0.0,0.0,0.0,0.0,0.0,0.0,0.0,0.0,0.0,0.0,0.0,0.0,0.0,0.0,0.0,0.0,0.0,0.0,0.0,0.0,0.0,0.0,0.0,0.0,0.0,0.0,0.0,0.0,0.0,0.0,0.0,0.0,0.0,0.0,0.0,0.0,0.0,0.0,0.0,0.0,0.0,0.0,0.0,0.0,0.0,0.0,0.0,0.0,0.0,0.0,0.0,0.0,0.0,0.0,0.0,0.0,0.0,0.0,0.0,0.0,0.0,0.0,0.0,0.0,0.0,0.0,0.0,0.0,0.0,0.0,0.0,0.0,0.0,0.0,0.0,0.0,0.0,0.0,0.0,0.0,0.0,0.0,0.0,0.0,0.0,0.0,0.0,0.0,0.0,0.0,0.0,0.0,0.0,0.0,0.0,0.0,0.0,0.0,0.0,0.0,0.0,0.0,0.0,0.0,0.0,0.0,0.0,0.0,0.0,0.0,0.0,0.0,0.0,0.0,0.0,0.0,0.0,0.0,0.0,0.0,0.0,0.0,0.0,0.0,0.0,0.0,0.0,0.0,0.0,0.0,0.0,0.0,0.0,0.0,0.0,0.0,0.0,0.0,0.0,0.0,0.0,0.0,0.0,0.0,0.0,0.0,0.0,0.0,0.0,0.0,0.0,0.0,0.0,0.0,0.0,0.0,0.0,0.0,0.0,0.0,0.0,0.0,0.0,0.0,0.0,0.0,0.0,0.0,0.0,0.0,0.0,0.0,0.0,0.0,0.0,0.0,0.0,0.0,0.0,0.0,0.0,0.0,0.0,0.0,0.0,0.0,0.0,0.0,0.0,0.0,0.0,0.0,0.0,0.0,0.0,0.0,0.0,0.0,0.0,0.0,0.0,0.0,0.0,0.0,0.0,0.0,0.0,0.0,0.0,0.0,0.0,0.0,0.0,0.0,0.0,0.0,0.0,0.0,0.0,0.0,0.0,0.0,0.0,0.0,0.0,0.0,0.0,0.0,0.0,0.0,0.0,0.0,0.0,0.0,0.0,0.0,0.0,0.0,0.0,0.0,0.0,0.0,0.0,0.0,0.0,0.0,0.0,0.0,0.0,0.0,0.0,0.0,0.0,0.0,0.0,0.0,0.0,0.0,0.0,0.0,0.0,0.0,0.0,0.0,0.0,0.0,0.0,0.0,0.0,0.0,0.0,0.0,0.0,0.0,0.0,0.0,0.0,0.0,0.0,0.0,0.0,0.0,0.0,0.0,0.0,0.0,0.0,0.0,0.0,0.0,0.0,0.0,0.0,0.0,0.0,0.0,0.0,0.0,0.0,0.0,0.0,0.0,0.0,0.0,0.0,0.0,0.0,0.0,0.0,0.0,0.0,0.0,0.0,0.0,0.0,0.0,0.0,0.0,0.0,0.0,0.0,0.0,0.0,0.0,0.0,0.0,0.0,0.0,0.0,0.0,0.0,0.0,0.0,0.0,0.0,0.0,0.0,0.0,0.0,0.0,0.0,0.0,0.0,0.0,0.0,0.0,0.0,0.0,0.0,0.0,0.0,0.0,0.0,0.0,0.0,0.0,0.0,0.0,0.0,0.0,0.0,0.0,0.0,0.0,0.0,0.0,0.0,0.0,0.0,0.0,0.0,0.0,0.0,0.0,0.0,0.0,0.0,0.0,0.0,0.0,0.0,0.0,0.0,0.0,0.0,0.0,0.0,0.0,0.0,0.0,0.0,0.0,0.0,0.0,0.0,0.0,0.0,0.0,0.0,0.0,0.0,0.0,0.0,0.0,0.0,0.0,0.0,0.0,0.0,0.0,0.0,0.0,0.0,0.0,0.0,0.0,0.0,0.0,0.0,0.0,0.0,0.0,0.0,0.0,0.0,0.0,0.0,0.0,0.0,0.0,0.0,0.0,0.0,0.0,0.0,0.0,0.0,0.0,0.0,0.0,0.0,0.0,0.0,0.0,0.0,0.0,0.0,0.0,0.0,0.0,0.0,0.0,0.0,0.0,0.0,0.0,0.0,0.0,0.0,0.0,0.0,0.0,0.0,0.0,0.0,0.0,0.0,0.0,0.0,0.0,0.0,0.0,0.0,0.0,0.0,0.0,0.0,0.0,0.0,0.0,0.0,0.0,0.0,0.0,0.0,0.0,0.0,0.0,0.0,0.0,0.0,0.0,0.0,0.0,0.0,0.0,0.0,0.0,0.0,0.0,0.0,0.0,0.0,0.0,0.0,0.0,0.0,0.0,0.0,0.0,0.0,0.0,0.0,0.0,0.0,0.0,0.0,0.0,0.0,0.0,0.0,0.0,0.0,0.0,0.0,0.0,0.0,0.0,0.0,0.0,0.0,0.0,0.0,0.0,0.0,0.0,0.0,0.0,0.0,0.0,0.0,0.0,0.0,0.0,0.0,0.0,0.0,0.0,0.0,0.0,0.0,0.0,0.0,0.0,0.0,0.0,0.0,0.0,0.0,0.0,0.0,0.0,0.0,0.0,0.0,0.0,0.0,0.0,0.0,0.0,0.0,0.0,0.0,0.0,0.0,0.0,0.0,0.0,0.0,0.0,0.0,0.0,0.0,0.0,0.0,0.0,0.0,0.0,0.0,0.0,0.0,0.0,0.0,0.0,0.0,0.0,0.0,0.0,0.0,0.0,0.0,0.0,0.0,0.0,0.0,0.0,0.0,0.0,0.0,0.0,0.0,0.0,0.0,0.0,0.0,0.0,0.0,0.0,0.0,0.0,0.0,0.0,0.0,0.0,0.0,0.0,0.0,0.0,0.0,0.0,0.0,0.0,0.0,0.0,0.0,0.0,0.0,0.0,0.0,0.0,0.0,0.0,0.0,0.0,0.0,0.0,0.0,0.0,0.0,0.0,0.0,0.0,0.0,0.0,0.0,0.0,0.0,0.0,0.0,0.0,0.0,0.0,0.0,0.0,0.0,0.0,0.0,0.0,0.0,0.0,0.0,0.0,0.0,0.0,0.0,0.0,0.0,0.0,0.0,0.0,0.0,0.0,0.0,0.0,0.0,0.0,0.0,0.0,0.0,0.0,0.0,0.0,0.0,0.0,0.0,0.0,0.0,0.0,0.0,0.0,0.0,0.0,0.0,0.0,0.0,0.0,0.0,0.0,0.0,0.0,0.0,0.0,0.0,0.0,0.0,0.0,0.0,0.0,0.0,0.0,0.0,0.0,0.0,0.0,0.0,0.0,0.0,0.0,0.0,0.0,0.0,0.0,0.0,0.0,0.0,0.0,0.0,0.0,0.0,0.0,0.0,0.0,0.0,0.0,0.0,0.0,0.0,0.0,0.0,0.0,0.0,0.0,0.0,0.0,0.0,0.0,0.0,0.0,0.0,0.0,0.0,0.0,0.0,0.0,0.0,0.0,0.0,0.0,0.0,0.0,0.0,0.0,0.0,0.0,0.0,0.0,0.0,0.0,0.0,0.0,0.0,0.0,0.0,0.0,0.0,0.0,0.0,0.0,0.0,0.0,0.0,0.0,0.0,0.0,0.0,0.0,0.0,0.0,0.0,0.0,0.0,0.0,0.0,0.0,0.0,0.0,0.0,0.0,0.0,0.0,0.0,0.0,0.0,0.0,0.0,0.0,0.0,0.0,0.0,0.0,0.0,0.0,0.0,0.0,0.0,0.0,0.0,0.0,0.0,0.0,0.0,0.0,0.0,0.0,0.0,0.0,0.0,0.0,0.0,0.0,0.0,0.0,0.0,0.0,0.0,0.0,0.0,0.0,0.0,0.0,0.0,0.0,0.0,0.0,0.0,0.0,0.0,0.0,0.0,0.0,0.0,0.0,0.0,0.0,0.0,0.0,0.0,0.0,0.0,0.0,0.0,0.0,0.0,0.0,0.0,0.0,0.0,0.0,0.0,0.0,0.0,0.0,0.0,0.0,0.0,0.0,0.0,0.0,0.0,0.0,0.0,0.0,0.0,0.0,0.0,0.0,0.0,0.0,0.0,0.0,0.0,0.0,0.0,0.0,0.0,0.0,0.0,0.0,0.0,0.0,0.0,0.0,0.0,0.0,0.0,0.0,0.0,0.0,0.0,0.0,0.0,0.0,0.0,0.0,0.0,0.0,0.0,0.0,0.0,0.0,0.0,0.0,0.0,0.0,-0.9557,0.0,0.0,0.0,0.0,0.0,0.0,0.0,0.0,0.0,0.0,0.0,0.0,0.0,0.0,0.0,0.0,0.0,0.0,0.0,0.0,0.0,0.0,0.0,0.0,0.0,0.0,0.0,0.0,0.0,0.0,0.0,0.0,0.0,0.0,0.0,0.0,0.0,0.0,0.0,0.0,0.0,0.0,0.0,0.0,0.0,0.0,0.0,0.0,0.0,0.0,0.0,0.0,0.0,0.0,0.0,0.0,0.0,0.0,0.0,0.0,0.0,0.0,0.0,0.0,0.0,0.0,0.0,0.0,0.0,0.0,0.0,0.0,0.0,0.0,0.0,0.0,0.0,0.0,0.0,0.0,0.0,0.0,0.0,0.0,0.0,0.0,0.0,0.0,0.0,0.0,0.0,0.0,0.0,0.0,0.0,0.0,0.0,0.0,0.0,0.0,0.0,0.0,0.0,0.0,0.0,0.0,0.0,0.0,0.0,0.0,-0.9251,-1.0045,-0.8826,-0.8666,-0.9754,0.0,0.0,0.0,0.0,0.0,0.0,0.0,0.0,0.0,0.0,0.0,0.0,0.0,0.0,0.0,0.0,0.0,0.0,0.0,0.0,0.0,0.0,0.0,0.0,0.0,0.0,0.0,0.0,0.0,0.0,0.0,0.0,0.0,0.0,0.0,0.0,0.0,0.0,0.0,0.0,0.0,0.0,0.0,0.0,0.0,0.0,0.0,0.0,0.0,0.0,0.0,0.0,0.0,0.0,0.0,0.0,0.0,0.0,0.0,0.0,0.0,0.0,0.0,0.0,0.0,0.0,0.0,0.0,0.0,0.0,0.0,0.0,0.0,0.0,0.0,0.0,0.0,0.0,0.0,0.0,0.0,0.0,0.0,0.0,0.0,0.0,0.0,0.0,0.0,0.0,0.0,0.0,0.0,0.0,0.0,0.0,0.0,0.0,0.0,0.0,0.0,0.0,0.0,0.0,0.0,0.0,0.0,0.0,0.0,0.0,0.0,0.0,-0.9536,-0.9471,-1.0942,0.0,0.0,0.0,0.0,0.0,0.0,0.0,0.0,0.0,0.0,0.0,0.0,0.0,0.0,0.0,0.0,0.0,0.0,0.0,0.0,0.0,0.0,0.0,0.0,0.0,0.0,0.0,0.0,0.0,0.0,0.0,0.0,0.0,0.0,0.0,0.0,0.0,0.0,0.0,0.0,0.0,0.0,0.0,0.0,0.0,0.0,0.0,0.0,0.0,0.0,0.0,0.0,0.0,0.0,0.0,0.0,0.0,0.0,0.0,0.0,0.0,0.0,0.0,0.0,0.0,0.0,0.0,0.0,0.0,0.0,0.0,0.0,0.0,0.0,0.0,0.0,0.0,0.0,0.0,0.0,0.0,0.0,0.0,0.0,0.0,0.0,0.0,0.0,0.0,0.0,0.0,0.0,0.0,0.0,0.0,0.0,0.0,0.0,0.0,0.0,0.0,0.0,0.0,0.0,0.0,0.0,0.0,0.0,0.0,0.0,-1.1188,-1.3462,-1.2655,0.0,-1.4411,0.0,0.0,0.0,0.0,0.0,0.0,0.0,0.0,0.0,0.0,0.0,0.0,0.0,0.0,0.0,0.0,0.0,0.0,0.0,0.0,0.0,0.0,0.0,0.0,0.0,0.0,0.0,0.0,0.0,0.0,0.0,0.0,0.0,0.0,0.0,0.0,0.0,0.0,0.0,0.0,0.0,0.0,0.0,0.0,0.0,0.0,0.0,0.0,0.0,0.0,0.0,0.0,0.0,0.0,0.0,0.0,0.0,0.0,0.0,0.0,0.0,0.0,0.0,0.0,0.0,0.0,0.0,0.0,0.0,0.0,0.0,0.0,0.0,0.0,0.0,0.0,0.0,0.0,0.0,0.0,0.0,0.0,0.0,0.0,0.0,0.0,0.0,0.0,0.0,0.0,0.0,0.0,0.0,0.0,0.0,0.0,0.0,0.0,0.0,0.0,0.0,0.0,0.0,0.0,0.0,0.0,0.0,0.0,0.0,0.0,-1.112,-1.3017,-1.2744,-1.2655,0.0,0.0,0.0,0.0,0.0,0.0,0.0,0.0,0.0,0.0,0.0,0.0,0.0,0.0,0.0,0.0,0.0,0.0,0.0,0.0,0.0,0.0,0.0,0.0,0.0,0.0,0.0,0.0,0.0,0.0,0.0,0.0,0.0,0.0,0.0,0.0,0.0,0.0,0.0,0.0,0.0,0.0,0.0,0.0,0.0,0.0,0.0,0.0,0.0,0.0,0.0,0.0,0.0,0.0,0.0,0.0,0.0,0.0,0.0,0.0,0.0,0.0,0.0,0.0,0.0,0.0,0.0,0.0,0.0,0.0,0.0,0.0,0.0,0.0,0.0,0.0,0.0,0.0,0.0,0.0,0.0,0.0,0.0,0.0,0.0,0.0,0.0,0.0,0.0,0.0,0.0,0.0,0.0,0.0,0.0,0.0,0.0,0.0,0.0,0.0,0.0,0.0,0.0,0.0,0.0,0.0,0.0,0.0,0.0,0.0,-1.0938,-1.1347,-1.3075,-1.275,-1.2539,-1.2705,0.0,0.0,0.0,0.0,0.0,0.0,0.0,0.0,0.0,0.0,0.0,0.0,0.0,0.0,0.0,0.0,0.0,0.0,0.0,0.0,0.0,0.0,0.0,0.0,0.0,0.0,0.0,0.0,0.0,0.0,0.0,0.0,0.0,0.0,0.0,0.0,0.0,0.0,0.0,0.0,0.0,0.0,0.0,0.0,0.0,0.0,0.0,0.0,0.0,0.0,0.0,0.0,0.0,0.0,0.0,0.0,0.0,0.0,0.0,0.0,0.0,0.0,0.0,0.0,0.0,0.0,0.0,0.0,0.0,0.0,0.0,0.0,0.0,0.0,0.0,0.0,0.0,0.0,0.0,0.0,0.0,0.0,0.0,0.0,0.0,0.0,0.0,0.0,0.0,0.0,0.0,0.0,0.0,0.0,0.0,0.0,0.0,0.0,0.0,0.0,0.0,0.0,0.0,0.0,0.0,0.0,0.0,0.0,-1.5635,-1.2807,-1.2394,-1.4757,-1.3373,-1.3648,0.0,0.0,0.0,0.0,0.0,0.0,0.0,0.0,0.0,0.0,0.0,0.0,0.0,0.0,0.0,0.0,0.0,0.0,0.0,0.0,0.0,0.0,0.0,0.0,0.0,0.0,0.0,0.0,0.0,0.0,0.0,0.0,0.0,0.0,0.0,0.0,0.0,0.0,0.0,0.0,0.0,0.0,0.0,0.0,0.0,0.0,0.0,0.0,0.0,0.0,0.0,0.0,0.0,0.0,0.0,0.0,0.0,0.0,0.0,0.0,0.0,0.0,0.0,0.0,0.0,0.0,0.0,0.0,0.0,0.0,0.0,0.0,0.0,0.0,0.0,0.0,0.0,0.0,0.0,0.0,0.0,0.0,0.0,0.0,0.0,0.0,0.0,0.0,0.0,0.0,0.0,0.0,0.0,0.0,0.0,0.0,0.0,0.0,0.0,0.0,0.0,0.0,0.0,0.0,0.0,0.0,0.0,0.0,0.0,-1.3691,-1.3526,-1.3355,-1.3221,-1.369,-1.3899,0.0,0.0,0.0,0.0,0.0,0.0,0.0,0.0,0.0,0.0,0.0,0.0,0.0,0.0,0.0,0.0,0.0,0.0,0.0,0.0,0.0,0.0,0.0,0.0,0.0,0.0,0.0,0.0,0.0,0.0,0.0,0.0,0.0,0.0,0.0,0.0,0.0,0.0,0.0,0.0,0.0,0.0,0.0,0.0,0.0,0.0,0.0,0.0,0.0,0.0,0.0,0.0,0.0,0.0,0.0,0.0,0.0,0.0,0.0,0.0,0.0,0.0,0.0,0.0,0.0,0.0,0.0,0.0,0.0,0.0,0.0,0.0,0.0,0.0,0.0,0.0,0.0,0.0,0.0,0.0,0.0,0.0,0.0,0.0,0.0,0.0,0.0,0.0,0.0,0.0,0.0,0.0,0.0,0.0,0.0,0.0,0.0,0.0,0.0,0.0,0.0,0.0,0.0,0.0,0.0,0.0,0.0,0.0,0.0,-1.1954,0.0,-1.3362,-1.2595,-1.3691,-1.3924,0.0,0.0,0.0,0.0,0.0,0.0,0.0,0.0,0.0,0.0,0.0,0.0,0.0,0.0,0.0,0.0,0.0,0.0,0.0,0.0,0.0,0.0,0.0,0.0,0.0,0.0,0.0,0.0,0.0,0.0,0.0,0.0,0.0,0.0,0.0,0.0,0.0,0.0,0.0,0.0,0.0,0.0,0.0,0.0,0.0,0.0,0.0,0.0,0.0,0.0,0.0,0.0,0.0,0.0,0.0,0.0,0.0,0.0,0.0,0.0,0.0,0.0,0.0,0.0,0.0,0.0,0.0,0.0,0.0,0.0,0.0,0.0,0.0,0.0,0.0,0.0,0.0,0.0,0.0,0.0,0.0,0.0,0.0,0.0,0.0,0.0,0.0,0.0,0.0,0.0,0.0,0.0,0.0,0.0,0.0,0.0,0.0,0.0,0.0,0.0,0.0,0.0,0.0,0.0,0.0,0.0,0.0,0.0,-1.1938,-1.1161,-1.1671,-1.2443,-1.3269,-1.3415,-1.382,0.0,0.0,0.0,0.0,0.0,0.0,0.0,0.0,0.0,0.0,0.0,0.0,0.0,0.0,0.0,0.0,0.0,0.0,0.0,0.0,0.0,0.0,0.0,0.0,0.0,0.0,0.0,0.0,0.0,0.0,0.0,0.0,0.0,0.0,0.0,0.0,0.0,0.0,0.0,0.0,0.0,0.0,0.0,0.0,0.0,0.0,0.0,0.0,0.0,0.0,0.0,0.0,0.0,0.0,0.0,0.0,0.0,0.0,0.0,0.0,0.0,0.0,0.0,0.0,0.0,0.0,0.0,0.0,0.0,0.0,0.0,0.0,0.0,0.0,0.0,0.0,0.0,0.0,0.0,0.0,0.0,0.0,0.0,0.0,0.0,0.0,0.0,0.0,0.0,0.0,0.0,0.0,0.0,0.0,0.0,0.0,0.0,0.0,0.0,0.0,0.0,0.0,0.0,0.0,0.0,0.0,0.0,0.0,0.0,-1.3223,-1.2375,-1.2746,-1.4423,-1.3648,-1.4057,0.0,0.0,0.0,0.0,0.0,0.0,0.0,0.0,0.0,0.0,0.0,0.0,0.0,0.0,0.0,0.0,0.0,0.0,0.0,0.0,0.0,0.0,0.0,0.0,0.0,0.0,0.0,0.0,0.0,0.0,0.0,0.0,0.0,0.0,0.0,0.0,0.0,0.0,0.0,0.0,0.0,0.0,0.0,0.0,0.0,0.0,0.0,0.0,0.0,0.0,0.0,0.0,0.0,0.0,0.0,0.0,0.0,0.0,0.0,0.0,0.0,0.0,0.0,0.0,0.0,0.0,0.0,0.0,0.0,0.0,0.0,0.0,0.0,0.0,0.0,0.0,0.0,0.0,0.0,0.0,0.0,0.0,0.0,0.0,0.0,0.0,0.0,0.0,0.0,0.0,0.0,0.0,0.0,0.0,0.0,0.0,0.0,0.0,0.0,0.0,0.0,0.0,0.0,0.0,0.0,0.0,0.0,0.0,0.0,-1.4486,-1.2997,-1.2926,-1.4612,-1.4413,-1.4711,-1.5587,0.0,0.0,0.0,0.0,0.0,0.0,0.0,0.0,0.0,0.0,0.0,0.0,0.0,0.0,0.0,0.0,0.0,0.0,0.0,0.0,0.0,0.0,0.0,0.0,0.0,0.0,0.0,0.0,0.0,0.0,0.0,0.0,0.0,0.0,0.0,0.0,0.0,0.0,0.0,0.0,0.0,0.0,0.0,0.0,0.0,0.0,0.0,0.0,0.0,0.0,0.0,0.0,0.0,0.0,0.0,0.0,0.0,0.0,0.0,0.0,0.0,0.0,0.0,0.0,0.0,0.0,0.0,0.0,0.0,0.0,0.0,0.0,0.0,0.0,0.0,0.0,0.0,0.0,0.0,0.0,0.0,0.0,0.0,0.0,0.0,0.0,0.0,0.0,0.0,0.0,0.0,0.0,0.0,0.0,0.0,0.0,0.0,0.0,0.0,0.0,0.0,0.0,0.0,0.0,0.0,0.0,0.0,0.0,-1.5243,-1.3706,-1.338,-1.4269,-1.5579,-1.5737,0.0,0.0,0.0,0.0,0.0,0.0,0.0,0.0,0.0,0.0,0.0,0.0,0.0,0.0,0.0,0.0,0.0,0.0,0.0,0.0,0.0,0.0,0.0,0.0,0.0,0.0,0.0,0.0,0.0,0.0,0.0,0.0,0.0,0.0,0.0,0.0,0.0,0.0,0.0,0.0,0.0,0.0,0.0,0.0,0.0,0.0,0.0,0.0,0.0,0.0,0.0,0.0,0.0,0.0,0.0,0.0,0.0,0.0,0.0,0.0,0.0,0.0,0.0,0.0,0.0,0.0,0.0,0.0,0.0,0.0,0.0,0.0,0.0,0.0,0.0,0.0,0.0,0.0,0.0,0.0,0.0,0.0,0.0,0.0,0.0,0.0,0.0,0.0,0.0,0.0,0.0,0.0,0.0,0.0,0.0,0.0,0.0,0.0,0.0,0.0,0.0,0.0,0.0,0.0,0.0,0.0,0.0,0.0,0.0,-1.6764,-1.7364,-1.782,-1.806,-1.6834,-1.7082,0.0,0.0,0.0,0.0,0.0,0.0,0.0,0.0,0.0,0.0,0.0,0.0,0.0,0.0,0.0,0.0,0.0,0.0,0.0,0.0,0.0,0.0,0.0,0.0,0.0,0.0,0.0,0.0,0.0,0.0,0.0,0.0,0.0,0.0,0.0,0.0,0.0,0.0,0.0,0.0,0.0,0.0,0.0,0.0,0.0,0.0,0.0,0.0,0.0,0.0,0.0,0.0,0.0,0.0,0.0,0.0,0.0,0.0,0.0,0.0,0.0,0.0,0.0,0.0,0.0,0.0,0.0,0.0,0.0,0.0,0.0,0.0,0.0,0.0,0.0,0.0,0.0,0.0,0.0,0.0,0.0,0.0,0.0,0.0,0.0,0.0,0.0,0.0,0.0,0.0,0.0,0.0,0.0,0.0,0.0,0.0,0.0,0.0,0.0,0.0,0.0,0.0,0.0,0.0,0.0,0.0,0.0,0.0,-1.6818,-1.6941,-1.9583,-2.1022,-2.1055,-1.9423,-1.8758,0.0,0.0,0.0,0.0,0.0,0.0,0.0,0.0,0.0,0.0,0.0,0.0,0.0,0.0,0.0,0.0,0.0,0.0,0.0,0.0,0.0,0.0,0.0,0.0,0.0,0.0,0.0,0.0,0.0,0.0,0.0,0.0,0.0,0.0,0.0,0.0,0.0,0.0,0.0,0.0,0.0,0.0,0.0,0.0,0.0,0.0,0.0,0.0,0.0,0.0,0.0,0.0,0.0,0.0,0.0,0.0,0.0,0.0,0.0,0.0,0.0,0.0,0.0,0.0,0.0,0.0,0.0,0.0,0.0,0.0,0.0,0.0,0.0,0.0,0.0,0.0,0.0,0.0,0.0,0.0,0.0,0.0,0.0,0.0,0.0,0.0,0.0,0.0,0.0,0.0,0.0,0.0,0.0,0.0,0.0,0.0,0.0,0.0,0.0,0.0,0.0,0.0,0.0,0.0,0.0,0.0,0.0,0.0,-1.7926,-1.6677,-2.0855,-2.3102,-2.3084,-2.2247,-2.0525,0.0,0.0,0.0,0.0,0.0,0.0,0.0,0.0,0.0,0.0,0.0,0.0,0.0,0.0,0.0,0.0,0.0,0.0,0.0,0.0,0.0,0.0,0.0,0.0,0.0,0.0,0.0,0.0,0.0,0.0,0.0,0.0,0.0,0.0,0.0,0.0,0.0,0.0,0.0,0.0,0.0,0.0,0.0,0.0,0.0,0.0,0.0,0.0,0.0,0.0,0.0,0.0,0.0,0.0,0.0,0.0,0.0,0.0,0.0,0.0,0.0,0.0,0.0,0.0,0.0,0.0,0.0,0.0,0.0,0.0,0.0,0.0,0.0,0.0,0.0,0.0,0.0,0.0,0.0,0.0,0.0,0.0,0.0,0.0,0.0,0.0,0.0,0.0,0.0,0.0,0.0,0.0,0.0,0.0,0.0,0.0,0.0,0.0,0.0,0.0,0.0,0.0,0.0,0.0,0.0,0.0,0.0,0.0,-1.8215,-1.8981,-2.168,-2.3119,-2.3119,-2.1768,-2.103,0.0,0.0,0.0,0.0,0.0,0.0,0.0,0.0,0.0,0.0,0.0,0.0,0.0,0.0,0.0,0.0,0.0,0.0,0.0,0.0,0.0,0.0,0.0,0.0,0.0,0.0,0.0,0.0,0.0,0.0,0.0,0.0,0.0,0.0,0.0,0.0,0.0,0.0,0.0,0.0,0.0,0.0,0.0,0.0,0.0,0.0,0.0,0.0,-1.1483,0.0,0.0,0.0,0.0,0.0,0.0,0.0,0.0,0.0,0.0,0.0,0.0,0.0,0.0,0.0,0.0,0.0,0.0,0.0,0.0,0.0,0.0,0.0,0.0,0.0,0.0,0.0,0.0,0.0,0.0,0.0,0.0,0.0,0.0,0.0,0.0,0.0,0.0,0.0,0.0,0.0,0.0,0.0,0.0,0.0,0.0,0.0,0.0,0.0,0.0,0.0,0.0,0.0,0.0,0.0,0.0,0.0,0.0,0.0,-1.8178,-1.97,-2.1926,-2.3119,-2.3084,-2.1978,-2.1562,0.0,0.0,0.0,0.0,0.0,0.0,0.0,0.0,0.0,0.0,0.0,0.0,0.0,0.0,0.0,0.0,0.0,0.0,0.0,0.0,0.0,0.0,0.0,0.0,0.0,0.0,0.0,0.0,0.0,0.0,0.0,0.0,0.0,0.0,0.0,0.0,0.0,0.0,0.0,0.0,0.0,0.0,0.0,0.0,0.0,0.0,0.0,0.0,0.0,0.0,0.0,0.0,0.0,0.0,0.0,0.0,0.0,0.0,0.0,0.0,0.0,0.0,0.0,0.0,0.0,0.0,0.0,0.0,0.0,0.0,0.0,0.0,0.0,0.0,0.0,0.0,0.0,0.0,0.0,0.0,0.0,0.0,0.0,0.0,0.0,0.0,0.0,0.0,0.0,0.0,0.0,0.0,0.0,0.0,0.0,0.0,0.0,0.0,0.0,0.0,0.0,0.0,0.0,0.0,0.0,0.0,0.0,-1.7639,-1.8366,-2.0201,-2.2119,-2.3119,-2.3102,-2.2382,-2.2054,-2.2136,0.0,0.0,0.0,0.0,0.0,0.0,0.0,0.0,0.0,0.0,0.0,0.0,0.0,0.0,0.0,0.0,0.0,0.0,0.0,0.0,0.0,0.0,0.0,0.0,0.0,0.0,0.0,0.0,0.0,0.0,0.0,0.0,0.0,0.0,0.0,0.0,0.0,0.0,-1.1491,-1.2386,0.0,0.0,0.0,0.0,0.0,0.0,0.0,0.0,-1.2765,0.0,0.0,0.0,0.0,0.0,0.0,0.0,0.0,0.0,0.0,0.0,0.0,0.0,0.0,0.0,0.0,0.0,0.0,0.0,0.0,0.0,0.0,0.0,0.0,0.0,0.0,0.0,0.0,0.0,0.0,0.0,0.0,0.0,0.0,0.0,0.0,0.0,0.0,0.0,0.0,0.0,0.0,0.0,0.0,0.0,0.0,0.0,0.0,0.0,0.0,0.0,0.0,0.0,0.0,0.0,0.0,-1.9401,-1.8678,-1.9668,-2.2446,-2.2884,-2.3119,-2.3077,-2.2382,-2.2277,-2.2821,0.0,0.0,0.0,0.0,0.0,0.0,0.0,0.0,0.0,0.0,0.0,0.0,0.0,0.0,0.0,0.0,0.0,0.0,0.0,0.0,0.0,0.0,0.0,0.0,0.0,0.0,0.0,0.0,0.0,0.0,0.0,0.0,0.0,0.0,0.0,0.0,0.0,0.0,0.0,-1.2172,-1.2488,0.0,0.0,0.0,0.0,0.0,0.0,0.0,0.0,-1.3436,0.0,0.0,0.0,0.0,0.0,0.0,0.0,0.0,0.0,0.0,0.0,0.0,0.0,0.0,0.0,0.0,0.0,0.0,0.0,0.0,0.0,0.0,0.0,0.0,0.0,0.0,0.0,0.0,0.0,0.0,0.0,0.0,0.0,0.0,0.0,0.0,0.0,0.0,0.0,0.0,0.0,0.0,0.0,0.0,0.0,0.0,0.0,0.0,0.0,0.0,0.0,0.0,0.0,0.0,0.0,-2.0247,-1.9565,-2.0416,-2.2996,-2.3119,-2.3119,-2.3102,-2.2382,-2.2347,0.0,0.0,0.0,0.0,0.0,0.0,0.0,0.0,0.0,0.0,0.0,0.0,0.0,0.0,0.0,0.0,0.0,0.0,0.0,0.0,0.0,0.0,0.0,0.0,0.0,0.0,0.0,0.0,0.0,0.0,0.0,0.0,0.0,0.0,0.0,0.0,0.0,0.0,0.0,0.0,-1.3014,-1.3564,-1.4102,0.0,0.0,0.0,0.0,0.0,0.0,-1.4344,-1.4313,0.0,0.0,0.0,0.0,0.0,0.0,0.0,0.0,0.0,0.0,0.0,0.0,0.0,0.0,0.0,0.0,0.0,0.0,0.0,0.0,0.0,0.0,0.0,0.0,0.0,0.0,0.0,0.0,0.0,0.0,0.0,0.0,0.0,0.0,0.0,0.0,0.0,0.0,0.0,0.0,0.0,0.0,0.0,0.0,0.0,0.0,0.0,0.0,0.0,0.0,0.0,0.0,0.0,0.0,0.0,-2.0862,-2.0424,-2.1118,-2.3014,-2.3119,-2.3119,-2.3102,-2.2242,-2.2171,0.0,0.0,0.0,0.0,0.0,0.0,0.0,0.0,0.0,0.0,0.0,0.0,0.0,0.0,0.0,0.0,0.0,0.0,0.0,0.0,0.0,0.0,0.0,0.0,0.0,0.0,0.0,0.0,0.0,0.0,0.0,0.0,0.0,0.0,0.0,0.0,0.0,0.0,0.0,0.0,0.0,-1.5046,-1.564,-1.489,0.0,0.0,0.0,0.0,-1.5461,-1.5401,0.0,0.0,0.0,0.0,0.0,0.0,0.0,0.0,0.0,0.0,0.0,0.0,0.0,0.0,0.0,0.0,0.0,0.0,0.0,0.0,0.0,0.0,0.0,0.0,0.0,0.0,0.0,0.0,0.0,0.0,0.0,0.0,0.0,0.0,0.0,0.0,0.0,0.0,0.0,0.0,0.0,0.0,0.0,0.0,0.0,0.0,0.0,0.0,0.0,0.0,0.0,0.0,0.0,0.0,0.0,0.0,-2.0846,-2.1439,-2.2171,-2.3067,-2.3119,-2.3119,-2.3102,-2.1697,-2.161,0.0,0.0,0.0,0.0,0.0,0.0,0.0,0.0,0.0,0.0,0.0,0.0,0.0,0.0,0.0,0.0,0.0,0.0,0.0,0.0,0.0,0.0,0.0,0.0,0.0,0.0,0.0,0.0,0.0,0.0,0.0,0.0,0.0,0.0,0.0,0.0,0.0,0.0,0.0,0.0,0.0,-1.5994,-1.7175,-1.6029,-1.4811,0.0,0.0,0.0,-1.5447,-1.636,0.0,0.0,0.0,0.0,0.0,0.0,0.0,0.0,0.0,0.0,0.0,0.0,0.0,0.0,0.0,0.0,0.0,0.0,0.0,0.0,0.0,0.0,0.0,0.0,0.0,0.0,0.0,0.0,0.0,0.0,0.0,0.0,0.0,0.0,0.0,0.0,0.0,0.0,0.0,0.0,0.0,0.0,0.0,0.0,0.0,0.0,0.0,0.0,0.0,0.0,0.0,0.0,0.0,0.0,0.0,-2.1469,-2.1527,-2.2224,-2.2768,-2.3102,-2.3119,-2.3119,-2.3102,-2.161,-2.1522,0.0,0.0,0.0,0.0,0.0,0.0,0.0,0.0,0.0,0.0,0.0,0.0,0.0,0.0,0.0,0.0,0.0,0.0,0.0,0.0,0.0,0.0,0.0,0.0,0.0,0.0,0.0,0.0,0.0,0.0,0.0,0.0,0.0,0.0,0.0,0.0,0.0,0.0,0.0,0.0,0.0,0.0,-1.6974,-1.6632,0.0,0.0,0.0,-1.6683,-1.6173,0.0,0.0,0.0,0.0,0.0,0.0,0.0,0.0,0.0,0.0,0.0,0.0,0.0,0.0,0.0,0.0,0.0,0.0,0.0,0.0,0.0,0.0,0.0,0.0,0.0,0.0,0.0,0.0,0.0,0.0,0.0,0.0,0.0,0.0,0.0,0.0,0.0,0.0,0.0,0.0,0.0,0.0,0.0,0.0,0.0,0.0,0.0,0.0,0.0,0.0,0.0,0.0,0.0,0.0,0.0,0.0,0.0,-2.1966,-2.2667,-2.307,-2.3052,-2.3052,-2.307,-2.306,-2.1762,0.0,0.0,0.0,0.0,0.0,0.0,0.0,0.0,0.0,0.0,0.0,0.0,0.0,0.0,0.0,0.0,0.0,0.0,0.0,0.0,0.0,0.0,0.0,0.0,0.0,0.0,0.0,-1.1489,0.0,0.0,0.0,0.0,0.0,0.0,0.0,0.0,0.0,0.0,0.0,0.0,0.0,0.0,-1.7215,-1.7106,-1.737,-1.7657,0.0,0.0,-1.7334,-1.7212,-1.8433,-1.8893,0.0,0.0,0.0,0.0,0.0,0.0,0.0,0.0,0.0,0.0,0.0,0.0,0.0,0.0,0.0,0.0,0.0,0.0,0.0,0.0,0.0,0.0,0.0,0.0,0.0,0.0,0.0,0.0,0.0,0.0,0.0,0.0,0.0,0.0,0.0,0.0,0.0,0.0,0.0,0.0,0.0,0.0,0.0,0.0,0.0,0.0,0.0,0.0,0.0,0.0,0.0,0.0,0.0,0.0,0.0,-2.1857,-2.2611,-2.302,-2.302,-2.302,-2.302,-2.3003,-2.2185,-2.2108,0.0,0.0,0.0,0.0,0.0,0.0,0.0,0.0,0.0,0.0,0.0,0.0,0.0,0.0,0.0,0.0,0.0,0.0,0.0,0.0,0.0,0.0,0.0,0.0,0.0,0.0,0.0,0.0,0.0,0.0,0.0,0.0,0.0,0.0,0.0,0.0,0.0,0.0,0.0,0.0,0.0,-1.8699,-1.8479,-1.8568,-1.8479,0.0,0.0,-1.8223,-1.8509,-1.9465,-1.9816,-1.8759,0.0,0.0,0.0,0.0,0.0,0.0,0.0,0.0,0.0,0.0,0.0,0.0,0.0,0.0,0.0,0.0,0.0,0.0,0.0,0.0,0.0,0.0,0.0,0.0,0.0,0.0,0.0,0.0,0.0,0.0,0.0,0.0,0.0,0.0,0.0,0.0,0.0,0.0,0.0,0.0,0.0,0.0,0.0,0.0,0.0,0.0,0.0,0.0,0.0,0.0,0.0,0.0,0.0,-2.2415,-2.2177,-2.2669,-2.2944,-2.2944,-2.2927,-2.2944,-2.2927,-2.2188,-2.2136,0.0,0.0,0.0,0.0,0.0,0.0,0.0,0.0,0.0,0.0,0.0,0.0,0.0,0.0,0.0,0.0,0.0,0.0,0.0,0.0,0.0,0.0,0.0,0.0,0.0,0.0,0.0,0.0,-1.4455,-1.5059,-1.4907,0.0,0.0,0.0,0.0,0.0,0.0,0.0,0.0,0.0,0.0,-1.855,-1.9455,-1.9507,0.0,0.0,-1.9029,-1.8811,-1.8454,-1.912,-1.9381,-1.8517,-1.8066,0.0,0.0,0.0,0.0,0.0,0.0,0.0,0.0,0.0,0.0,0.0,0.0,0.0,0.0,0.0,0.0,0.0,0.0,0.0,0.0,0.0,0.0,0.0,0.0,0.0,0.0,0.0,0.0,0.0,0.0,0.0,0.0,0.0,0.0,0.0,0.0,0.0,0.0,0.0,0.0,0.0,0.0,0.0,0.0,0.0,0.0,0.0,0.0,0.0,0.0,0.0,0.0,-2.2298,-2.2341,-2.2703,-2.2868,-2.285,-2.285,-2.285,-2.2833,-2.2364,-2.2304,0.0,0.0,0.0,0.0,0.0,0.0,0.0,0.0,0.0,0.0,0.0,0.0,0.0,0.0,0.0,0.0,0.0,0.0,0.0,0.0,0.0,0.0,0.0,0.0,0.0,0.0,0.0,0.0,-1.5455,-1.6031,-1.6155,0.0,0.0,0.0,0.0,0.0,0.0,0.0,0.0,0.0,0.0,-1.8725,-1.9567,-1.9915,-1.9999,-1.9736,-1.9609,-1.9404,-1.9044,-1.9319,-1.9397,-1.878,0.0,0.0,0.0,0.0,0.0,0.0,0.0,0.0,0.0,0.0,0.0,0.0,0.0,0.0,0.0,0.0,0.0,0.0,0.0,0.0,0.0,0.0,0.0,0.0,0.0,0.0,0.0,0.0,0.0,0.0,-1.6843,0.0,0.0,0.0,0.0,0.0,0.0,0.0,0.0,0.0,0.0,0.0,0.0,0.0,0.0,0.0,0.0,0.0,0.0,0.0,0.0,0.0,0.0,0.0,-2.2192,-2.2598,-2.2799,-2.2799,-2.2816,-2.2816,-2.2816,-2.2721,-2.2694,-2.2685,0.0,0.0,0.0,0.0,0.0,0.0,0.0,0.0,0.0,0.0,0.0,0.0,0.0,0.0,0.0,0.0,0.0,0.0,0.0,0.0,0.0,0.0,0.0,0.0,0.0,0.0,-1.3967,-1.5182,-1.643,0.0,0.0,0.0,0.0,0.0,0.0,0.0,0.0,0.0,0.0,-1.8408,-1.9527,-1.87,-1.9653,-2.0192,-1.9513,-1.9673,-2.0067,-2.0557,-2.0416,-2.0144,0.0,0.0,0.0,0.0,0.0,0.0,0.0,0.0,0.0,0.0,0.0,0.0,0.0,0.0,0.0,0.0,0.0,0.0,0.0,0.0,0.0,0.0,0.0,0.0,0.0,0.0,0.0,-1.8223,-1.8067,0.0,0.0,0.0,0.0,0.0,0.0,0.0,0.0,0.0,0.0,0.0,-1.994,-2.0258,0.0,0.0,0.0,0.0,0.0,0.0,0.0,0.0,0.0,0.0,0.0,0.0,-2.1911,-2.182,-2.2409,-2.2738,-2.2738,-2.2738,-2.2738,-2.2738,-2.2712,-2.2588,-2.2364,0.0,0.0,0.0,0.0,0.0,0.0,0.0,0.0,0.0,0.0,0.0,0.0,0.0,0.0,0.0,0.0,0.0,0.0,0.0,0.0,0.0,0.0,0.0,0.0,0.0,-1.6093,0.0,0.0,0.0,0.0,0.0,0.0,0.0,0.0,0.0,0.0,0.0,-1.7153,-1.7735,-1.8245,-1.8626,-1.8795,-1.9394,-1.9902,0.0,0.0,0.0,0.0,0.0,0.0,0.0,0.0,0.0,0.0,0.0,0.0,0.0,0.0,-1.5543,-1.4891,-1.5304,-1.5719,-1.5743,0.0,0.0,0.0,0.0,0.0,0.0,0.0,0.0,0.0,0.0,0.0,0.0,0.0,0.0,0.0,0.0,-1.9295,0.0,0.0,0.0,0.0,0.0,0.0,0.0,0.0,-2.0348,-2.0862,-2.0894,-2.0959,-2.1022,0.0,-2.1022,-2.0911,0.0,0.0,0.0,0.0,0.0,0.0,0.0,0.0,-2.1632,-2.1458,-2.2235,-2.2685,-2.2712,-2.2712,-2.2712,-2.2712,-2.279,-2.2677,-2.2392,-2.2358,-2.2079,0.0,0.0,0.0,0.0,0.0,0.0,0.0,0.0,0.0,0.0,0.0,0.0,0.0,0.0,0.0,0.0,0.0,0.0,0.0,0.0,0.0,0.0,0.0,-1.7492,0.0,0.0,0.0,0.0,0.0,0.0,0.0,0.0,0.0,-1.7461,-1.7585,-1.791,-1.8452,-1.8487,-1.8585,-1.8853,0.0,0.0,0.0,0.0,0.0,0.0,0.0,-1.9075,-1.8995,-1.9333,-1.958,-1.9641,-1.8773,-1.7934,-1.7493,0.0,0.0,-1.5855,-1.6235,-1.6659,-1.6574,-1.661,-1.6642,-1.6642,-1.7164,-1.765,0.0,0.0,0.0,0.0,0.0,0.0,0.0,0.0,-2.1735,-2.1451,0.0,-2.0942,0.0,0.0,0.0,0.0,0.0,0.0,0.0,0.0,-2.137,-2.1488,-2.1781,-2.1811,-2.184,-2.184,-2.184,-2.1857,-2.1811,-2.1241,0.0,0.0,0.0,0.0,0.0,0.0,-2.1341,-2.1093,-2.2068,-2.2649,-2.2712,-2.2712,-2.2712,-2.2738,-2.297,-2.2977,-2.2738,-2.2669,-2.2378,-2.1845,-2.1366,0.0,0.0,0.0,0.0,0.0,0.0,0.0,0.0,0.0,0.0,0.0,0.0,0.0,0.0,0.0,0.0,0.0,0.0,0.0,0.0,-1.7958,0.0,0.0,0.0,0.0,0.0,0.0,0.0,0.0,0.0,0.0,-1.7708,-1.8095,-1.8546,-1.8652,0.0,0.0,0.0,0.0,-2.0813,-1.9783,-2.0464,-2.0943,-2.0534,-2.0465,-2.0449,-2.0465,0.0,0.0,-2.0004,-1.9436,-1.8925,-1.8569,-1.8495,-1.8095,-1.7049,-1.7505,-1.7919,-1.7701,-1.7841,-1.8021,-1.7993,-1.7702,-1.7533,-2.452,0.0,0.0,0.0,0.0,-2.2768,-2.2705,-2.2629,-2.2549,-2.2476,-2.2373,-2.2135,0.0,0.0,0.0,0.0,0.0,0.0,-2.1152,-2.1379,-2.1747,-2.2034,-2.2164,-2.2409,-2.2598,-2.2782,-2.2598,-2.2588,-2.2703,-2.2375,-2.1919,-2.1399,0.0,0.0,0.0,0.0,-2.1864,-2.181,-2.2361,-2.2685,-2.2712,-2.2712,-2.2773,-2.2995,-2.307,-2.307,-2.2995,-2.3028,-2.273,-2.2175,-2.1903,0.0,0.0,0.0,0.0,0.0,0.0,0.0,0.0,0.0,0.0,0.0,0.0,0.0,0.0,0.0,0.0,0.0,0.0,0.0,-1.8156,-1.9037,-1.9681,0.0,0.0,0.0,0.0,0.0,0.0,0.0,0.0,0.0,-1.9092,-1.917,-1.9404,0.0,0.0,-1.8974,-1.9058,-1.9454,-1.9809,-1.9994,0.0,0.0,0.0,-2.0177,-1.9924,-2.0099,-2.0349,-2.0512,-2.0545,-2.0276,-2.0097,-2.0088,-2.0008,-1.9778,-1.9467,-1.9126,-1.8912,-1.8834,-1.8863,-1.8936,-1.8921,-1.8989,-1.9135,-2.6357,-2.5097,-2.4174,-2.4114,-2.4591,-2.4217,-2.4235,-2.4533,-2.4118,-2.393,-2.3885,-2.3232,-2.2763,-2.2428,-2.2146,0.0,0.0,0.0,-2.2061,-2.2213,-2.2581,-2.2797,-2.2822,-2.3025,-2.3188,-2.3348,-2.3188,-2.3188,-2.3283,-2.314,-2.2798,-2.2286,0.0,0.0,-2.1321,-2.1819,-2.1973,-2.1902,-2.2513,-2.2842,-2.285,-2.2917,-2.3067,-2.3212,-2.3324,-2.333,-2.3212,-2.3394,-2.3236,-2.2669,-2.2468,-2.2169,0.0,0.0,0.0,0.0,0.0,0.0,0.0,0.0,0.0,0.0,0.0,-1.7302,0.0,0.0,0.0,0.0,-1.8405,-1.9045,-1.9437,-2.0203,0.0,0.0,0.0,0.0,0.0,0.0,0.0,-1.9515,-1.9972,-2.0368,-2.0446,-2.0414,-2.0302,-2.0092,-1.9571,-1.9254,-1.9418,0.0,-2.0231,-2.0641,-2.0433,-2.0418,-2.0904,-2.0673,-2.0445,-2.0507,-2.0671,-2.0844,-2.0942,-2.0909,-2.0876,-2.0938,-2.0886,-2.0803,-2.0828,-2.0395,-2.0002,-1.9803,-1.9884,-1.9919,-1.9919,-2.0143,-2.033,-2.855,-2.7585,-2.5871,-2.5893,-2.7001,-2.6247,-2.6376,-2.7033,-2.6032,-2.5616,-2.556,-2.4421,-2.3685,-2.3287,-2.2834,0.0,-2.3151,-2.317,-2.3382,-2.3797,-2.3718,-2.3718,-2.37,-2.3646,-2.3628,-2.3649,-2.3628,-2.361,-2.3628,-2.3606,-2.3495,-2.3324,-2.2599,-2.1854,-2.1242,-2.1776,-2.1915,-2.1644,-2.2546,-2.302,-2.3095,-2.3289,-2.341,-2.3397,-2.3653,-2.3692,-2.3459,-2.3753,-2.3707,-2.3271,-2.3129,-2.2822,-2.2272,0.0,0.0,0.0,0.0,0.0,0.0,0.0,0.0,0.0,0.0,0.0,0.0,0.0,0.0,0.0,-1.9451,0.0,-2.0667,-2.137,0.0,0.0,0.0,-2.1388,-2.0763,-2.1055,-2.1214,-2.0958,0.0,0.0,-2.1568,0.0,-2.1187,-2.0083,-2.0064,-2.0109,-2.0003,-2.09,-2.1538,-2.1352,-2.1658,-2.1849,-2.1635,-2.1576,-2.1472,-2.1259,-2.1294,-2.1277,-2.1309,-2.1309,-2.1325,-2.1356,-2.1356,-2.134,-2.134,-2.1285,-2.1187,-2.0699,-2.0747,-2.0893,-2.0878,-2.0893,-2.0958,-3.0767,-3.0521,-2.9417,-2.8278,-2.717,-2.6959,-2.699,-2.7148,-2.6896,-2.6783,-2.6776,-2.6474,-2.585,-2.4949,-2.4202,-2.4115,-2.4515,-2.4496,-2.4853,-2.5368,-2.4798,-2.4554,-2.4581,-2.3981,-2.3774,-2.3976,-2.3774,-2.3753,-2.3896,-2.3692,-2.3584,-2.35,-2.3346,-2.2975,-2.247,-2.2608,-2.266,-2.2582,-2.2789,-2.2944,-2.297,-2.3206,-2.3422,-2.3544,-2.3816,-2.3917,-2.3876,-2.3976,-2.3896,-2.3602,-2.3606,-2.3482,-2.3212,-2.2229,0.0,0.0,0.0,0.0,0.0,0.0,0.0,0.0,0.0,-1.895,-1.8957,0.0,-1.9656,0.0,-2.0544,-2.1238,-2.1477,-2.1708,0.0,0.0,-2.1738,-2.1648,-2.1371,-2.145,-2.145,-2.123,-2.1417,-2.1493,-2.1402,-2.1507,-2.1458,-2.102,-2.1278,-2.1529,-2.1558,-2.1526,-2.1538,-2.1386,-2.1433,-2.1584,-2.1924,-2.1965,-2.1807,-2.1371,-2.1325,-2.1356,-2.1481,-2.1511,-2.1573,-2.1648,-2.1678,-2.1678,-2.1678,-2.1688,-2.1625,-2.1507,-2.1355,-2.1214,-2.1214,-2.1214,-2.1214,-3.2486,-3.2184,-3.1684,-3.0823,-2.9732,-2.8932,-2.8565,-2.8487,-2.8127,-2.7966,-2.7915,-2.7519,-2.6938,-2.6298,-2.5829,-2.58,-2.6061,-2.606,-2.6265,-2.6597,-2.6154,-2.5986,-2.6005,-2.5503,-2.5337,-2.5468,-2.5259,-2.5199,-2.5335,-2.5181,-2.5061,-2.4981,-2.4634,-2.4263,-2.3904,-2.3382,-2.3185,-2.3424,-2.3195,-2.3157,-2.3394,-2.3535,-2.371,-2.3901,-2.4057,-2.4115,-2.4134,-2.419,-2.4133,-2.3896,-2.3919,-2.384,-2.3613,-2.2393,-2.1401,0.0,0.0,0.0,0.0,0.0,0.0,0.0,0.0,0.0,0.0,0.0,-2.0447,0.0,-2.1323,-2.1794,-2.1853,-2.2032,-2.2175,-2.2248,-2.2248,-2.2209,-2.2124,-2.2136,-2.2051,-2.189,-2.1977,-2.2005,-2.1969,-2.2084,-2.2141,-2.2096,-2.2337,-2.2292,-2.1866,-2.1748,-2.1777,-2.1584,-2.1721,-2.1915,-2.2243,-2.2198,-2.201,-2.1735,-2.1645,-2.1645,-2.1678,-2.1694,-2.1724,-2.1781,-2.1781,-2.1781,-2.1781,-2.1781,-2.1781,-2.1768,-2.1678,-2.1556,-2.1526,-2.1526,-2.1509,-3.393,-3.3349,-3.336,-3.3216,-3.2916,-3.1431,-3.0669,-3.0322,-2.9464,-2.9088,-2.9006,-2.8109,-2.7594,-2.743,-2.7386,-2.7447,-2.758,-2.7611,-2.7641,-2.7727,-2.7616,-2.7566,-2.7566,-2.7352,-2.7274,-2.7334,-2.7082,-2.7028,-2.7158,-2.7065,-2.6935,-2.6727,-2.6041,-2.5649,-2.5502,-2.4334,-2.3856,-2.4059,-2.3737,-2.3737,-2.4142,-2.42,-2.428,-2.4432,-2.4376,-2.4358,-2.4339,-2.4393,-2.4358,-2.4172,-2.4173,-2.4097,-2.3883,-2.1727,-2.1521,0.0,-2.185,0.0,0.0,0.0,0.0,0.0,0.0,0.0,0.0,-2.0975,-2.1071,-2.131,-2.1991,-2.2281,-2.2046,-2.2398,-2.2676,-2.2798,-2.2799,-2.279,-2.2805,-2.2805,-2.2746,-2.2626,-2.2643,-2.2704,-2.273,-2.2799,-2.2893,-2.2902,-2.2902,-2.2571,-2.1751,-2.1928,-2.2141,-2.1998,-2.2287,-2.247,-2.2415,-2.2298,-2.2198,-2.2153,-2.2141,-2.2084,-2.1945,-2.1899,-2.1915,-2.1915,-2.1919,-2.1906,-2.1857,-2.1857,-2.1844,-2.1811,-2.1781,-2.1781,-2.1751,-2.1751,-2.1781,-3.523,-3.519,-3.5203,-3.4371,-3.3122,-3.346,-3.2764,-3.1353,-3.0439,-2.9994,-2.9898,-2.9088,-2.8701,-2.8606,-2.7992,-2.8046,-2.8622,-2.8605,-2.8899,-2.941,-2.8757,-2.8461,-2.8404,-2.7755,-2.7733,-2.8192,-2.7552,-2.7505,-2.8035,-2.7382,-2.7064,-2.7028,-2.6879,-2.699,-2.7327,0.0,0.0,0.0,-2.4526,-2.4866,-2.4967,-2.5129,-2.5226,-2.5263,-2.4797,0.0,-2.453,-2.4566,-2.4549,-2.4515,-2.4497,0.0,0.0,0.0,0.0,0.0,0.0,0.0,0.0,0.0,0.0,0.0,-2.3379,-2.2395,-2.1135,-2.1472,-2.2153,-2.3009,-2.2907,-2.2746,-2.2626,-2.2695,-2.2782,-2.2798,-2.2816,-2.2805,-2.2797,-2.281,-2.2797,-2.2754,-2.2958,-2.2975,-2.2764,-2.2816,-2.2868,-2.2746,-2.2605,-2.2515,-2.2304,-2.2466,-2.2586,-2.2443,-2.2552,-2.2588,-2.2243,-2.2463,-2.2561,-2.248,-2.2443,-2.2415,-2.2343,-2.2332,-2.236,-2.2332,-2.2365,-2.2287,-2.2106,-2.2041,-2.2003,-2.1932,-2.1899,-2.1869,-2.1811,-2.1797,-2.1827,-3.63,0.0,-3.5989,-3.5291,0.0,-3.447,-3.3957,-3.3056,-3.2058,-3.1615,-3.1557,-3.1161,-3.0976,-3.0964,-3.0506,-3.0525,-3.0883,-3.0871,-3.104,-3.135,-3.0958,-3.0786,-3.08,-3.0314,-3.0179,-3.0457,-2.9952,-2.9887,-3.0149,-2.9756,-2.9363,-2.8989,-2.8989,-2.8708,-2.8146,-2.7345,-2.6338,-2.5132,-2.4766,-2.4807,-2.5312,-2.5059,-2.4968,-2.5021,0.0,0.0,0.0,0.0,0.0,0.0,0.0,0.0,0.0,0.0,0.0,-2.5927,-2.5514,-2.5159,-2.4998,-2.5118,-2.5112,-2.4759,-2.4681,-2.4076,-2.2733,-2.3277,-2.3895,-2.4403,-2.3998,-2.3693,-2.3682,-2.3424,-2.3253,-2.3265,-2.3307,-2.3287,-2.3302,-2.3293,-2.3277,-2.3265,-2.3353,-2.3472,-2.3626,-2.332,-2.327,-2.3423,-2.3094,-2.279,-2.279,-2.271,-2.2613,-2.2515,-2.248,-2.25,-2.249,-2.2588,-2.2738,-2.2659,-2.2659,-2.2605,-2.2497,-2.2487,-2.2487,-2.2487,-2.2513,-2.2474,-2.2371,-2.2271,-2.2166,-2.213,-2.2039,-2.194,-2.1911,-2.1882,-2.1911,-3.7423,-3.7553,-3.6538,-3.6126,-3.6051,-3.5122,-3.4873,-3.4959,0.0,0.0,0.0,-3.3029,-3.3017,-3.2984,-3.2956,-3.2928,-3.2904,-3.2897,-3.2897,-3.2904,-3.291,-3.2954,-3.2998,-3.2833,-3.2781,-3.2778,-3.2457,-3.2353,-3.2409,-3.2276,-3.1882,-3.1261,-3.1073,-3.019,-2.8705,-2.7857,-2.7342,-2.7001,-2.5519,-2.519,-2.6042,-2.5428,-2.5181,-2.5335,-2.5185,-2.5429,-2.6049,-2.607,-2.6051,-2.6088,-2.6743,-2.6782,-2.6129,-2.6525,-2.7137,-2.7828,-2.7221,-2.6762,-2.6643,-2.6731,-2.6352,-2.5339,-2.5906,-2.5929,-2.5014,-2.5253,-2.5517,-2.5659,-2.5009,-2.4599,-2.464,-2.4082,-2.3739,-2.3813,-2.3795,-2.3795,-2.3795,-2.3795,-2.3753,-2.3725,-2.3721,-2.3934,-2.4354,-2.3809,-2.3573,-2.4027,-2.3552,-2.3126,-2.3052,-2.2842,-2.2649,-2.2569,-2.2535,-2.2483,-2.2668,-2.279,-2.2764,-2.279,-2.2799,-2.279,-2.2676,-2.2623,-2.2605,-2.2632,-2.2623,-2.2659,-2.2643,-2.2535,-2.2411,-2.2412,-2.2209,-2.2044,-2.2056,-2.2073,-2.2044,-3.8727,-3.9292,-3.7695,-3.7021,-3.6953,-3.6071,-3.6132,-3.6625,-3.4236,-3.3145,-3.3089,-3.3091,-3.3045,-3.2984,-3.3057,-3.3025,-3.291,-3.2897,-3.2897,0.0,-3.2954,-3.2998,-3.2979,-3.3026,-3.3326,-3.3791,-3.3152,-3.3101,-3.3519,-3.2961,-3.2559,-3.2362,-3.1577,-3.0639,-2.9639,-2.885,-2.8852,-2.9535,-2.8578,-2.8127,-2.8339,-2.8217,-2.8164,-2.8092,-2.7411,-2.7127,-2.7244,-2.7145,-2.7097,-2.7097,-2.7146,-2.7131,-2.7018,-2.7097,-2.719,-2.7321,-2.7737,-2.7957,-2.7937,-2.8408,-2.8378,-2.7675,-2.8224,-2.8263,-2.746,-2.6365,-2.6025,-2.6631,-2.5703,-2.4924,-2.491,-2.4259,-2.3828,-2.3813,-2.3795,-2.3795,-2.3813,-2.385,-2.3831,-2.3792,-2.3774,-2.3822,-2.4006,-2.3817,-2.3669,-2.3579,-2.3472,-2.3247,-2.3249,-2.307,-2.2936,-2.2816,-2.2885,-2.2842,-2.2712,-2.2825,-2.2944,-2.2799,-2.2927,-2.302,-2.2977,-2.297,-2.2952,-2.3003,-2.3047,-2.309,-2.2977,-2.283,-2.2712,-2.2608,-2.2398,-2.2209,-2.222,-2.2237,-2.2237,-3.9442,-3.9637,-3.8428,-3.7912,-3.7868,-3.7459,-3.7522,-3.7806,-3.6653,-3.6094,-3.5963,-3.5516,-3.5507,-3.5838,-3.4909,-3.4687,-3.5056,-3.4539,-3.4307,-3.4314,-3.4353,-3.4359,-3.4403,-3.445,-3.4588,-3.4782,-3.4449,-3.4361,-3.4499,-3.4173,-3.3772,-3.3295,-3.1984,-3.1077,-3.0655,-2.9913,-2.9748,-3.0215,-2.8862,-2.8383,-2.8836,-2.8395,-2.8145,-2.8108,-2.7709,-2.7721,-2.8139,-2.8074,-2.8058,-2.8058,-2.8445,-2.8449,-2.7985,-2.7966,-2.812,-2.8481,-2.7959,-2.7848,-2.8278,-2.8539,-2.8799,-2.8911,-2.9128,-2.9107,-2.8759,-2.8031,-2.7747,-2.8075,-2.72,-2.6423,-2.5962,-2.5132,-2.4447,-2.4,-2.385,-2.3795,-2.385,-2.4212,-2.4266,-2.3958,-2.4592,-2.5077,-2.505,-2.4644,-2.4523,-2.4635,-2.4076,-2.3572,-2.4239,-2.3636,-2.307,-2.2987,-2.3045,-2.302,-2.2868,-2.2952,-2.3028,-2.297,-2.3045,-2.3095,-2.3119,-2.3119,-2.3095,-2.3119,-2.3207,-2.3298,-2.3234,-2.3152,-2.3024,-2.289,-2.2642,-2.2487,-2.2366,-2.2327,-2.2299,-4.0268,-4.0034,-3.9136,-3.8687,-3.8531,-3.8726,-3.8785,-3.8821,-3.9039,-3.913,-3.8939,-3.7927,-3.7784,-3.8176,-3.6852,-3.6447,-3.6733,-3.6311,-3.5968,-3.5809,-3.6003,-3.6119,-3.6144,-3.6006,-3.5828,-3.5708,-3.556,-3.5391,-3.5243,-3.5242,-3.4799,-3.3911,-3.2486,-3.1661,-3.1437,-3.0637,-3.0306,-3.0365,-2.909,-2.8664,-2.9228,-2.8618,-2.8265,-2.823,-2.8177,-2.8446,-2.9041,-2.903,-2.9034,-2.9053,-2.9611,-2.9639,-2.8971,-2.8881,-2.913,-2.9531,-2.8499,-2.803,-2.8613,-2.8688,-2.8988,-2.9626,-2.955,-2.9471,-2.9453,-2.9314,-2.9209,-2.9034,-2.8365,-2.7664,-2.7013,-2.6178,-2.5379,-2.4782,-2.4577,-2.4598,-2.4559,-2.5032,-2.5193,-2.4738,-2.5532,-2.6236,-2.6141,-2.5651,-2.5352,-2.5384,-2.451,-2.4211,-2.4994,-2.4088,-2.3298,-2.3344,-2.3249,-2.307,-2.307,-2.307,-2.307,-2.307,-2.307,-2.307,-2.3045,-2.302,-2.2995,-2.297,-2.3072,-2.3197,-2.336,-2.3315,-2.3239,-2.3146,-2.296,-2.2712,-2.246,-2.2338,-2.2327,-4.1654,-4.0893,-4.0034,-3.9253,-3.8746,-3.937,-3.9683,-3.978,-4.0522,-4.0854,-4.0616,-3.9192,-3.8424,-3.8296,-3.8102,-3.7568,-3.6889,-3.745,-3.7348,-3.6812,-3.7488,-3.7881,-3.7783,-3.7131,-3.6756,-3.6667,-3.6049,-3.5709,-3.5685,-3.5628,-3.514,-3.4186,-3.3291,-3.2405,-3.1607,-3.0797,-3.0453,-3.0567,-3.0482,-3.0431,-3.0419,-3.036,-3.0265,-3.0141,-3.0117,-3.0167,-3.0189,-3.0113,-3.0054,-3.006,-3.0061,-2.9977,-2.9791,-2.9727,-2.9732,-2.979,-2.955,-2.9514,-2.9551,-2.9589,-2.9607,-2.9683,-2.9739,-2.9701,-2.9683,-2.9683,-2.9492,-2.9122,-2.8445,-2.8054,-2.784,-2.7126,-2.6594,-2.6391,-2.6351,-2.652,-2.6409,-2.6576,-2.6593,-2.6556,-2.6502,-2.649,-2.6542,-2.6322,-2.5887,-2.5514,-2.4928,-2.4724,-2.5147,-2.4219,-2.3768,-2.4027,-2.3717,-2.3105,-2.2927,-2.2995,-2.3045,-2.2902,-2.2977,-2.3045,-2.2987,-2.2868,-2.279,-2.2877,-2.2808,-2.302,-2.3168,-2.3186,-2.3245,-2.3348,-2.3206,-2.2985,-2.2738,-2.2487,-2.2366,-4.142,-4.1088,-4.0717,-4.0385,-4.0151,-4.0444,-4.0581,-4.062,-4.0952,-4.1108,-4.103,-4.0366,-4.002,-3.9886,-3.8811,-3.8318,-3.8399,-3.813,-3.7863,-3.7596,-3.7932,-3.8144,-3.815,-3.7878,-3.7657,-3.758,-3.6806,-3.6419,-3.6323,-3.5927,-3.5253,-3.4447,-3.4023,-3.3209,-3.1942,-3.1504,-3.1138,-3.069,-3.0691,-3.0695,-3.0695,-3.0645,-3.0575,-3.0521,-3.0482,-3.0472,-3.0471,-3.0348,-3.0314,-3.0333,-3.029,-3.0222,-3.0085,-3.0099,-3.0071,-2.9984,-2.9984,-2.9965,-2.9934,-2.9934,-2.9934,-2.9953,-3.0424,-3.0519,-3.0029,-3.0405,-3.0433,-2.9767,-2.9251,-2.8818,-2.8333,-2.7846,-2.7475,-2.7102,-2.6897,-2.6839,-2.6916,-2.7285,-2.7352,-2.6927,-2.753,-2.784,-2.7488,-2.7313,-2.7116,-2.6611,-2.5869,-2.5556,-2.6666,-2.5248,-2.4401,-2.5077,-2.4437,-2.3494,-2.3109,-2.3028,-2.3052,-2.3028,-2.3102,-2.3144,-2.3098,-2.2962,-2.292,-2.2919,-2.2937,-2.308,-2.3378,-2.3476,-2.3522,-2.3531,-2.3301,-2.306,-2.2943,-2.2721,-2.2579,-4.1303,-4.1127,-4.1108,-4.1108,-4.1108,-4.1108,-4.1108,-4.1108,-4.1108,-4.1108,-4.1108,-4.1108,-4.1108,-4.0893,-3.9624,-3.9287,-3.9489,-3.9013,-3.8662,-3.8569,-3.873,-3.8917,-3.8916,-3.867,-3.8574,-3.8431,-3.7677,-3.727,-3.7185,-3.6463,-3.5747,-3.5238,-3.4753,-3.3899,-3.2788,-3.2302,-3.1812,-3.1417,-3.0992,-3.0862,-3.1063,-3.0823,-3.0642,-3.0639,-3.0831,-3.0912,-3.0866,-3.083,-3.0801,-3.081,-3.0598,-3.0381,-3.0273,-3.0271,-3.0234,-3.0161,-3.0155,-3.0182,-3.0122,-3.0103,-3.0089,-3.0147,-3.0701,-3.0777,-3.0371,-3.0729,-3.0767,-3.0195,-2.9934,-2.9538,-2.9002,-2.8778,-2.8491,-2.8055,-2.7821,-2.7751,-2.7928,-2.8315,-2.839,-2.7904,-2.8671,-2.9093,-2.8547,-2.8339,-2.8257,-2.7783,-2.6896,-2.6491,-2.7845,-2.6256,-2.4866,-2.6023,-2.4967,-2.3871,-2.3422,-2.3353,-2.3307,-2.3253,-2.3324,-2.336,-2.3281,-2.308,-2.2927,-2.2851,-2.3015,-2.315,-2.3283,-2.3486,-2.371,-2.3598,-2.3417,-2.3236,-2.3188,-2.2985,-2.285,-4.1849,-4.1147,-4.1108,-4.1108,-4.1108,-4.1108,-4.1108,-4.1108,-4.1108,-4.1108,-4.1108,-4.1108,-4.1108,-4.1088,-4.0815,-4.0398,-3.98,-4.0269,-4.014,-3.9644,-4.0294,-4.0739,-4.0713,-3.9946,-3.9502,-3.9379,-3.8586,-3.8172,-3.8128,-3.7374,-3.6978,-3.6876,-3.541,-3.4497,-3.4089,-3.2827,-3.2421,-3.2824,-3.1621,-3.1222,-3.1808,-3.1217,-3.0758,-3.0882,-3.1485,-3.1838,-3.1817,-3.1841,-3.1829,-3.1835,-3.1118,-3.0617,-3.0441,-3.0359,-3.0271,-3.0228,-3.0203,-3.0215,-3.0196,-3.0163,-3.0117,-3.0122,-3.0303,-3.0199,-3.0188,-3.0427,-3.0459,-3.0122,-3.0228,-3.015,-2.9969,-2.9821,-2.9837,-2.9794,-2.9836,-2.9785,-2.987,-2.9717,-2.9971,-2.9775,-2.9744,-2.9636,-2.9344,-2.9323,-2.8907,-2.8368,-2.7935,-2.7993,-2.7902,-2.6655,-2.593,-2.5961,-2.5277,-2.404,-2.3903,-2.372,-2.3674,-2.3588,-2.354,-2.3558,-2.323,-2.2995,-2.2884,-2.279,-2.2859,-2.3003,-2.3157,-2.3353,-2.358,-2.3642,-2.3664,-2.3558,-2.358,-2.3301,-2.3263,-4.14,-4.1108,-4.1108,-4.1108,-4.1108,-4.1108,-4.1108,-4.1108,-4.1108,-4.1108,-4.1108,-4.1108,-4.1108,-4.1108,-4.1069,-4.0842,-4.0532,-4.0711,-4.066,-4.0471,-4.0752,-4.0937,-4.0915,-4.0621,-4.0481,-4.0326,-3.9579,-3.8868,-3.836,-3.7986,-3.756,-3.71,-3.6518,-3.5663,-3.4595,-3.3915,-3.3541,-3.3187,-3.2135,-3.1996,-3.2645,-3.1504,-3.1265,-3.2265,-3.2162,-3.2055,-3.2038,-3.2518,-3.2792,-3.2796,-3.2485,-3.2025,-3.14,-3.0791,-3.0482,-3.0511,-3.0521,-3.0501,-3.0451,-3.0441,-3.043,-3.0466,-3.0918,-3.0918,-3.064,-3.0912,-3.1047,-3.0574,-3.0439,-3.0466,-3.039,-3.0222,-3.0131,-3.0196,-3.0157,-3.0144,-3.0184,-3.0157,-3.0089,-3.0075,-3.0066,-2.9973,-2.9877,-2.9826,-2.9691,-2.9383,-2.8914,-2.8846,-2.8875,-2.7504,-2.6359,-2.6615,-2.5724,-2.4554,-2.4442,-2.4061,-2.3864,-2.3842,-2.3819,-2.3873,-2.37,-2.345,-2.3346,-2.3414,-2.3282,-2.3253,-2.3544,-2.3735,-2.3899,-2.3939,-2.3958,-2.3917,-2.4018,-2.3815,-2.4006,-4.1518,-4.1521,-4.1521,-4.1521,-4.1479,-4.1205,-4.1108,-4.1108,-4.1108,-4.1244,-4.1479,-4.1518,-4.1518,-4.1576,-4.1794,-4.1741,-4.1418,-4.1078,-4.0916,-4.1003,-4.1253,-4.1384,-4.1457,-4.171,-4.1683,-4.1304,-4.0497,-3.9758,-3.9232,-3.8866,-3.8433,-3.7974,-3.743,-3.6556,-3.543,-3.4808,-3.4307,-3.3939,-3.3018,-3.2836,-3.3404,-3.2338,-3.2124,-3.3078,-3.3028,-3.2912,-3.2906,-3.3433,-3.3561,-3.3332,-3.3041,-3.2481,-3.1588,-3.123,-3.0928,-3.0758,-3.0964,-3.0928,-3.0643,-3.0606,-3.0597,-3.0617,-3.1043,-3.1159,-3.0694,-3.1101,-3.1081,-3.0733,-3.0617,-3.0617,-3.0569,-3.0406,-3.0316,-3.0371,-3.0316,-3.0297,-3.0378,-3.0321,-3.0285,-3.0273,-3.0273,-3.0248,-3.019,-3.0177,-3.0118,-3.0094,-2.9608,-2.9584,-2.9677,-2.8606,-2.7343,-2.766,-2.6768,-2.5806,-2.554,-2.534,-2.458,-2.4393,-2.4208,-2.4245,-2.4147,-2.3917,-2.3824,-2.3925,-2.3943,-2.3903,-2.3963,-2.4154,-2.4248,-2.4303,-2.4229,-2.4135,-2.4281,-2.4443,-2.4613,-4.2415,-4.2399,-4.2419,-4.2399,-4.2301,-4.156,-4.1166,-4.1225,-4.1127,-4.1537,-4.2162,-4.2279,-4.2162,-4.2474,-4.2926,-4.306,-4.2256,-4.1635,-4.1361,-4.1413,-4.2064,-4.2363,-4.2363,-4.288,-4.2715,-4.1968,-4.1244,-4.0859,-4.068,-3.9971,-3.9567,-3.9296,-3.8013,-3.7294,-3.7042,-3.5585,-3.5084,-3.5262,-3.416,-3.3745,-3.4378,-3.3618,-3.3223,-3.3515,-3.4075,-3.4413,-3.451,-3.4529,-3.4146,-3.3398,-3.2652,-3.17,-3.1363,-3.1627,-3.1627,-3.1041,-3.146,-3.1416,-3.0798,-3.0713,-3.0762,-3.0907,-3.0772,-3.0984,-3.1004,-3.0868,-3.081,-3.0772,-3.0656,-3.0617,-3.0617,-3.0579,-3.0569,-3.0569,-3.0559,-3.0569,-3.0579,-3.0588,-3.0588,-3.0579,-3.054,-3.051,-3.0378,-3.0306,-3.0278,-3.019,-3.0081,-3.0043,-3.0081,-2.9205,-2.8894,-2.8677,-2.7842,-2.6842,-2.6746,-2.6669,-2.5759,-2.5039,-2.478,-2.4651,-2.4506,-2.4318,-2.4135,-2.4174,-2.4192,-2.4154,-2.4173,-2.4339,-2.4338,-2.4393,-2.4357,-2.445,-2.4746,-2.4968,-2.5133,-4.3274,-4.3294,-4.3294,-4.3297,-4.318,-4.236,-4.2009,-4.1931,-4.1381,-4.1596,-4.2181,-4.1771,-4.183,-4.2357,-4.2708,-4.2689,-4.2432,-4.2689,-4.289,-4.296,-4.3183,-4.3281,-4.3242,-4.2949,-4.2334,-4.1592,-4.1197,-4.1019,-4.0942,-4.0641,-4.0276,-3.9665,-3.915,-3.8557,-3.7955,-3.6906,-3.6487,-3.6476,-3.4999,-3.4559,-3.5208,-3.4029,-3.3854,-3.4858,-3.4738,-3.4789,-3.5363,-3.4855,-3.4416,-3.4109,-3.3876,-3.3577,-3.3316,-3.2998,-3.2427,-3.1673,-3.1743,-3.1823,-3.1564,-3.1516,-3.1739,-3.2145,-3.23,-3.2319,-3.2232,-3.1739,-3.1429,-3.1342,-3.0955,-3.0617,-3.0617,-3.0617,-3.0636,-3.0617,-3.0617,-3.0617,-3.0617,-3.0617,-3.0617,-3.0617,-3.0617,-3.0559,-3.052,-3.051,-3.0481,-3.0451,-3.0439,-3.0419,-3.0306,-2.9725,-2.9145,-2.8994,-2.8272,-2.7812,-2.7574,-2.7475,-2.7009,-2.6201,-2.5739,-2.522,-2.5004,-2.4783,-2.4579,-2.443,-2.443,-2.4448,-2.4484,-2.4482,-2.4498,-2.453,-2.4545,-2.486,-2.529,-2.5424,-2.5391,-4.4192,-4.4192,-4.4172,-4.4172,-4.4039,-4.2942,-4.2591,-4.2731,-4.1967,-4.2259,-4.3079,-4.2825,-4.263,-4.3001,-4.3548,-4.345,-4.3076,-4.4094,-4.4667,-4.4583,-4.4277,-4.4199,-4.4062,-4.3281,-4.2871,-4.25,-4.1894,-4.1543,-4.1509,-4.1383,-4.0975,-4.0296,-3.9869,-3.9431,-3.879,-3.7722,-3.712,-3.6878,-3.5732,-3.5238,-3.5443,-3.4745,-3.4686,-3.5521,-3.5212,-3.5242,-3.5678,-3.495,-3.4492,-3.4356,-3.3929,-3.3669,-3.3913,-3.3438,-3.2809,-3.223,-3.2434,-3.2608,-3.2038,-3.2145,-3.2532,-3.3015,-3.3102,-3.3093,-3.3006,-3.2503,-3.2222,-3.1758,-3.1381,-3.0926,-3.0694,-3.0926,-3.1023,-3.1062,-3.0772,-3.0636,-3.0617,-3.0617,-3.0617,-3.0617,-3.0617,-3.0617,-3.0617,-3.0617,-3.0617,-3.0617,-3.0617,-3.0617,-3.052,-3.0163,-2.9844,-2.9621,-2.9399,-2.8882,-2.8286,-2.8177,-2.8173,-2.7511,-2.6834,-2.6166,-2.5651,-2.537,-2.5145,-2.4866,-2.4773,-2.4774,-2.481,-2.4673,-2.4631,-2.4676,-2.482,-2.507,-2.5356,-2.5209,-2.5307,-4.507,-4.507,-4.507,-4.507,-4.4875,-4.3368,-4.3138,-4.3548,-4.2845,-4.3352,-4.4621,-4.4504,-4.4289,-4.4211,-4.509,-4.4894,-4.4192,-4.5324,-4.5916,-4.5751,-4.5349,-4.5019,-4.4766,-4.4101,-4.3984,-4.416,-4.3047,-4.2461,-4.2441,-4.2181,-4.182,-4.1053,-4.0276,-3.9791,-3.948,-3.8082,-3.7432,-3.7356,-3.6405,-3.5863,-3.5844,-3.565,-3.5611,-3.5708,-3.5641,-3.5621,-3.5563,-3.5059,-3.4594,-3.4323,-3.3197,-3.2926,-3.3285,-3.3363,-3.3131,-3.2396,-3.3577,-3.3355,-3.2561,-3.2803,-3.3286,-3.3499,-3.3538,-3.3247,-3.3451,-3.3335,-3.2938,-3.231,-3.201,-3.1603,-3.1197,-3.1468,-3.1845,-3.1777,-3.1255,-3.083,-3.0617,-3.0656,-3.0752,-3.0675,-3.0617,-3.0656,-3.0656,-3.0617,-3.0617,-3.0617,-3.0617,-3.0617,-3.0598,-3.0482,-3.0559,-3.0395,-3.0105,-2.9844,-2.9209,-2.9039,-2.903,-2.8707,-2.802,-2.7358,-2.6558,-2.6182,-2.592,-2.5602,-2.5412,-2.534,-2.5321,-2.5373,-2.5164,-2.5086,-2.5214,-2.5308,-2.544,-2.5501,-2.5836,-4.5968,-4.5968,-4.5968,-4.5968,-4.5831,-4.4758,-4.4406,-4.4524,-4.3723,-4.3977,-4.4738,-4.4309,-4.4348,-4.468,-4.509,-4.4719,-4.4387,-4.55,-4.5909,-4.5503,-4.5841,-4.5541,-4.5117,-4.4766,-4.4433,-4.4101,-4.3672,-4.3359,-4.3301,-4.2666,-4.2138,-4.1858,-4.0897,-4.0479,-4.0305,-3.9374,-3.8986,-3.8704,-3.7405,-3.6639,-3.6532,-3.5969,-3.5718,-3.5698,-3.5658,-3.5629,-3.5629,-3.5474,-3.5068,-3.4536,-3.4129,-3.4187,-3.4817,-3.4885,-3.4449,-3.3877,-3.4051,-3.4264,-3.3877,-3.3905,-3.4311,-3.4949,-3.4853,-3.5027,-3.4999,-3.4408,-3.4002,-3.3585,-3.3179,-3.2657,-3.2483,-3.2599,-3.2754,-3.2667,-3.2068,-3.1333,-3.0868,-3.112,-3.1275,-3.0772,-3.112,-3.112,-3.0752,-3.0675,-3.0656,-3.0636,-3.0617,-3.0617,-3.0617,-3.0617,-3.0617,-3.0617,-3.0453,-3.0385,-3.0218,-3.0017,-2.988,-2.9736,-2.926,-2.8739,-2.7916,-2.7259,-2.6981,-2.6701,-2.6645,-2.657,-2.6591,-2.6645,-2.6249,-2.5684,-2.5756,-2.5944,-2.6247,-2.6435,-2.6803,-4.63,-4.63,-4.63,-4.63,-4.6183,-4.5363,-4.5207,-4.5343,-4.466,-4.4504,-4.4875,-4.4894,-4.466,-4.4524,-4.5187,-4.507,-4.4524,-4.5675,-4.5987,-4.5734,-4.6066,-4.5985,-4.5566,-4.5254,-4.4902,-4.4785,-4.4394,-4.4023,-4.3636,-4.3091,-4.2474,-4.1653,-4.1098,-4.0807,-4.069,-4.0012,-3.9583,-3.9223,-3.7876,-3.6955,-3.6856,-3.6091,-3.5731,-3.5654,-3.5623,-3.5612,-3.5604,-3.5635,-3.5289,-3.4642,-3.4478,-3.4836,-3.5542,-3.531,-3.4902,-3.4417,-3.4717,-3.4833,-3.4543,-3.4717,-3.5162,-3.5568,-3.5704,-3.5704,-3.5588,-3.5182,-3.4891,-3.4328,-3.3895,-3.3508,-3.3237,-3.3392,-3.3604,-3.3596,-3.3189,-3.2377,-3.1255,-3.1507,-3.1642,-3.1487,-3.1526,-3.1507,-3.0752,-3.0907,-3.0888,-3.0714,-3.0617,-3.0617,-3.0617,-3.0617,-3.0617,-3.0617,-3.0588,-3.0501,-3.0384,-3.0227,-3.0098,-3.0018,-2.9918,-2.9529,-2.8982,-2.8209,-2.7853,-2.7633,-2.774,-2.7765,-2.7648,-2.7424,-2.6925,-2.6549,-2.6529,-2.6731,-2.7125,-2.7073,-2.7516,-4.63,-4.63,-4.63,-4.63,-4.6183,-4.55,-4.5597,-4.6027,-4.546,-4.5148,-4.5285,-4.5851,-4.5148,-4.3957,-4.5304,-4.5597,-4.4855,-4.5792,-4.6202,-4.6144,-4.6167,-4.6022,-4.6094,-4.5566,-4.5586,-4.5859,-4.543,-4.4787,-4.4247,-4.3895,-4.2916,-4.1981,-4.1346,-4.097,-4.0901,-4.0203,-3.9735,-3.9468,-3.8284,-3.7371,-3.7044,-3.6337,-3.5835,-3.5584,-3.5584,-3.5596,-3.5608,-3.5581,-3.5295,-3.4583,-3.4534,-3.4999,-3.556,-3.4911,-3.464,-3.4717,-3.5182,-3.5278,-3.4814,-3.5259,-3.5626,-3.5704,-3.5723,-3.5723,-3.5704,-3.5588,-3.5317,-3.4754,-3.4533,-3.4223,-3.3856,-3.4135,-3.4455,-3.4524,-3.4466,-3.3712,-3.2551,-3.2068,-3.2164,-3.2358,-3.2164,-3.1739,-3.1333,-3.1352,-3.17,-3.1623,-3.1391,-3.1294,-3.1178,-3.1043,-3.0849,-3.0617,-3.0579,-3.052,-3.0422,-3.0325,-3.0222,-3.0151,-3.0119,-2.9884,-2.9587,-2.9,-2.8624,-2.8455,-2.87,-2.8578,-2.8252,-2.7925,-2.7643,-2.7457,-2.7481,-2.7827,-2.8118,-2.771,-2.7821,-4.63,-4.63,-4.63,-4.63,-4.6261,-4.6085,-4.6105,-4.6261,-4.6105,-4.5909,-4.589,-4.5539,-4.507,-4.466,-4.5051,-4.4797,-4.4406,-4.5558,-4.628,-4.6222,-4.5539,-4.5757,-4.6119,-4.6009,-4.611,-4.6229,-4.613,-4.5819,-4.544,-4.468,-4.4325,-4.3673,-4.2254,-4.1725,-4.157,-4.0887,-4.0456,-4.0256,-3.9335,-3.8402,-3.7642,-3.6883,-3.6151,-3.5624,-3.5528,-3.556,-3.5604,-3.5604,-3.5519,-3.5396,-3.5383,-3.5454,-3.5588,-3.5491,-3.5336,-3.5356,-3.5491,-3.5607,-3.5491,-3.5549,-3.5704,-3.5742,-3.5745,-3.5742,-3.5839,-3.5753,-3.5657,-3.5472,-3.5452,-3.5222,-3.5027,-3.524,-3.5336,-3.5298,-3.5298,-3.4949,-3.4098,-3.379,-3.348,-3.3131,-3.3363,-3.3499,-3.2667,-3.259,-3.2667,-3.2541,-3.2367,-3.2184,-3.1913,-3.1584,-3.1391,-3.1178,-3.111,-3.1178,-3.1051,-3.0912,-3.0664,-3.0482,-3.0374,-3.0259,-2.9975,-2.9829,-2.9447,-2.9487,-2.9737,-2.9456,-2.9006,-2.916,-2.9049,-2.8749,-2.8434,-2.8628,-2.8695,-2.8317,-2.8303,-4.6297,-4.63,-4.6267,-4.6273,-4.6303,-4.629,-4.63,-4.63,-4.63,-4.6066,-4.5675,-4.5168,-4.4777,-4.4445,-4.4797,-4.4719,-4.4699,-4.5617,-4.6046,-4.5792,-4.5558,-4.5909,-4.6163,-4.6284,-4.6267,-4.6225,-4.6197,-4.5968,-4.5422,-4.4982,-4.4395,-4.4018,-4.2999,-4.2323,-4.1994,-4.1465,-4.1026,-4.0511,-3.9802,-3.8926,-3.8064,-3.7203,-3.6363,-3.5719,-3.5558,-3.5593,-3.5698,-3.5689,-3.5699,-3.5708,-3.5718,-3.5718,-3.5665,-3.5684,-3.5704,-3.5704,-3.5704,-3.5704,-3.5704,-3.5704,-3.5704,-3.5745,-3.5737,-3.5776,-3.5815,-3.5766,-3.5737,-3.5786,-3.5747,-3.5726,-3.5706,-3.5684,-3.5704,-3.5704,-3.5704,-3.5472,-3.5065,-3.467,-3.407,-3.3518,-3.377,-3.3692,-3.3499,-3.3576,-3.3363,-3.3112,-3.2928,-3.2754,-3.2676,-3.2416,-3.2309,-3.2135,-3.2,-3.1903,-3.1796,-3.1583,-3.1234,-3.0981,-3.0749,-3.0595,-3.0365,-3.0325,-3.0282,-3.0283,-3.0196,-3.0164,-2.987,-3.0107,-3.0073,-2.966,-2.9351,-2.9398,-2.9351,-2.922,-2.9296,-4.6289,-4.6287,-4.6205,-4.6248,-4.6307,-4.63,-4.63,-4.63,-4.63,-4.5968,-4.5226,-4.5012,-4.4406,-4.4192,-4.4465,-4.4797,-4.509,-4.5304,-4.5343,-4.5226,-4.5617,-4.5968,-4.6222,-4.6277,-4.622,-4.6085,-4.6111,-4.5664,-4.5138,-4.4739,-4.4679,-4.379,-4.3462,-4.298,-4.2324,-4.1885,-4.1407,-4.0622,-3.9971,-3.9191,-3.8407,-3.7599,-3.6903,-3.6057,-3.5949,-3.5834,-3.581,-3.5749,-3.5764,-3.5794,-3.5794,-3.5724,-3.5669,-3.5676,-3.5727,-3.5718,-3.5727,-3.5723,-3.5742,-3.5734,-3.5725,-3.5737,-3.573,-3.5767,-3.5823,-3.5791,-3.576,-3.5801,-3.5801,-3.576,-3.5727,-3.5704,-3.5704,-3.5704,-3.5704,-3.5704,-3.5588,-3.5035,-3.4397,-3.3982,-3.435,-3.4466,-3.4311,-3.4272,-3.3963,-3.3712,-3.3557,-3.3392,-3.3334,-3.3247,-3.3131,-3.2812,-3.258,-3.2483,-3.2406,-3.2328,-3.1979,-3.1554,-3.1255,-3.0994,-3.0772,-3.055,-3.0481,-3.0511,-3.0442,-3.0402,-3.0342,-3.0332,-3.0263,-3.0184,-3.0087,-2.9902,-2.9966,-3.0098,-3.0163,-4.6209,-4.6201,-4.62,-4.6246,-4.6306,-4.63,-4.63,-4.63,-4.63,-4.6222,-4.5851,-4.4582,-4.4289,-4.4426,-4.4036,-4.4328,-4.4699,-4.4758,-4.4641,-4.4875,-4.5324,-4.5695,-4.6222,-4.63,-4.6183,-4.6035,-4.6016,-4.585,-4.5602,-4.5583,-4.5263,-4.5079,-4.4527,-4.3775,-4.2907,-4.2275,-4.1547,-4.0708,-4.0288,-3.9758,-3.9046,-3.858,-3.7932,-3.6837,-3.6755,-3.6459,-3.5904,-3.5768,-3.5729,-3.5729,-3.5763,-3.5765,-3.5784,-3.5773,-3.5776,-3.5772,-3.5754,-3.5766,-3.5811,-3.5811,-3.5842,-3.59,-3.5882,-3.5885,-3.5896,-3.5815,-3.5799,-3.5899,-3.5885,-3.5826,-3.5716,-3.5781,-3.5723,-3.5723,-3.5704,-3.5704,-3.5665,-3.5491,-3.5298,-3.4969,-3.522,-3.5336,-3.5085,-3.4949,-3.4833,-3.4717,-3.4679,-3.4427,-3.4214,-3.4079,-3.3905,-3.3499,-3.3024,-3.3005,-3.2966,-3.2928,-3.2734,-3.2232,-3.1845,-3.1478,-3.1197,-3.0752,-3.0617,-3.1023,-3.0849,-3.053,-3.0511,-3.0492,-3.0482,-3.0417,-3.0375,-3.0314,-3.0321,-3.0328,-3.0369,-4.6215,-4.621,-4.6206,-4.6245,-4.6305,-4.63,-4.63,-4.63,-4.628,-4.6027,-4.5363,-4.4309,-4.3645,-4.3704,-4.3821,-4.3977,-4.4153,-4.4484,-4.4348,-4.4543,-4.5226,-4.5831,-4.628,-4.63,-4.6138,-4.5987,-4.5998,-4.5925,-4.5706,-4.5665,-4.5696,-4.5587,-4.5224,-4.4453,-4.3374,-4.2742,-4.1767,-4.0924,-4.0508,-4.0092,-3.93,-3.8965,-3.8177,-3.7919,-3.7642,-3.7299,-3.6707,-3.6518,-3.6284,-3.5967,-3.5883,-3.5883,-3.5908,-3.5928,-3.5889,-3.585,-3.5805,-3.5799,-3.5863,-3.5831,-3.5882,-3.5924,-3.5869,-3.5872,-3.5881,-3.5826,-3.5781,-3.5927,-3.6329,-3.6202,-3.5792,-3.6071,-3.6091,-3.5781,-3.5742,-3.5781,-3.5742,-3.5742,-3.5781,-3.582,-3.5665,-3.5607,-3.5607,-3.5549,-3.5646,-3.5704,-3.5704,-3.5414,-3.5027,-3.4853,-3.464,-3.4505,-3.4118,-3.4098,-3.4002,-3.3808,-3.3557,-3.3015,-3.259,-3.2203,-3.1971,-3.1681,-3.1797,-3.2126,-3.1681,-3.0984,-3.0617,-3.0569,-3.0598,-3.0617,-3.054,-3.0471,-3.05,-3.0539,-3.0563,-4.6205,-4.6208,-4.6225,-4.6245,-4.6303,-4.63,-4.63,-4.63,-4.63,-4.5812,-4.4953,-4.4114,-4.3333,-4.2962,-4.3157,-4.3505,-4.3723,-4.4426,-4.4348,-4.4524,-4.5519,-4.628,-4.6269,-4.626,-4.6151,-4.5949,-4.5968,-4.5873,-4.5668,-4.5635,-4.5654,-4.5651,-4.5671,-4.4996,-4.3705,-4.3166,-4.2152,-4.1447,-4.0553,-4.0079,-3.9492,-3.8926,-3.8539,-3.8638,-3.8675,-3.8316,-3.7593,-3.7234,-3.7077,-3.6629,-3.63,-3.6091,-3.6218,-3.6253,-3.6199,-3.6114,-3.6009,-3.5896,-3.5885,-3.585,-3.588,-3.5902,-3.5852,-3.585,-3.5843,-3.5832,-3.5833,-3.6078,-3.6483,-3.6701,-3.6265,-3.669,-3.6671,-3.6284,-3.6179,-3.6256,-3.64,-3.6419,-3.6342,-3.6245,-3.5994,-3.582,-3.5762,-3.5704,-3.5704,-3.5704,-3.5704,-3.5704,-3.5394,-3.5452,-3.5356,-3.5452,-3.5375,-3.5375,-3.5182,-3.4795,-3.4427,-3.3886,-3.3499,-3.3131,-3.2996,-3.2831,-3.2947,-3.2861,-3.23,-3.1623,-3.1139,-3.0694,-3.0617,-3.0617,-3.0617,-3.0588,-3.0579,-3.0675,-3.0771,-4.6207,-4.6217,-4.6268,-4.63,-4.6306,-4.63,-4.63,-4.63,-4.6261,-4.5812,-4.4836,-4.4094,-4.3548,-4.3317,-4.2747,-4.306,-4.3587,-4.398,-4.4374,-4.4784,-4.5773,-4.626,-4.6222,-4.6209,-4.6091,-4.5925,-4.5972,-4.588,-4.5738,-4.5687,-4.5684,-4.57,-4.5661,-4.5198,-4.4214,-4.3605,-4.3034,-4.2518,-4.128,-4.0492,-4.0391,-4.0262,-3.9943,-3.9663,-3.9513,-3.9234,-3.8432,-3.7959,-3.7653,-3.7985,-3.6774,-3.6501,-3.6972,-3.7168,-3.7138,-3.6891,-3.6464,-3.5937,-3.6049,-3.5947,-3.5878,-3.5878,-3.5858,-3.5858,-3.5958,-3.5987,-3.6144,-3.6742,-3.7038,-3.7058,-3.7019,-3.758,-3.7452,-3.7328,-3.7204,-3.7533,-3.7677,-3.6833,-3.6787,-3.6555,-3.6284,-3.5994,-3.58,-3.5742,-3.5704,-3.5704,-3.5704,-3.5704,-3.5704,-3.5704,-3.5704,-3.5704,-3.5704,-3.5704,-3.5684,-3.5394,-3.5143,-3.4631,-3.4389,-3.406,-3.3944,-3.3789,-3.343,-3.3247,-3.2783,-3.2474,-3.2106,-3.1603,-3.0946,-3.081,-3.1062,-3.0888,-3.0617,-3.0791,-3.1217,-4.6205,-4.621,-4.6268,-4.6305,-4.6305,-4.629,-4.63,-4.6183,-4.5753,-4.509,-4.4211,-4.3352,-4.2968,-4.2856,-4.2511,-4.2898,-4.3648,-4.4164,-4.4601,-4.5043,-4.5769,-4.6201,-4.6196,-4.6162,-4.6037,-4.5953,-4.596,-4.5925,-4.5824,-4.5793,-4.5812,-4.5808,-4.577,-4.5364,-4.4684,-4.4109,-4.3616,-4.2926,-4.1977,-4.1158,-4.087,-4.078,-4.0693,-4.0461,-4.0491,-4.0004,-3.9357,-3.9032,-3.8609,-3.8668,-3.7692,-3.7633,-3.7931,-3.8038,-3.8045,-3.7987,-3.7669,-3.724,-3.6804,-3.6273,-3.6067,-3.5897,-3.5936,-3.5974,-3.6265,-3.6458,-3.6767,-3.756,-3.8141,-3.8141,-3.7889,-3.845,-3.8257,-3.8141,-3.8152,-3.8249,-3.8257,-3.7568,-3.7046,-3.6826,-3.6555,-3.6226,-3.5916,-3.5762,-3.5704,-3.5704,-3.5704,-3.5704,-3.5704,-3.5704,-3.5704,-3.5704,-3.5704,-3.5704,-3.5704,-3.5588,-3.5549,-3.522,-3.524,-3.4969,-3.4872,-3.4659,-3.4331,-3.4165,-3.4011,-3.3643,-3.3189,-3.2377,-3.1584,-3.1545,-3.1623,-3.1545,-3.1526,-3.201,-3.2512,-4.6202,-4.6207,-4.6261,-4.63,-4.63,-4.63,-4.6306,-4.6215,-4.5685,-4.4745,-4.3609,-4.2633,-4.207,-4.216,-4.2323,-4.2732,-4.3403,-4.4485,-4.492,-4.5247,-4.5533,-4.592,-4.586,-4.5833,-4.5509,-4.5854,-4.5595,-4.5718,-4.5912,-4.5949,-4.5955,-4.5926,-4.5951,-4.562,-4.5056,-4.4539,-4.3989,-4.2806,-4.2479,-4.1789,-4.1081,-4.0876,-4.0933,-4.0986,-4.1013,-4.0788,-4.0239,-3.9836,-3.9429,-3.9449,-3.8687,-3.8498,-3.8858,-3.8943,-3.8926,-3.8906,-3.8747,-3.8539,-3.7936,-3.7316,-3.6629,-3.648,-3.6439,-3.6787,-3.7116,-3.7251,-3.758,-3.847,-3.8934,-3.8953,-3.8895,-3.9301,-3.9224,-3.8992,-3.8849,-3.8818,-3.876,-3.845,-3.7936,-3.7472,-3.7096,-3.64,-3.6091,-3.5839,-3.5723,-3.5704,-3.5704,-3.5704,-3.5704,-3.5704,-3.5704,-3.5704,-3.5695,-3.5715,-3.5704,-3.5704,-3.5704,-3.5706,-3.5706,-3.5637,-3.5386,-3.5386,-3.5259,-3.5171,-3.5016,-3.4823,-3.4369,-3.3267,-3.2271,-3.23,-3.2377,-3.2522,-3.2696,-3.316,-3.3518,-4.6215,-4.6207,-4.6261,-4.6264,-4.6303,-4.63,-4.6297,-4.6268,-4.6127,-4.505,-4.3447,-4.2073,-4.1328,-4.1529,-4.2168,-4.2519,-4.2715,-4.4258,-4.4805,-4.4961,-4.5044,-4.5315,-4.5231,-4.4769,-4.446,-4.5421,-4.5312,-4.5434,-4.5917,-4.608,-4.6065,-4.6028,-4.6044,-4.6038,-4.5699,-4.5131,-4.4124,-4.3176,-4.2897,-4.2332,-4.1424,-4.0976,-4.096,-4.1,-4.1061,-4.1052,-4.0974,-4.0375,-4.021,-4.0522,-3.961,-3.9248,-3.9725,-3.9805,-3.9805,-3.9805,-3.9785,-3.9636,-3.9258,-3.8488,-3.8169,-3.8081,-3.7936,-3.7793,-3.8083,-3.8121,-3.8566,-3.9262,-3.9661,-3.9611,-3.9688,-3.9997,-3.9997,-3.9843,-3.9688,-3.9901,-3.9901,-3.9881,-3.9301,-3.845,-3.7715,-3.7099,-3.6755,-3.6609,-3.5929,-3.5841,-3.5704,-3.5704,-3.5704,-3.5704,-3.5704,-3.5715,-3.5716,-3.5706,-3.5704,-3.5715,-3.5736,-3.5737,-3.5747,-3.5728,-3.562,-3.5706,-3.5704,-3.5626,-3.5394,-3.5491,-3.5414,-3.4331,-3.3479,-3.314,-3.3102,-3.3344,-3.3634,-3.4021,-3.4214,-4.493,-4.5444,-4.5445,-4.5772,-4.6305,-4.6305,-4.6287,-4.6094,-4.5175,-4.4061,-4.2891,-4.1738,-4.1738,-4.2422,-4.2402,-4.3047,-4.3848,-4.3965,-4.457,-4.4629,-4.4551,-4.4317,-4.4102,-4.415,-4.3976,-4.4852,-4.486,-4.5157,-4.5951,-4.6144,-4.6173,-4.6154,-4.6149,-4.6122,-4.591,-4.5687,-4.4793,-4.3977,-4.3467,-4.2838,-4.2042,-4.1242,-4.1033,-4.1046,-4.107,-4.1117,-4.1039,-4.0812,-4.0893,-4.086,-4.04,-4.0423,-4.0505,-4.0586,-4.0605,-4.0605,-4.0566,-4.0529,-4.0254,-3.9312,-3.8391,-3.8263,-3.8218,-3.845,-3.8934,-3.8992,-3.9456,-3.9959,-4.0242,-4.0172,-4.0365,-4.0558,-4.0597,-4.0481,-4.052,-4.0732,-4.0732,-4.0558,-4.0113,-3.9011,-3.8465,-3.7947,-3.7713,-3.7525,-3.6705,-3.5979,-3.5822,-3.5715,-3.5716,-3.5736,-3.5736,-3.5863,-3.5892,-3.5959,-3.5988,-3.5883,-3.5824,-3.5902,-3.5946,-3.5918,-3.595,-3.5706,-3.5704,-3.5704,-3.5704,-3.5646,-3.5472,-3.5093,-3.4707,-3.4369,-3.4195,-3.4195,-3.4524,-3.4833,-3.4911,-4.4727,-4.5281,-4.5293,-4.5505,-4.5918,-4.6191,-4.6133,-4.5723,-4.4687,-4.3613,-4.2715,-4.1797,-4.2129,-4.3086,-4.2871,-4.3144,-4.4062,-4.4336,-4.4531,-4.4567,-4.4364,-4.4073,-4.3978,-4.3892,-4.3982,-4.4692,-4.4821,-4.5176,-4.6061,-4.6144,-4.6202,-4.624,-4.6242,-4.6206,-4.6197,-4.6119,-4.5626,-4.4612,-4.3968,-4.2982,-4.2078,-4.1443,-4.1085,-4.1088,-4.1111,-4.1111,-4.1108,-4.101,-4.1038,-4.1111,-4.1026,-4.1113,-4.114,-4.1152,-4.1142,-4.1123,-4.1094,-4.1075,-4.0664,-4.0062,-3.9083,-3.9224,-3.9146,-3.9437,-3.9688,-3.9862,-4.021,-4.0558,-4.0752,-4.079,-4.079,-4.079,-4.079,-4.0636,-4.0674,-4.0829,-4.0752,-4.0616,-4.0152,-3.9514,-3.9104,-3.875,-3.8296,-3.805,-3.7483,-3.6746,-3.6471,-3.6154,-3.5741,-3.5763,-3.5795,-3.5968,-3.6157,-3.6239,-3.6319,-3.6692,-3.7036,-3.6978,-3.689,-3.6433,-3.6293,-3.6018,-3.5753,-3.5704,-3.5704,-3.5704,-3.5588,-3.5375,-3.5452,-3.5568,-3.5278,-3.4891,-3.5065,-3.5317,-3.5433,-4.5822,-4.5996,-4.5969,-4.5585,-4.5137,-4.5937,-4.582,-4.5156,-4.4746,-4.4297,-4.3476,-4.207,-4.2305,-4.3379,-4.3008,-4.3223,-4.4101,-4.4531,-4.4742,-4.4737,-4.4517,-4.5025,-4.4807,-4.4382,-4.4099,-4.5344,-4.5318,-4.528,-4.6176,-4.621,-4.626,-4.6271,-4.6273,-4.6269,-4.6289,-4.6289,-4.541,-4.4043,-4.3887,-4.2812,-4.1932,-4.1396,-4.1116,-4.1111,-4.1116,-4.1116,-4.1119,-4.1119,-4.1138,-4.1156,-4.1132,-4.1112,-4.1092,-4.1069,-4.1033,-4.1013,-4.1013,-4.0971,-4.0846,-4.0784,-4.0558,-4.0365,-4.0133,-4.0365,-4.0616,-4.0694,-4.0616,-4.079,-4.079,-4.079,-4.079,-4.081,-4.081,-4.0829,-4.0868,-4.0865,-4.0798,-4.0787,-4.0372,-4.0157,-3.9881,-3.9518,-3.8947,-3.8494,-3.8121,-3.7625,-3.7239,-3.6765,-3.627,-3.6095,-3.6241,-3.6644,-3.6913,-3.6791,-3.7069,-3.786,-3.821,-3.8122,-3.7724,-3.7122,-3.6595,-3.6212,-3.5987,-3.5831,-3.5718,-3.5698,-3.5718,-3.5704,-3.5839,-3.5916,-3.5742,-3.553,-3.5684,-3.5704,-3.5704,-4.3285,-4.4275,-4.3771,-4.3748,-4.416,-4.5058,-4.5254,-4.4824,-4.3906,-4.373,-4.4082,-4.2754,-4.334,-4.4258,-4.3476,-4.332,-4.4883,-4.3359,-4.3525,-4.4831,-4.4428,-4.4149,-4.4136,-4.4182,-4.418,-4.4851,-4.4955,-4.5376,-4.6201,-4.624,-4.627,-4.63,-4.6289,-4.6289,-4.6289,-4.6286,-4.585,-4.5293,-4.4453,-4.3359,-4.2715,-4.1797,-4.1164,-4.1169,-4.1175,-4.1182,-4.1152,-4.1152,-4.115,-4.1143,-4.111,-4.1067,-4.1054,-4.1004,-4.1004,-4.0985,-4.0974,-4.0953,-4.0912,-4.0848,-4.0848,-4.0829,-4.079,-4.079,-4.079,-4.079,-4.079,-4.079,-4.079,-4.079,-4.079,-4.0848,-4.0868,-4.0887,-4.0909,-4.0949,-4.0935,-4.0937,-4.0777,-4.0776,-4.0597,-4.0498,-4.0104,-3.9649,-3.9221,-3.8598,-3.8152,-3.7859,-3.7424,-3.7065,-3.7046,-3.762,-3.7921,-3.7632,-3.7773,-3.8594,-3.8711,-3.8396,-3.8015,-3.75,-3.6996,-3.6725,-3.6491,-3.6477,-3.6076,-3.5718,-3.5708,-3.5781,-3.6091,-3.6168,-3.6052,-3.5994,-3.6071,-3.5936,-3.5704,-4.2377,-4.333,-4.286,-4.3,-4.3633,-4.4277,-4.4414,-4.3945,-4.291,-4.3086,-4.3574,-4.2598,-4.3125,-4.4101,-4.3398,-4.3086,-4.5078,-4.3848,-4.3066,-4.4453,-4.4317,-4.4228,-4.4139,-4.4034,-4.4659,-4.5065,-4.5375,-4.578,-4.6216,-4.629,-4.6289,-4.6289,-4.6289,-4.6289,-4.6289,-4.6286,-4.6055,-4.5391,-4.4355,-4.3672,-4.3164,-4.248,-4.1621,-4.1595,-4.1556,-4.1479,-4.1289,-4.1191,-4.1175,-4.1131,-4.1074,-4.1035,-4.0996,-4.0958,-4.0938,-4.0926,-4.0919,-4.09,-4.088,-4.0868,-4.0829,-4.081,-4.079,-4.079,-4.079,-4.079,-4.079,-4.079,-4.081,-4.0848,-4.0868,-4.0938,-4.0996,-4.1016,-4.105,-4.1096,-4.1035,-4.1035,-4.1064,-4.1082,-4.1071,-4.1073,-4.1067,-4.0922,-4.0492,-3.9774,-3.9082,-3.8788,-3.8481,-3.8106,-3.7876,-3.8397,-3.886,-3.8709,-3.8828,-3.9394,-3.9297,-3.873,-3.8415,-3.8141,-3.8036,-3.7854,-3.7495,-3.7096,-3.6716,-3.6319,-3.5843,-3.5839,-3.6245,-3.6458,-3.6439,-3.6439,-3.6477,-3.6381,-3.6187,-4.3288,-4.3279,-4.3355,-4.3344,-4.3476,-4.3516,-4.3125,-4.2461,-4.2363,-4.2422,-4.248,-4.1855,-4.25,-4.3281,-4.2051,-4.2402,-4.3594,-4.3535,-4.3594,-4.3848,-4.4199,-4.4453,-4.4689,-4.4764,-4.5191,-4.5802,-4.6133,-4.6035,-4.6289,-4.6289,-4.6289,-4.6289,-4.6289,-4.6289,-4.6289,-4.623,-4.5957,-4.5367,-4.4629,-4.4101,-4.375,-4.3008,-4.2402,-4.2246,-4.2129,-4.1777,-4.1465,-4.1191,-4.1152,-4.1107,-4.104,-4.0989,-4.0906,-4.0829,-4.081,-4.081,-4.081,-4.081,-4.0829,-4.0829,-4.081,-4.079,-4.079,-4.079,-4.079,-4.079,-4.079,-4.081,-4.0829,-4.0926,-4.1016,-4.1093,-4.1151,-4.1207,-4.1264,-4.123,-4.1133,-4.1133,-4.1172,-4.1155,-4.1106,-4.1071,-4.1024,-4.098,-4.0964,-4.0647,-3.9974,-3.966,-3.9301,-3.8813,-3.8733,-3.9069,-3.9474,-3.9759,-3.998,-4.0117,-3.9961,-3.9414,-3.9349,-3.9141,-3.906,-3.8818,-3.8276,-3.7773,-3.7409,-3.7041,-3.6729,-3.6535,-3.6497,-3.6709,-3.7193,-3.7154,-3.729,-3.7251,-3.7116,-4.1899,-4.2396,-4.1912,-4.2063,-4.2528,-4.2129,-4.207,-4.2305,-4.1855,-4.2129,-4.3281,-4.2422,-4.2539,-4.3535,-4.2558,-4.2832,-4.3047,-4.3223,-4.3301,-4.3555,-4.3828,-4.4375,-4.4707,-4.4902,-4.5488,-4.5976,-4.625,-4.6289,-4.6289,-4.6289,-4.6289,-4.6289,-4.6289,-4.6289,-4.6289,-4.6289,-4.6074,-4.57,-4.4956,-4.4685,-4.4375,-4.3769,-4.3223,-4.2773,-4.2539,-4.209,-4.1523,-4.125,-4.1172,-4.1094,-4.1094,-4.1047,-4.0977,-4.0958,-4.0938,-4.0868,-4.0829,-4.081,-4.079,-4.079,-4.081,-4.081,-4.079,-4.079,-4.079,-4.079,-4.079,-4.081,-4.09,-4.0996,-4.1234,-4.1381,-4.1543,-4.1684,-4.1738,-4.1719,-4.166,-4.1641,-4.1641,-4.1389,-4.1305,-4.1144,-4.1079,-4.0986,-4.0984,-4.0991,-4.0835,-4.0471,-4.0141,-3.9663,-3.9533,-3.9859,-4.0053,-4.0315,-4.0351,-4.0449,-4.0351,-4.0179,-4.0053,-3.9976,-3.9921,-3.9572,-3.8972,-3.8508,-3.821,-3.7986,-3.7781,-3.7549,-3.7251,-3.7928,-3.8411,-3.8218,-3.8063,-3.8044,-3.8005,-4.1119,-4.1538,-4.1197,-4.1335,-4.1712,-4.1387,-4.1504,-4.1797,-4.1406,-4.1855,-4.2578,-4.2109,-4.2226,-4.2519,-4.2109,-4.2129,-4.2519,-4.2598,-4.2578,-4.2461,-4.3066,-4.3398,-4.3867,-4.4433,-4.4941,-4.5566,-4.6133,-4.6289,-4.6289,-4.6289,-4.6289,-4.6289,-4.6289,-4.6289,-4.6289,-4.6289,-4.6289,-4.5957,-4.5565,-4.5351,-4.5039,-4.4668,-4.3965,-4.3437,-4.3144,-4.2422,-4.1699,-4.1484,-4.1172,-4.1113,-4.1113,-4.1063,-4.0995,-4.0975,-4.0998,-4.0947,-4.0906,-4.0887,-4.0887,-4.0848,-4.0848,-4.0829,-4.081,-4.079,-4.079,-4.079,-4.079,-4.081,-4.097,-4.1137,-4.1463,-4.1748,-4.2014,-4.2257,-4.2305,-4.2324,-4.2305,-4.2266,-4.2031,-4.1738,-4.1524,-4.133,-4.117,-4.1074,-4.1001,-4.1022,-4.1043,-4.0945,-4.0746,-4.0512,-4.0413,-4.0599,-4.0729,-4.0879,-4.082,-4.0742,-4.0684,-4.0618,-4.0546,-4.0513,-4.059,-4.0346,-3.9746,-3.9359,-3.903,-3.8779,-3.8458,-3.8264,-3.816,-3.8837,-3.9282,-3.9166,-3.8972,-3.8876,-3.8818,-4.0848,-4.0943,-4.0984,-4.1113,-4.1191,-4.1191,-4.1211,-4.1191,-4.1211,-4.123,-4.1308,-4.125,-4.1328,-4.1562,-4.1406,-4.1367,-4.1719,-4.1933,-4.2012,-4.1367,-4.2031,-4.2578,-4.3144,-4.3379,-4.4414,-4.5137,-4.5762,-4.6289,-4.6289,-4.6289,-4.6289,-4.6289,-4.6289,-4.6289,-4.6289,-4.6289,-4.6191,-4.584,-4.5664,-4.5527,-4.582,-4.5547,-4.5039,-4.4726,-4.4062,-4.3223,-4.2383,-4.1738,-4.1172,-4.1133,-4.1111,-4.107,-4.1045,-4.1006,-4.1007,-4.0995,-4.0974,-4.0962,-4.0942,-4.0923,-4.0916,-4.0892,-4.0848,-4.0829,-4.0829,-4.081,-4.079,-4.0848,-4.0977,-4.1296,-4.1621,-4.2147,-4.2526,-4.2871,-4.3066,-4.3066,-4.3047,-4.2988,-4.2832,-4.248,-4.2056,-4.1824,-4.1449,-4.1352,-4.1035,-4.1064,-4.1332,-4.1361,-4.1225,-4.1139,-4.1214,-4.125,-4.1094,-4.1094,-4.1074,-4.1016,-4.1035,-4.0983,-4.0888,-4.0827,-4.0784,-4.0655,-4.0532,-4.0172,-3.9823,-3.9379,-3.905,-3.905,-3.9166,-3.9417,-3.9804,-3.9959,-3.9874,-3.9623,-3.9611,-4.0829,-4.0897,-4.1022,-4.1131,-4.1191,-4.1191,-4.1191,-4.1191,-4.1191,-4.1191,-4.1191,-4.1191,-4.1152,-4.1094,-4.1172,-4.1211,-4.1387,-4.1504,-4.1758,-4.1797,-4.1953,-4.2461,-4.3144,-4.3555,-4.4238,-4.5019,-4.5742,-4.6289,-4.6289,-4.6289,-4.6289,-4.6289,-4.6289,-4.6289,-4.6289,-4.6289,-4.6074,-4.5547,-4.584,-4.584,-4.5976,-4.6035,-4.5762,-4.5039,-4.4199,-4.3359,-4.25,-4.168,-4.1328,-4.1172,-4.1191,-4.1167,-4.1166,-4.1113,-4.1074,-4.1065,-4.1033,-4.1011,-4.0996,-4.0988,-4.1012,-4.1009,-4.0982,-4.0919,-4.0868,-4.0829,-4.0848,-4.0906,-4.1141,-4.1496,-4.1917,-4.252,-4.3086,-4.3476,-4.3848,-4.3828,-4.3828,-4.3789,-4.3672,-4.3223,-4.2734,-4.2271,-4.1887,-4.1481,-4.1187,-4.1374,-4.1885,-4.2034,-4.1754,-4.1627,-4.1741,-4.1699,-4.125,-4.1172,-4.1191,-4.1191,-4.1152,-4.1113,-4.103,-4.0995,-4.0963,-4.0851,-4.0749,-4.0808,-4.059,-4.0122,-3.9968,-4.0288,-4.0416,-4.0268,-4.0113,-4.0184,-4.0203,-4.0029,-4.0172,-3.9688,-3.9785,-4.0312,-4.0781,-4.1113,-4.1191,-4.1191,-4.1191,-4.1191,-4.119,-4.1167,-4.1128,-4.0972,-4.0836,-4.0954,-4.1463,-4.1522,-4.1308,-4.207,-4.2441,-4.2344,-4.2715,-4.3242,-4.373,-4.4297,-4.5019,-4.582,-4.6289,-4.6289,-4.6289,-4.6289,-4.6289,-4.6289,-4.6289,-4.6289,-4.623,-4.5859,-4.5098,-4.5859,-4.6016,-4.5937,-4.5937,-4.6094,-4.5371,-4.4433,-4.3555,-4.2793,-4.1973,-4.1328,-4.1191,-4.1191,-4.1191,-4.1191,-4.1152,-4.1133,-4.1133,-4.1099,-4.1074,-4.1113,-4.1172,-4.1308,-4.1445,-4.1121,-4.1062,-4.1432,-4.1402,-4.1241,-4.1342,-4.1825,-4.2222,-4.2708,-4.326,-4.3769,-4.4219,-4.4512,-4.4629,-4.4922,-4.5156,-4.4785,-4.4219,-4.3594,-4.2806,-4.2291,-4.1503,-4.1269,-4.1308,-4.1894,-4.2441,-4.2226,-4.2363,-4.2402,-4.2168,-4.1719,-4.1308,-4.1191,-4.1191,-4.1172,-4.1133,-4.1113,-4.1057,-4.1012,-4.0994,-4.0976,-4.0956,-4.0956,-4.0849,-4.084,-4.092,-4.0861,-4.0597,-4.0423,-4.0319,-4.0358,-4.0397,-4.0481,-3.8303,-3.8449,-3.9394,-4.0137,-4.0801,-4.1094,-4.1113,-4.1035,-4.1132,-4.1069,-4.094,-4.1035,-4.0639,-4.0528,-4.0728,-4.1572,-4.1984,-4.1711,-4.2457,-4.3065,-4.2891,-4.3125,-4.3398,-4.375,-4.4316,-4.5039,-4.5879,-4.6172,-4.6289,-4.6289,-4.6289,-4.6289,-4.6289,-4.6289,-4.6289,-4.6191,-4.582,-4.5254,-4.5391,-4.5566,-4.5644,-4.5781,-4.6094,-4.5683,-4.4844,-4.3965,-4.3359,-4.2617,-4.1699,-4.1641,-4.1777,-4.1738,-4.1758,-4.1797,-4.1836,-4.1855,-4.1894,-4.1836,-4.1738,-4.1797,-4.2051,-4.2109,-4.1582,-4.1551,-4.1987,-4.2023,-4.1842,-4.2083,-4.2568,-4.2915,-4.3382,-4.3945,-4.4433,-4.4824,-4.5098,-4.5351,-4.5801,-4.6172,-4.5664,-4.5078,-4.4355,-4.3516,-4.2851,-4.2031,-4.1699,-4.1699,-4.1953,-4.2344,-4.2773,-4.3223,-4.3476,-4.291,-4.2246,-4.1836,-4.1484,-4.125,-4.125,-4.1172,-4.1147,-4.1081,-4.1056,-4.1056,-4.1075,-4.1056,-4.1031,-4.1007,-4.0974,-4.0945,-4.0881,-4.081,-4.0694,-4.052,-4.0578,-4.0636,-4.0694,-3.8276,-3.8462,-3.9363,-3.9487,-3.9355,-4.0566,-4.0818,-4.0318,-4.0845,-4.0767,-4.0516,-4.0879,-4.0971,-4.0873,-4.0994,-4.1582,-4.2249,-4.207,-4.2695,-4.3442,-4.3533,-4.3613,-4.3828,-4.4258,-4.4355,-4.5019,-4.582,-4.6211,-4.6289,-4.6289,-4.6289,-4.6289,-4.6289,-4.6289,-4.6289,-4.6094,-4.5742,-4.5176,-4.5332,-4.5703,-4.4941,-4.5273,-4.6133,-4.584,-4.5312,-4.4902,-4.4453,-4.3769,-4.3379,-4.3223,-4.3027,-4.2715,-4.2617,-4.2656,-4.2851,-4.2793,-4.2832,-4.2851,-4.2812,-4.2793,-4.3066,-4.3262,-4.2871,-4.2627,-4.2896,-4.2925,-4.2907,-4.3078,-4.341,-4.3417,-4.3849,-4.4524,-4.5058,-4.5273,-4.5508,-4.5801,-4.6172,-4.625,-4.6055,-4.5605,-4.5117,-4.459,-4.4238,-4.3535,-4.2969,-4.3125,-4.3594,-4.3887,-4.3574,-4.4023,-4.4512,-4.3808,-4.3008,-4.248,-4.2148,-4.1543,-4.1387,-4.1269,-4.1289,-4.1504,-4.1484,-4.1191,-4.1191,-4.1348,-4.1211,-4.1091,-4.105,-4.0975,-4.0909,-4.0848,-4.081,-4.0752,-4.079,-4.079,-4.079]}]]